Wetterdaten: Donnerstag, 23.06.2016
Datum Zeit Temp. A. Feuchte A. Luftdruck Regen Wind Richtung Richtung Sonnenschein ET UV Solar Taupunkt Windchill Windben Empfang
23.06.2016 00:00 21,1 C 77 % 1021,9 hPa 0,0 l/m 5,2 km/h (1 Bft) O-SO 103 0 min 0,000 mm 0,0 UV-I 0 W/m 16,9 C 21,1 C 9,7 km/h (2 Bft) 100,00 %
23.06.2016 00:02 21,1 C 77 % 1021,9 hPa 0,0 l/m 5,6 km/h (1 Bft) O-NO 69 0 min 0,000 mm 0,0 UV-I 0 W/m 16,9 C 21,1 C 9,7 km/h (2 Bft) 100,00 %
23.06.2016 00:04 21,1 C 77 % 1021,9 hPa 0,0 l/m 5,6 km/h (1 Bft) O-SO 111 0 min 0,000 mm 0,0 UV-I 0 W/m 16,9 C 21,1 C 11,3 km/h (2 Bft) 94,00 %
23.06.2016 00:06 21,1 C 77 % 1021,9 hPa 0,0 l/m 3,8 km/h (1 Bft) O 90 0 min 0,000 mm 0,0 UV-I 0 W/m 16,9 C 21,1 C 6,4 km/h (2 Bft) 97,87 %
23.06.2016 00:08 21,0 C 77 % 1021,9 hPa 0,0 l/m 4,3 km/h (1 Bft) O 90 0 min 0,000 mm 0,0 UV-I 0 W/m 16,8 C 21,0 C 9,7 km/h (2 Bft) 98,00 %
23.06.2016 00:10 21,0 C 78 % 1021,9 hPa 0,0 l/m 4,1 km/h (1 Bft) O-NO 67 0 min 0,000 mm 0,0 UV-I 0 W/m 17,0 C 21,0 C 8,0 km/h (2 Bft) 97,56 %
23.06.2016 00:12 21,0 C 78 % 1021,9 hPa 0,0 l/m 4,1 km/h (1 Bft) O 86 0 min 0,000 mm 0,0 UV-I 0 W/m 17,0 C 21,0 C 8,0 km/h (2 Bft) 98,00 %
23.06.2016 00:14 21,0 C 78 % 1021,9 hPa 0,0 l/m 3,2 km/h (1 Bft) O 84 0 min 0,000 mm 0,0 UV-I 0 W/m 17,0 C 21,0 C 4,8 km/h (1 Bft) 97,37 %
23.06.2016 00:16 20,9 C 78 % 1021,9 hPa 0,0 l/m 4,2 km/h (1 Bft) O-NO 76 0 min 0,000 mm 0,0 UV-I 0 W/m 16,9 C 20,9 C 6,4 km/h (2 Bft) 96,00 %
23.06.2016 00:18 20,9 C 78 % 1021,9 hPa 0,0 l/m 6,1 km/h (2 Bft) O 92 0 min 0,000 mm 0,0 UV-I 0 W/m 16,9 C 20,9 C 11,3 km/h (2 Bft) 95,45 %
23.06.2016 00:20 20,9 C 78 % 1021,9 hPa 0,0 l/m 3,8 km/h (1 Bft) O 92 0 min 0,000 mm 0,0 UV-I 0 W/m 16,9 C 20,9 C 6,4 km/h (2 Bft) 98,00 %
23.06.2016 00:22 20,9 C 78 % 1021,9 hPa 0,0 l/m 5,3 km/h (1 Bft) O-NO 65 0 min 0,000 mm 0,0 UV-I 0 W/m 16,9 C 20,9 C 9,7 km/h (2 Bft) 96,00 %
23.06.2016 00:24 20,9 C 78 % 1021,8 hPa 0,0 l/m 5,1 km/h (1 Bft) O 81 0 min 0,000 mm 0,0 UV-I 0 W/m 16,9 C 20,9 C 6,4 km/h (2 Bft) 98,00 %
23.06.2016 00:26 20,9 C 78 % 1021,8 hPa 0,0 l/m 4,5 km/h (1 Bft) O 81 0 min 0,000 mm 0,0 UV-I 0 W/m 16,9 C 20,9 C 4,8 km/h (1 Bft) 97,87 %
23.06.2016 00:28 20,9 C 78 % 1021,8 hPa 0,0 l/m 4,4 km/h (1 Bft) O 90 0 min 0,000 mm 0,0 UV-I 0 W/m 16,9 C 20,9 C 8,0 km/h (2 Bft) 97,37 %
23.06.2016 00:30 20,8 C 78 % 1021,8 hPa 0,0 l/m 4,3 km/h (1 Bft) O 89 0 min 0,000 mm 0,0 UV-I 0 W/m 16,8 C 20,8 C 6,4 km/h (2 Bft) 98,11 %
23.06.2016 00:32 20,8 C 78 % 1021,9 hPa 0,0 l/m 5,9 km/h (2 Bft) O 84 0 min 0,000 mm 0,0 UV-I 0 W/m 16,8 C 20,8 C 9,7 km/h (2 Bft) 97,56 %
23.06.2016 00:34 20,8 C 78 % 1021,9 hPa 0,0 l/m 7,1 km/h (2 Bft) O 101 0 min 0,000 mm 0,0 UV-I 0 W/m 16,8 C 20,5 C 11,3 km/h (2 Bft) 96,00 %
23.06.2016 00:36 20,8 C 78 % 1021,9 hPa 0,0 l/m 6,0 km/h (2 Bft) O-NO 74 0 min 0,000 mm 0,0 UV-I 0 W/m 16,8 C 20,8 C 11,3 km/h (2 Bft) 95,74 %
23.06.2016 00:38 20,8 C 78 % 1021,9 hPa 0,0 l/m 5,4 km/h (1 Bft) O 88 0 min 0,000 mm 0,0 UV-I 0 W/m 16,8 C 20,8 C 8,0 km/h (2 Bft) 97,87 %
23.06.2016 00:40 20,8 C 78 % 1021,9 hPa 0,0 l/m 6,2 km/h (2 Bft) O 82 0 min 0,000 mm 0,0 UV-I 0 W/m 16,8 C 20,8 C 9,7 km/h (2 Bft) 98,11 %
23.06.2016 00:42 20,8 C 78 % 1021,9 hPa 0,0 l/m 6,6 km/h (2 Bft) O-NO 70 0 min 0,000 mm 0,0 UV-I 0 W/m 16,8 C 20,7 C 12,9 km/h (3 Bft) 100,00 %
23.06.2016 00:44 20,8 C 78 % 1021,9 hPa 0,0 l/m 5,6 km/h (1 Bft) O-NO 71 0 min 0,000 mm 0,0 UV-I 0 W/m 16,8 C 20,8 C 9,7 km/h (2 Bft) 97,37 %
23.06.2016 00:46 20,8 C 78 % 1021,9 hPa 0,0 l/m 5,5 km/h (1 Bft) NO 55 0 min 0,000 mm 0,0 UV-I 0 W/m 16,8 C 20,8 C 8,0 km/h (2 Bft) 100,00 %
23.06.2016 00:48 20,8 C 78 % 1021,9 hPa 0,0 l/m 3,7 km/h (1 Bft) NO 51 0 min 0,000 mm 0,0 UV-I 0 W/m 16,8 C 20,8 C 6,4 km/h (2 Bft) 97,37 %
23.06.2016 00:50 20,8 C 78 % 1021,9 hPa 0,0 l/m 2,0 km/h (1 Bft) NO 50 0 min 0,000 mm 0,0 UV-I 0 W/m 16,8 C 20,8 C 4,8 km/h (1 Bft) 100,00 %
23.06.2016 00:52 20,7 C 78 % 1022,0 hPa 0,0 l/m 0,1 km/h (0 Bft) NO 50 0 min 0,000 mm 0,0 UV-I 0 W/m 16,7 C 20,7 C 1,6 km/h (1 Bft) 100,00 %
23.06.2016 00:54 20,6 C 79 % 1022,0 hPa 0,0 l/m 0,1 km/h (0 Bft) NO 50 0 min 0,000 mm 0,0 UV-I 0 W/m 16,8 C 20,6 C 1,6 km/h (1 Bft) 100,00 %
23.06.2016 00:56 20,4 C 79 % 1022,0 hPa 0,0 l/m 0,1 km/h (0 Bft) NO 50 0 min 0,000 mm 0,0 UV-I 0 W/m 16,6 C 20,4 C 1,6 km/h (1 Bft) 100,00 %
23.06.2016 00:58 20,4 C 80 % 1021,9 hPa 0,0 l/m 1,2 km/h (1 Bft) NO 50 0 min 0,000 mm 0,0 UV-I 0 W/m 16,8 C 20,4 C 3,2 km/h (1 Bft) 100,00 %
23.06.2016 01:00 20,3 C 80 % 1021,9 hPa 0,0 l/m 2,7 km/h (1 Bft) NO 50 0 min 0,025 mm 0,0 UV-I 0 W/m 16,7 C 20,3 C 3,2 km/h (1 Bft) 97,37 %
23.06.2016 01:02 20,3 C 80 % 1021,9 hPa 0,0 l/m 2,4 km/h (1 Bft) NO 50 0 min 0,000 mm 0,0 UV-I 0 W/m 16,7 C 20,3 C 3,2 km/h (1 Bft) 100,00 %
23.06.2016 01:04 20,2 C 81 % 1021,9 hPa 0,0 l/m 2,2 km/h (1 Bft) NO 50 0 min 0,000 mm 0,0 UV-I 0 W/m 16,8 C 20,2 C 3,2 km/h (1 Bft) 100,00 %
23.06.2016 01:06 20,1 C 81 % 1021,9 hPa 0,0 l/m 2,0 km/h (1 Bft) NO 50 0 min 0,000 mm 0,0 UV-I 0 W/m 16,7 C 20,1 C 3,2 km/h (1 Bft) 100,00 %
23.06.2016 01:08 20,0 C 81 % 1021,9 hPa 0,0 l/m 2,0 km/h (1 Bft) NO 50 0 min 0,000 mm 0,0 UV-I 0 W/m 16,6 C 20,0 C 3,2 km/h (1 Bft) 100,00 %
23.06.2016 01:10 19,9 C 82 % 1021,9 hPa 0,0 l/m 2,3 km/h (1 Bft) NO 50 0 min 0,000 mm 0,0 UV-I 0 W/m 16,7 C 19,9 C 3,2 km/h (1 Bft) 95,74 %
23.06.2016 01:12 19,8 C 82 % 1021,9 hPa 0,0 l/m 2,5 km/h (1 Bft) NO 50 0 min 0,000 mm 0,0 UV-I 0 W/m 16,6 C 19,8 C 3,2 km/h (1 Bft) 100,00 %
23.06.2016 01:14 19,8 C 82 % 1021,9 hPa 0,0 l/m 3,5 km/h (1 Bft) NO 50 0 min 0,000 mm 0,0 UV-I 0 W/m 16,6 C 19,8 C 4,8 km/h (1 Bft) 97,37 %
23.06.2016 01:16 19,8 C 83 % 1021,9 hPa 0,0 l/m 3,7 km/h (1 Bft) NO 50 0 min 0,000 mm 0,0 UV-I 0 W/m 16,8 C 19,8 C 4,8 km/h (1 Bft) 100,00 %
23.06.2016 01:18 19,7 C 83 % 1021,9 hPa 0,0 l/m 3,4 km/h (1 Bft) NO 50 0 min 0,000 mm 0,0 UV-I 0 W/m 16,7 C 19,7 C 4,8 km/h (1 Bft) 97,92 %
23.06.2016 01:20 19,7 C 83 % 1021,9 hPa 0,0 l/m 2,7 km/h (1 Bft) NO 50 0 min 0,000 mm 0,0 UV-I 0 W/m 16,7 C 19,7 C 4,8 km/h (1 Bft) 100,00 %
23.06.2016 01:22 19,6 C 83 % 1021,9 hPa 0,0 l/m 2,5 km/h (1 Bft) NO 50 0 min 0,000 mm 0,0 UV-I 0 W/m 16,6 C 19,6 C 3,2 km/h (1 Bft) 100,00 %
23.06.2016 01:24 19,6 C 84 % 1021,9 hPa 0,0 l/m 2,5 km/h (1 Bft) NO 50 0 min 0,000 mm 0,0 UV-I 0 W/m 16,8 C 19,6 C 3,2 km/h (1 Bft) 100,00 %
23.06.2016 01:26 19,5 C 84 % 1021,9 hPa 0,0 l/m 2,4 km/h (1 Bft) NO 50 0 min 0,000 mm 0,0 UV-I 0 W/m 16,7 C 19,5 C 3,2 km/h (1 Bft) 100,00 %
23.06.2016 01:28 19,4 C 84 % 1021,9 hPa 0,0 l/m 1,7 km/h (1 Bft) NO 50 0 min 0,000 mm 0,0 UV-I 0 W/m 16,6 C 19,4 C 3,2 km/h (1 Bft) 100,00 %
23.06.2016 01:30 19,4 C 84 % 1021,9 hPa 0,0 l/m 0,5 km/h (0 Bft) NO 50 0 min 0,000 mm 0,0 UV-I 0 W/m 16,6 C 19,4 C 1,6 km/h (1 Bft) 100,00 %
23.06.2016 01:32 19,4 C 84 % 1022,0 hPa 0,0 l/m 0,0 km/h (0 Bft) NO 50 0 min 0,000 mm 0,0 UV-I 0 W/m 16,6 C 19,4 C 0,0 km/h (0 Bft) 100,00 %
23.06.2016 01:34 19,4 C 84 % 1022,0 hPa 0,0 l/m 0,0 km/h (0 Bft) NO 50 0 min 0,000 mm 0,0 UV-I 0 W/m 16,6 C 19,4 C 0,0 km/h (0 Bft) 100,00 %
23.06.2016 01:36 19,4 C 84 % 1021,9 hPa 0,0 l/m 0,0 km/h (0 Bft) NO 50 0 min 0,000 mm 0,0 UV-I 0 W/m 16,6 C 19,4 C 0,0 km/h (0 Bft) 100,00 %
23.06.2016 01:38 19,3 C 83 % 1022,0 hPa 0,0 l/m 0,0 km/h (0 Bft) NO 50 0 min 0,000 mm 0,0 UV-I 0 W/m 16,3 C 19,3 C 0,0 km/h (0 Bft) 100,00 %
23.06.2016 01:40 19,3 C 83 % 1022,0 hPa 0,0 l/m 0,0 km/h (0 Bft) NO 50 0 min 0,000 mm 0,0 UV-I 0 W/m 16,3 C 19,3 C 0,0 km/h (0 Bft) 100,00 %
23.06.2016 01:42 19,3 C 83 % 1022,0 hPa 0,0 l/m 0,0 km/h (0 Bft) NO 50 0 min 0,000 mm 0,0 UV-I 0 W/m 16,3 C 19,3 C 0,0 km/h (0 Bft) 100,00 %
23.06.2016 01:44 19,2 C 83 % 1022,0 hPa 0,0 l/m 0,0 km/h (0 Bft) NO 50 0 min 0,000 mm 0,0 UV-I 0 W/m 16,2 C 19,2 C 0,0 km/h (0 Bft) 100,00 %
23.06.2016 01:46 19,2 C 83 % 1022,0 hPa 0,0 l/m 0,0 km/h (0 Bft) NO 50 0 min 0,000 mm 0,0 UV-I 0 W/m 16,2 C 19,2 C 0,0 km/h (0 Bft) 98,00 %
23.06.2016 01:48 19,2 C 83 % 1021,9 hPa 0,0 l/m 0,0 km/h (0 Bft) NO 50 0 min 0,000 mm 0,0 UV-I 0 W/m 16,2 C 19,2 C 0,0 km/h (0 Bft) 100,00 %
23.06.2016 01:50 19,1 C 84 % 1021,9 hPa 0,0 l/m 0,0 km/h (0 Bft) NO 50 0 min 0,000 mm 0,0 UV-I 0 W/m 16,3 C 19,1 C 0,0 km/h (0 Bft) 98,00 %
23.06.2016 01:52 19,0 C 84 % 1021,9 hPa 0,0 l/m 0,0 km/h (0 Bft) NO 50 0 min 0,000 mm 0,0 UV-I 0 W/m 16,2 C 19,0 C 0,0 km/h (0 Bft) 92,68 %
23.06.2016 01:54 18,9 C 85 % 1021,9 hPa 0,0 l/m 0,0 km/h (0 Bft) NO 50 0 min 0,000 mm 0,0 UV-I 0 W/m 16,3 C 18,9 C 0,0 km/h (0 Bft) 100,00 %
23.06.2016 01:56 18,9 C 86 % 1021,9 hPa 0,0 l/m 0,0 km/h (0 Bft) NO 50 0 min 0,000 mm 0,0 UV-I 0 W/m 16,5 C 18,9 C 0,0 km/h (0 Bft) 98,00 %
23.06.2016 01:58 18,9 C 86 % 1021,9 hPa 0,0 l/m 0,0 km/h (0 Bft) NO 50 0 min 0,000 mm 0,0 UV-I 0 W/m 16,5 C 18,9 C 0,0 km/h (0 Bft) 100,00 %
23.06.2016 02:00 18,8 C 87 % 1021,9 hPa 0,0 l/m 0,0 km/h (0 Bft) NO 50 0 min 0,000 mm 0,0 UV-I 0 W/m 16,6 C 18,8 C 0,0 km/h (0 Bft) 100,00 %
23.06.2016 02:02 18,8 C 87 % 1021,9 hPa 0,0 l/m 0,0 km/h (0 Bft) NO 50 0 min 0,000 mm 0,0 UV-I 0 W/m 16,6 C 18,8 C 0,0 km/h (0 Bft) 96,00 %
23.06.2016 02:04 18,8 C 87 % 1021,9 hPa 0,0 l/m 0,0 km/h (0 Bft) NO 50 0 min 0,000 mm 0,0 UV-I 0 W/m 16,6 C 18,8 C 0,0 km/h (0 Bft) 96,00 %
23.06.2016 02:06 18,8 C 87 % 1021,9 hPa 0,0 l/m 0,0 km/h (0 Bft) NO 50 0 min 0,000 mm 0,0 UV-I 0 W/m 16,6 C 18,8 C 0,0 km/h (0 Bft) 97,14 %
23.06.2016 02:08 18,8 C 87 % 1021,9 hPa 0,0 l/m 0,0 km/h (0 Bft) NO 50 0 min 0,000 mm 0,0 UV-I 0 W/m 16,6 C 18,8 C 0,0 km/h (0 Bft) 97,87 %
23.06.2016 02:10 18,7 C 87 % 1021,9 hPa 0,0 l/m 0,0 km/h (0 Bft) NO 50 0 min 0,000 mm 0,0 UV-I 0 W/m 16,5 C 18,7 C 0,0 km/h (0 Bft) 96,23 %
23.06.2016 02:12 18,7 C 87 % 1021,8 hPa 0,0 l/m 0,0 km/h (0 Bft) NO 50 0 min 0,000 mm 0,0 UV-I 0 W/m 16,5 C 18,7 C 0,0 km/h (0 Bft) 97,87 %
23.06.2016 02:14 18,7 C 87 % 1021,9 hPa 0,0 l/m 0,0 km/h (0 Bft) NO 50 0 min 0,000 mm 0,0 UV-I 0 W/m 16,5 C 18,7 C 0,0 km/h (0 Bft) 94,00 %
23.06.2016 02:16 18,6 C 87 % 1021,9 hPa 0,0 l/m 0,0 km/h (0 Bft) NO 50 0 min 0,000 mm 0,0 UV-I 0 W/m 16,4 C 18,6 C 0,0 km/h (0 Bft) 97,14 %
23.06.2016 02:18 18,6 C 87 % 1021,9 hPa 0,0 l/m 0,0 km/h (0 Bft) NO 50 0 min 0,000 mm 0,0 UV-I 0 W/m 16,4 C 18,6 C 0,0 km/h (0 Bft) 98,00 %
23.06.2016 02:20 18,6 C 87 % 1021,9 hPa 0,0 l/m 0,0 km/h (0 Bft) NO 50 0 min 0,000 mm 0,0 UV-I 0 W/m 16,4 C 18,6 C 0,0 km/h (0 Bft) 98,00 %
23.06.2016 02:22 18,6 C 87 % 1021,9 hPa 0,0 l/m 0,0 km/h (0 Bft) NO 50 0 min 0,000 mm 0,0 UV-I 0 W/m 16,4 C 18,6 C 0,0 km/h (0 Bft) 96,00 %
23.06.2016 02:24 18,6 C 86 % 1021,9 hPa 0,0 l/m 0,0 km/h (0 Bft) NO 50 0 min 0,000 mm 0,0 UV-I 0 W/m 16,2 C 18,6 C 0,0 km/h (0 Bft) 98,00 %
23.06.2016 02:26 18,5 C 86 % 1021,9 hPa 0,0 l/m 0,0 km/h (0 Bft) NO 50 0 min 0,000 mm 0,0 UV-I 0 W/m 16,1 C 18,5 C 0,0 km/h (0 Bft) 97,37 %
23.06.2016 02:28 18,5 C 86 % 1021,9 hPa 0,0 l/m 0,0 km/h (0 Bft) NO 50 0 min 0,000 mm 0,0 UV-I 0 W/m 16,1 C 18,5 C 0,0 km/h (0 Bft) 97,87 %
23.06.2016 02:30 18,4 C 86 % 1021,9 hPa 0,0 l/m 0,0 km/h (0 Bft) NO 50 0 min 0,000 mm 0,0 UV-I 0 W/m 16,0 C 18,4 C 0,0 km/h (0 Bft) 98,00 %
23.06.2016 02:32 18,4 C 86 % 1021,9 hPa 0,0 l/m 0,0 km/h (0 Bft) NO 50 0 min 0,000 mm 0,0 UV-I 0 W/m 16,0 C 18,4 C 0,0 km/h (0 Bft) 98,00 %
23.06.2016 02:34 18,4 C 86 % 1021,9 hPa 0,0 l/m 0,0 km/h (0 Bft) NO 50 0 min 0,000 mm 0,0 UV-I 0 W/m 16,0 C 18,4 C 0,0 km/h (0 Bft) 97,87 %
23.06.2016 02:36 18,3 C 87 % 1021,9 hPa 0,0 l/m 0,0 km/h (0 Bft) NO 50 0 min 0,000 mm 0,0 UV-I 0 W/m 16,1 C 18,3 C 0,0 km/h (0 Bft) 97,87 %
23.06.2016 02:38 18,3 C 87 % 1021,9 hPa 0,0 l/m 0,0 km/h (0 Bft) NO 50 0 min 0,000 mm 0,0 UV-I 0 W/m 16,1 C 18,3 C 0,0 km/h (0 Bft) 100,00 %
23.06.2016 02:40 18,3 C 87 % 1021,9 hPa 0,0 l/m 0,0 km/h (0 Bft) NO 50 0 min 0,000 mm 0,0 UV-I 0 W/m 16,1 C 18,3 C 0,0 km/h (0 Bft) 100,00 %
23.06.2016 02:42 18,2 C 87 % 1021,9 hPa 0,0 l/m 0,0 km/h (0 Bft) NO 50 0 min 0,000 mm 0,0 UV-I 0 W/m 16,0 C 18,2 C 0,0 km/h (0 Bft) 100,00 %
23.06.2016 02:44 18,2 C 87 % 1021,9 hPa 0,0 l/m 0,0 km/h (0 Bft) NO 50 0 min 0,000 mm 0,0 UV-I 0 W/m 16,0 C 18,2 C 0,0 km/h (0 Bft) 98,21 %
23.06.2016 02:46 18,2 C 87 % 1021,9 hPa 0,0 l/m 0,0 km/h (0 Bft) NO 50 0 min 0,000 mm 0,0 UV-I 0 W/m 16,0 C 18,2 C 0,0 km/h (0 Bft) 100,00 %
23.06.2016 02:48 18,1 C 87 % 1021,9 hPa 0,0 l/m 0,0 km/h (0 Bft) NO 50 0 min 0,000 mm 0,0 UV-I 0 W/m 15,9 C 18,1 C 0,0 km/h (0 Bft) 100,00 %
23.06.2016 02:50 18,1 C 87 % 1021,9 hPa 0,0 l/m 0,0 km/h (0 Bft) NO 50 0 min 0,000 mm 0,0 UV-I 0 W/m 15,9 C 18,1 C 0,0 km/h (0 Bft) 100,00 %
23.06.2016 02:52 18,1 C 87 % 1021,9 hPa 0,0 l/m 0,0 km/h (0 Bft) NO 50 0 min 0,000 mm 0,0 UV-I 0 W/m 15,9 C 18,1 C 0,0 km/h (0 Bft) 100,00 %
23.06.2016 02:54 18,0 C 87 % 1021,9 hPa 0,0 l/m 0,0 km/h (0 Bft) NO 50 0 min 0,000 mm 0,0 UV-I 0 W/m 15,8 C 18,0 C 0,0 km/h (0 Bft) 100,00 %
23.06.2016 02:56 17,9 C 87 % 1021,9 hPa 0,0 l/m 0,0 km/h (0 Bft) NO 50 0 min 0,000 mm 0,0 UV-I 0 W/m 15,7 C 17,9 C 0,0 km/h (0 Bft) 96,00 %
23.06.2016 02:58 17,9 C 87 % 1021,9 hPa 0,0 l/m 0,0 km/h (0 Bft) NO 50 0 min 0,000 mm 0,0 UV-I 0 W/m 15,7 C 17,9 C 0,0 km/h (0 Bft) 100,00 %
23.06.2016 03:00 17,8 C 88 % 1021,8 hPa 0,0 l/m 0,0 km/h (0 Bft) NO 50 0 min 0,000 mm 0,0 UV-I 0 W/m 15,8 C 17,8 C 0,0 km/h (0 Bft) 100,00 %
23.06.2016 03:02 17,8 C 88 % 1021,8 hPa 0,0 l/m 0,0 km/h (0 Bft) NO 50 0 min 0,000 mm 0,0 UV-I 0 W/m 15,8 C 17,8 C 0,0 km/h (0 Bft) 97,87 %
23.06.2016 03:04 17,7 C 88 % 1021,8 hPa 0,0 l/m 0,0 km/h (0 Bft) NO 50 0 min 0,000 mm 0,0 UV-I 0 W/m 15,7 C 17,7 C 0,0 km/h (0 Bft) 92,68 %
23.06.2016 03:06 17,7 C 88 % 1021,8 hPa 0,0 l/m 0,0 km/h (0 Bft) NO 50 0 min 0,000 mm 0,0 UV-I 0 W/m 15,7 C 17,7 C 0,0 km/h (0 Bft) 97,87 %
23.06.2016 03:08 17,7 C 88 % 1021,8 hPa 0,0 l/m 0,0 km/h (0 Bft) NO 50 0 min 0,000 mm 0,0 UV-I 0 W/m 15,7 C 17,7 C 0,0 km/h (0 Bft) 98,11 %
23.06.2016 03:10 17,7 C 88 % 1021,8 hPa 0,0 l/m 0,0 km/h (0 Bft) NO 50 0 min 0,000 mm 0,0 UV-I 0 W/m 15,7 C 17,7 C 0,0 km/h (0 Bft) 97,87 %
23.06.2016 03:12 17,6 C 88 % 1021,8 hPa 0,0 l/m 0,0 km/h (0 Bft) NO 50 0 min 0,000 mm 0,0 UV-I 0 W/m 15,6 C 17,6 C 0,0 km/h (0 Bft) 97,87 %
23.06.2016 03:14 17,6 C 88 % 1021,8 hPa 0,0 l/m 0,0 km/h (0 Bft) NO 50 0 min 0,000 mm 0,0 UV-I 0 W/m 15,6 C 17,6 C 0,0 km/h (0 Bft) 100,00 %
23.06.2016 03:16 17,6 C 89 % 1021,8 hPa 0,0 l/m 0,0 km/h (0 Bft) NO 50 0 min 0,000 mm 0,0 UV-I 0 W/m 15,8 C 17,6 C 0,0 km/h (0 Bft) 100,00 %
23.06.2016 03:18 17,5 C 89 % 1021,8 hPa 0,0 l/m 0,0 km/h (0 Bft) NO 50 0 min 0,000 mm 0,0 UV-I 0 W/m 15,7 C 17,5 C 0,0 km/h (0 Bft) 100,00 %
23.06.2016 03:20 17,5 C 89 % 1021,8 hPa 0,0 l/m 0,0 km/h (0 Bft) NO 50 0 min 0,000 mm 0,0 UV-I 0 W/m 15,7 C 17,5 C 0,0 km/h (0 Bft) 97,87 %
23.06.2016 03:22 17,4 C 90 % 1021,8 hPa 0,0 l/m 0,0 km/h (0 Bft) NO 50 0 min 0,000 mm 0,0 UV-I 0 W/m 15,7 C 17,4 C 0,0 km/h (0 Bft) 100,00 %
23.06.2016 03:24 17,4 C 90 % 1021,8 hPa 0,0 l/m 0,0 km/h (0 Bft) NO 50 0 min 0,000 mm 0,0 UV-I 0 W/m 15,7 C 17,4 C 0,0 km/h (0 Bft) 97,87 %
23.06.2016 03:26 17,4 C 90 % 1021,8 hPa 0,0 l/m 0,0 km/h (0 Bft) NO 50 0 min 0,000 mm 0,0 UV-I 0 W/m 15,7 C 17,4 C 0,0 km/h (0 Bft) 100,00 %
23.06.2016 03:28 17,4 C 90 % 1021,8 hPa 0,0 l/m 0,0 km/h (0 Bft) NO 50 0 min 0,000 mm 0,0 UV-I 0 W/m 15,7 C 17,4 C 0,0 km/h (0 Bft) 100,00 %
23.06.2016 03:30 17,4 C 90 % 1021,7 hPa 0,0 l/m 0,0 km/h (0 Bft) NO 50 0 min 0,000 mm 0,0 UV-I 0 W/m 15,7 C 17,4 C 0,0 km/h (0 Bft) 100,00 %
23.06.2016 03:32 17,3 C 91 % 1021,7 hPa 0,0 l/m 0,0 km/h (0 Bft) NO 50 0 min 0,000 mm 0,0 UV-I 0 W/m 15,8 C 17,3 C 0,0 km/h (0 Bft) 100,00 %
23.06.2016 03:34 17,3 C 91 % 1021,7 hPa 0,0 l/m 0,0 km/h (0 Bft) NO 50 0 min 0,000 mm 0,0 UV-I 0 W/m 15,8 C 17,3 C 0,0 km/h (0 Bft) 100,00 %
23.06.2016 03:36 17,3 C 91 % 1021,7 hPa 0,0 l/m 0,0 km/h (0 Bft) NO 50 0 min 0,000 mm 0,0 UV-I 0 W/m 15,8 C 17,3 C 0,0 km/h (0 Bft) 100,00 %
23.06.2016 03:38 17,3 C 91 % 1021,7 hPa 0,0 l/m 0,0 km/h (0 Bft) NO 50 0 min 0,000 mm 0,0 UV-I 0 W/m 15,8 C 17,3 C 0,0 km/h (0 Bft) 100,00 %
23.06.2016 03:40 17,3 C 91 % 1021,7 hPa 0,0 l/m 0,0 km/h (0 Bft) NO 50 0 min 0,000 mm 0,0 UV-I 0 W/m 15,8 C 17,3 C 0,0 km/h (0 Bft) 100,00 %
23.06.2016 03:42 17,3 C 90 % 1021,7 hPa 0,0 l/m 0,0 km/h (0 Bft) NO 50 0 min 0,000 mm 0,0 UV-I 0 W/m 15,6 C 17,3 C 0,0 km/h (0 Bft) 98,00 %
23.06.2016 03:44 17,3 C 90 % 1021,7 hPa 0,0 l/m 0,0 km/h (0 Bft) NO 50 0 min 0,000 mm 0,0 UV-I 0 W/m 15,6 C 17,3 C 0,0 km/h (0 Bft) 100,00 %
23.06.2016 03:46 17,2 C 90 % 1021,7 hPa 0,0 l/m 0,0 km/h (0 Bft) NO 50 0 min 0,000 mm 0,0 UV-I 0 W/m 15,5 C 17,2 C 0,0 km/h (0 Bft) 100,00 %
23.06.2016 03:48 17,2 C 90 % 1021,7 hPa 0,0 l/m 0,0 km/h (0 Bft) NO 50 0 min 0,000 mm 0,0 UV-I 0 W/m 15,5 C 17,2 C 0,0 km/h (0 Bft) 100,00 %
23.06.2016 03:50 17,2 C 90 % 1021,7 hPa 0,0 l/m 0,0 km/h (0 Bft) NO 50 0 min 0,000 mm 0,0 UV-I 0 W/m 15,5 C 17,2 C 0,0 km/h (0 Bft) 100,00 %
23.06.2016 03:52 17,2 C 90 % 1021,7 hPa 0,0 l/m 0,0 km/h (0 Bft) NO 50 0 min 0,000 mm 0,0 UV-I 0 W/m 15,5 C 17,2 C 0,0 km/h (0 Bft) 100,00 %
23.06.2016 03:54 17,1 C 90 % 1021,8 hPa 0,0 l/m 0,0 km/h (0 Bft) NO 50 0 min 0,000 mm 0,0 UV-I 0 W/m 15,4 C 17,1 C 0,0 km/h (0 Bft) 100,00 %
23.06.2016 03:56 17,1 C 90 % 1021,8 hPa 0,0 l/m 0,0 km/h (0 Bft) NO 50 0 min 0,000 mm 0,0 UV-I 0 W/m 15,4 C 17,1 C 0,0 km/h (0 Bft) 100,00 %
23.06.2016 03:58 17,1 C 90 % 1021,8 hPa 0,0 l/m 0,0 km/h (0 Bft) NO 50 0 min 0,000 mm 0,0 UV-I 0 W/m 15,4 C 17,1 C 0,0 km/h (0 Bft) 100,00 %
23.06.2016 04:00 17,1 C 90 % 1021,8 hPa 0,0 l/m 0,0 km/h (0 Bft) NO 50 0 min 0,000 mm 0,0 UV-I 0 W/m 15,4 C 17,1 C 0,0 km/h (0 Bft) 100,00 %
23.06.2016 04:02 17,1 C 90 % 1021,8 hPa 0,0 l/m 0,0 km/h (0 Bft) NO 50 0 min 0,000 mm 0,0 UV-I 0 W/m 15,4 C 17,1 C 0,0 km/h (0 Bft) 97,30 %
23.06.2016 04:04 17,0 C 90 % 1021,7 hPa 0,0 l/m 0,0 km/h (0 Bft) NO 50 0 min 0,000 mm 0,0 UV-I 0 W/m 15,3 C 17,0 C 0,0 km/h (0 Bft) 96,00 %
23.06.2016 04:06 16,9 C 90 % 1021,7 hPa 0,0 l/m 0,0 km/h (0 Bft) NO 50 0 min 0,000 mm 0,0 UV-I 0 W/m 15,2 C 16,9 C 0,0 km/h (0 Bft) 100,00 %
23.06.2016 04:08 16,9 C 90 % 1021,7 hPa 0,0 l/m 0,0 km/h (0 Bft) NO 50 0 min 0,000 mm 0,0 UV-I 0 W/m 15,2 C 16,9 C 0,0 km/h (0 Bft) 95,74 %
23.06.2016 04:10 16,9 C 91 % 1021,7 hPa 0,0 l/m 0,0 km/h (0 Bft) NO 50 0 min 0,000 mm 0,0 UV-I 0 W/m 15,4 C 16,9 C 0,0 km/h (0 Bft) 98,11 %
23.06.2016 04:12 16,9 C 92 % 1021,8 hPa 0,0 l/m 0,0 km/h (0 Bft) NO 50 0 min 0,000 mm 0,0 UV-I 0 W/m 15,6 C 16,9 C 0,0 km/h (0 Bft) 97,87 %
23.06.2016 04:14 16,8 C 92 % 1021,8 hPa 0,0 l/m 0,0 km/h (0 Bft) NO 50 0 min 0,000 mm 0,0 UV-I 0 W/m 15,5 C 16,8 C 0,0 km/h (0 Bft) 95,74 %
23.06.2016 04:16 16,8 C 92 % 1021,8 hPa 0,0 l/m 0,0 km/h (0 Bft) NO 50 0 min 0,000 mm 0,0 UV-I 0 W/m 15,5 C 16,8 C 0,0 km/h (0 Bft) 93,62 %
23.06.2016 04:18 16,8 C 92 % 1021,8 hPa 0,0 l/m 0,0 km/h (0 Bft) NO 50 0 min 0,000 mm 0,0 UV-I 0 W/m 15,5 C 16,8 C 0,0 km/h (0 Bft) 95,74 %
23.06.2016 04:20 16,8 C 92 % 1021,8 hPa 0,0 l/m 0,0 km/h (0 Bft) NO 50 0 min 0,000 mm 0,0 UV-I 0 W/m 15,5 C 16,8 C 0,0 km/h (0 Bft) 97,87 %
23.06.2016 04:22 16,8 C 92 % 1021,8 hPa 0,0 l/m 0,0 km/h (0 Bft) NO 50 0 min 0,000 mm 0,0 UV-I 0 W/m 15,5 C 16,8 C 0,0 km/h (0 Bft) 97,14 %
23.06.2016 04:24 16,8 C 92 % 1021,8 hPa 0,0 l/m 0,0 km/h (0 Bft) NO 50 0 min 0,000 mm 0,0 UV-I 0 W/m 15,5 C 16,8 C 0,0 km/h (0 Bft) 96,23 %
23.06.2016 04:26 16,8 C 92 % 1021,8 hPa 0,0 l/m 0,0 km/h (0 Bft) NO 50 0 min 0,000 mm 0,0 UV-I 0 W/m 15,5 C 16,8 C 0,0 km/h (0 Bft) 98,00 %
23.06.2016 04:28 16,7 C 91 % 1021,8 hPa 0,0 l/m 0,0 km/h (0 Bft) NO 50 0 min 0,000 mm 0,0 UV-I 0 W/m 15,2 C 16,7 C 0,0 km/h (0 Bft) 97,56 %
23.06.2016 04:30 16,7 C 91 % 1021,8 hPa 0,0 l/m 0,0 km/h (0 Bft) NO 50 0 min 0,000 mm 0,0 UV-I 0 W/m 15,2 C 16,7 C 1,6 km/h (1 Bft) 95,74 %
23.06.2016 04:32 16,7 C 92 % 1021,8 hPa 0,0 l/m 0,4 km/h (0 Bft) NO 50 0 min 0,000 mm 0,0 UV-I 0 W/m 15,4 C 16,7 C 1,6 km/h (1 Bft) 98,11 %
23.06.2016 04:34 16,7 C 92 % 1021,9 hPa 0,0 l/m 0,3 km/h (0 Bft) NO 50 0 min 0,000 mm 0,0 UV-I 0 W/m 15,4 C 16,7 C 1,6 km/h (1 Bft) 95,24 %
23.06.2016 04:36 16,6 C 92 % 1021,8 hPa 0,0 l/m 0,0 km/h (0 Bft) NO 50 0 min 0,000 mm 0,0 UV-I 0 W/m 15,3 C 16,6 C 0,0 km/h (0 Bft) 98,00 %
23.06.2016 04:38 16,6 C 92 % 1021,8 hPa 0,0 l/m 0,2 km/h (0 Bft) NO 50 0 min 0,000 mm 0,0 UV-I 0 W/m 15,3 C 16,6 C 1,6 km/h (1 Bft) 100,00 %
23.06.2016 04:40 16,6 C 92 % 1021,8 hPa 0,0 l/m 0,5 km/h (0 Bft) NO 50 0 min 0,000 mm 0,0 UV-I 0 W/m 15,3 C 16,6 C 1,6 km/h (1 Bft) 100,00 %
23.06.2016 04:42 16,6 C 92 % 1021,8 hPa 0,0 l/m 0,1 km/h (0 Bft) NO 50 0 min 0,000 mm 0,0 UV-I 0 W/m 15,3 C 16,6 C 1,6 km/h (1 Bft) 98,70 %
23.06.2016 04:44 16,6 C 92 % 1021,8 hPa 0,0 l/m 0,6 km/h (0 Bft) NO 50 0 min 0,000 mm 0,0 UV-I 0 W/m 15,3 C 16,6 C 1,6 km/h (1 Bft) 100,00 %
23.06.2016 04:46 16,6 C 92 % 1021,8 hPa 0,0 l/m 1,2 km/h (1 Bft) NO 50 0 min 0,000 mm 0,0 UV-I 0 W/m 15,3 C 16,6 C 1,6 km/h (1 Bft) 100,00 %
23.06.2016 04:48 16,5 C 92 % 1021,8 hPa 0,0 l/m 1,7 km/h (1 Bft) NO 50 0 min 0,000 mm 0,0 UV-I 0 W/m 15,2 C 16,5 C 3,2 km/h (1 Bft) 100,00 %
23.06.2016 04:50 16,5 C 92 % 1021,8 hPa 0,0 l/m 1,5 km/h (1 Bft) NO 50 0 min 0,000 mm 0,0 UV-I 0 W/m 15,2 C 16,5 C 3,2 km/h (1 Bft) 100,00 %
23.06.2016 04:52 16,4 C 92 % 1021,8 hPa 0,0 l/m 1,2 km/h (1 Bft) NO 50 0 min 0,000 mm 0,0 UV-I 0 W/m 15,1 C 16,4 C 1,6 km/h (1 Bft) 100,00 %
23.06.2016 04:54 16,4 C 92 % 1021,8 hPa 0,0 l/m 0,2 km/h (0 Bft) NO 50 0 min 0,000 mm 0,0 UV-I 0 W/m 15,1 C 16,4 C 1,6 km/h (1 Bft) 100,00 %
23.06.2016 04:56 16,4 C 92 % 1021,8 hPa 0,0 l/m 0,0 km/h (0 Bft) NO 50 0 min 0,000 mm 0,0 UV-I 0 W/m 15,1 C 16,4 C 0,0 km/h (0 Bft) 100,00 %
23.06.2016 04:58 16,4 C 92 % 1021,8 hPa 0,0 l/m 0,8 km/h (0 Bft) NO 50 0 min 0,000 mm 0,0 UV-I 0 W/m 15,1 C 16,4 C 1,6 km/h (1 Bft) 100,00 %
23.06.2016 05:00 16,3 C 92 % 1021,8 hPa 0,0 l/m 0,1 km/h (0 Bft) NO 50 0 min 0,000 mm 0,0 UV-I 0 W/m 15,0 C 16,3 C 1,6 km/h (1 Bft) 100,00 %
23.06.2016 05:02 16,3 C 92 % 1021,9 hPa 0,0 l/m 0,0 km/h (0 Bft) NO 50 0 min 0,000 mm 0,0 UV-I 4 W/m 15,0 C 16,3 C 0,0 km/h (0 Bft) 100,00 %
23.06.2016 05:04 16,3 C 91 % 1021,9 hPa 0,0 l/m 0,0 km/h (0 Bft) NO 50 0 min 0,000 mm 0,0 UV-I 5 W/m 14,8 C 16,3 C 0,0 km/h (0 Bft) 100,00 %
23.06.2016 05:06 16,3 C 91 % 1021,9 hPa 0,0 l/m 0,0 km/h (0 Bft) NO 50 0 min 0,000 mm 0,0 UV-I 5 W/m 14,8 C 16,3 C 0,0 km/h (0 Bft) 100,00 %
23.06.2016 05:08 16,3 C 91 % 1021,9 hPa 0,0 l/m 0,0 km/h (0 Bft) NO 50 0 min 0,000 mm 0,0 UV-I 5 W/m 14,8 C 16,3 C 0,0 km/h (0 Bft) 98,00 %
23.06.2016 05:10 16,3 C 91 % 1021,9 hPa 0,0 l/m 0,0 km/h (0 Bft) NO 50 0 min 0,000 mm 0,0 UV-I 7 W/m 14,8 C 16,3 C 0,0 km/h (0 Bft) 100,00 %
23.06.2016 05:12 16,2 C 91 % 1021,9 hPa 0,0 l/m 0,0 km/h (0 Bft) NO 50 0 min 0,000 mm 0,0 UV-I 7 W/m 14,7 C 16,2 C 0,0 km/h (0 Bft) 100,00 %
23.06.2016 05:14 16,2 C 91 % 1021,8 hPa 0,0 l/m 0,0 km/h (0 Bft) NO 50 0 min 0,000 mm 0,0 UV-I 7 W/m 14,7 C 16,2 C 0,0 km/h (0 Bft) 100,00 %
23.06.2016 05:16 16,2 C 91 % 1021,8 hPa 0,0 l/m 0,0 km/h (0 Bft) NO 50 0 min 0,000 mm 0,0 UV-I 9 W/m 14,7 C 16,2 C 0,0 km/h (0 Bft) 97,87 %
23.06.2016 05:18 16,2 C 91 % 1021,8 hPa 0,0 l/m 0,0 km/h (0 Bft) NO 50 0 min 0,000 mm 0,0 UV-I 9 W/m 14,7 C 16,2 C 0,0 km/h (0 Bft) 100,00 %
23.06.2016 05:20 16,2 C 91 % 1021,8 hPa 0,0 l/m 0,0 km/h (0 Bft) NO 50 0 min 0,000 mm 0,0 UV-I 10 W/m 14,7 C 16,2 C 0,0 km/h (0 Bft) 100,00 %
23.06.2016 05:22 16,2 C 91 % 1021,8 hPa 0,0 l/m 0,0 km/h (0 Bft) NO 50 0 min 0,000 mm 0,0 UV-I 11 W/m 14,7 C 16,2 C 0,0 km/h (0 Bft) 100,00 %
23.06.2016 05:24 16,1 C 91 % 1021,8 hPa 0,0 l/m 0,0 km/h (0 Bft) NO 50 0 min 0,000 mm 0,0 UV-I 11 W/m 14,6 C 16,1 C 0,0 km/h (0 Bft) 100,00 %
23.06.2016 05:26 16,1 C 92 % 1021,8 hPa 0,0 l/m 0,0 km/h (0 Bft) NO 50 0 min 0,000 mm 0,0 UV-I 12 W/m 14,8 C 16,1 C 0,0 km/h (0 Bft) 100,00 %
23.06.2016 05:28 16,1 C 92 % 1021,8 hPa 0,0 l/m 0,0 km/h (0 Bft) NO 50 0 min 0,000 mm 0,0 UV-I 12 W/m 14,8 C 16,1 C 0,0 km/h (0 Bft) 100,00 %
23.06.2016 05:30 16,1 C 92 % 1021,8 hPa 0,0 l/m 0,0 km/h (0 Bft) NO 50 0 min 0,000 mm 0,0 UV-I 12 W/m 14,8 C 16,1 C 0,0 km/h (0 Bft) 100,00 %
23.06.2016 05:32 16,1 C 92 % 1021,8 hPa 0,0 l/m 0,0 km/h (0 Bft) NO 50 0 min 0,000 mm 0,0 UV-I 14 W/m 14,8 C 16,1 C 0,0 km/h (0 Bft) 100,00 %
23.06.2016 05:34 16,0 C 92 % 1021,8 hPa 0,0 l/m 0,0 km/h (0 Bft) NO 50 0 min 0,000 mm 0,0 UV-I 14 W/m 14,7 C 16,0 C 0,0 km/h (0 Bft) 97,87 %
23.06.2016 05:36 16,0 C 92 % 1021,8 hPa 0,0 l/m 0,0 km/h (0 Bft) NO 50 0 min 0,000 mm 0,0 UV-I 16 W/m 14,7 C 16,0 C 0,0 km/h (0 Bft) 97,56 %
23.06.2016 05:38 16,0 C 91 % 1021,8 hPa 0,0 l/m 0,0 km/h (0 Bft) NO 50 0 min 0,000 mm 0,0 UV-I 18 W/m 14,5 C 16,0 C 0,0 km/h (0 Bft) 100,00 %
23.06.2016 05:40 15,9 C 91 % 1021,8 hPa 0,0 l/m 0,0 km/h (0 Bft) NO 50 0 min 0,000 mm 0,0 UV-I 18 W/m 14,4 C 15,9 C 0,0 km/h (0 Bft) 98,00 %
23.06.2016 05:42 15,9 C 91 % 1021,8 hPa 0,0 l/m 0,0 km/h (0 Bft) NO 50 0 min 0,000 mm 0,0 UV-I 19 W/m 14,4 C 15,9 C 0,0 km/h (0 Bft) 100,00 %
23.06.2016 05:44 15,9 C 91 % 1021,8 hPa 0,0 l/m 0,0 km/h (0 Bft) NO 50 0 min 0,000 mm 0,0 UV-I 19 W/m 14,4 C 15,9 C 0,0 km/h (0 Bft) 100,00 %
23.06.2016 05:46 15,9 C 91 % 1021,8 hPa 0,0 l/m 0,0 km/h (0 Bft) NO 50 0 min 0,000 mm 0,0 UV-I 20 W/m 14,4 C 15,9 C 0,0 km/h (0 Bft) 97,87 %
23.06.2016 05:48 15,9 C 92 % 1021,8 hPa 0,0 l/m 0,1 km/h (0 Bft) NO 50 0 min 0,000 mm 0,0 UV-I 21 W/m 14,6 C 15,9 C 1,6 km/h (1 Bft) 100,00 %
23.06.2016 05:50 15,9 C 92 % 1021,8 hPa 0,0 l/m 1,7 km/h (1 Bft) NO 50 0 min 0,000 mm 0,0 UV-I 21 W/m 14,6 C 15,9 C 3,2 km/h (1 Bft) 100,00 %
23.06.2016 05:52 15,9 C 92 % 1021,8 hPa 0,0 l/m 1,4 km/h (1 Bft) NO 50 0 min 0,000 mm 0,0 UV-I 21 W/m 14,6 C 15,9 C 3,2 km/h (1 Bft) 100,00 %
23.06.2016 05:54 15,9 C 92 % 1021,8 hPa 0,0 l/m 0,0 km/h (0 Bft) NO 50 0 min 0,000 mm 0,0 UV-I 22 W/m 14,6 C 15,9 C 1,6 km/h (1 Bft) 100,00 %
23.06.2016 05:56 15,9 C 92 % 1021,8 hPa 0,0 l/m 0,4 km/h (0 Bft) NO 50 0 min 0,000 mm 0,0 UV-I 23 W/m 14,6 C 15,9 C 1,6 km/h (1 Bft) 95,74 %
23.06.2016 05:58 15,9 C 92 % 1021,8 hPa 0,0 l/m 0,0 km/h (0 Bft) NO 50 0 min 0,000 mm 0,0 UV-I 23 W/m 14,6 C 15,9 C 0,0 km/h (0 Bft) 100,00 %
23.06.2016 06:00 15,9 C 92 % 1021,8 hPa 0,0 l/m 0,0 km/h (0 Bft) NO 50 0 min 0,000 mm 0,0 UV-I 24 W/m 14,6 C 15,9 C 0,0 km/h (0 Bft) 97,87 %
23.06.2016 06:02 15,9 C 92 % 1021,8 hPa 0,0 l/m 0,0 km/h (0 Bft) NO 50 0 min 0,000 mm 0,0 UV-I 25 W/m 14,6 C 15,9 C 0,0 km/h (0 Bft) 100,00 %
23.06.2016 06:04 15,9 C 92 % 1021,8 hPa 0,0 l/m 0,0 km/h (0 Bft) NO 50 0 min 0,000 mm 0,0 UV-I 25 W/m 14,6 C 15,9 C 0,0 km/h (0 Bft) 97,87 %
23.06.2016 06:06 15,9 C 93 % 1021,8 hPa 0,0 l/m 0,0 km/h (0 Bft) NO 50 0 min 0,000 mm 0,0 UV-I 25 W/m 14,8 C 15,9 C 0,0 km/h (0 Bft) 93,62 %
23.06.2016 06:08 16,0 C 93 % 1021,8 hPa 0,0 l/m 0,0 km/h (0 Bft) NO 50 0 min 0,000 mm 0,0 UV-I 25 W/m 14,9 C 16,0 C 0,0 km/h (0 Bft) 98,00 %
23.06.2016 06:10 16,0 C 93 % 1021,8 hPa 0,0 l/m 0,0 km/h (0 Bft) NO 50 0 min 0,000 mm 0,0 UV-I 26 W/m 14,9 C 16,0 C 0,0 km/h (0 Bft) 95,74 %
23.06.2016 06:12 16,0 C 93 % 1021,8 hPa 0,0 l/m 0,0 km/h (0 Bft) NO 50 0 min 0,000 mm 0,0 UV-I 26 W/m 14,9 C 16,0 C 0,0 km/h (0 Bft) 95,74 %
23.06.2016 06:14 16,0 C 93 % 1021,8 hPa 0,0 l/m 0,0 km/h (0 Bft) NO 50 0 min 0,000 mm 0,0 UV-I 26 W/m 14,9 C 16,0 C 0,0 km/h (0 Bft) 97,87 %
23.06.2016 06:16 16,0 C 93 % 1021,7 hPa 0,0 l/m 0,0 km/h (0 Bft) NO 50 0 min 0,000 mm 0,0 UV-I 27 W/m 14,9 C 16,0 C 0,0 km/h (0 Bft) 97,87 %
23.06.2016 06:18 16,1 C 94 % 1021,8 hPa 0,0 l/m 0,0 km/h (0 Bft) NO 50 0 min 0,000 mm 0,0 UV-I 28 W/m 15,1 C 16,1 C 0,0 km/h (0 Bft) 94,74 %
23.06.2016 06:20 16,1 C 94 % 1021,8 hPa 0,0 l/m 0,0 km/h (0 Bft) NO 50 0 min 0,000 mm 0,0 UV-I 28 W/m 15,1 C 16,1 C 0,0 km/h (0 Bft) 95,74 %
23.06.2016 06:22 16,1 C 94 % 1021,8 hPa 0,0 l/m 0,1 km/h (0 Bft) NO 50 0 min 0,000 mm 0,0 UV-I 28 W/m 15,1 C 16,1 C 1,6 km/h (1 Bft) 97,73 %
23.06.2016 06:24 16,2 C 94 % 1021,9 hPa 0,0 l/m 0,0 km/h (0 Bft) NO 50 0 min 0,000 mm 0,0 UV-I 29 W/m 15,2 C 16,2 C 0,0 km/h (0 Bft) 96,23 %
23.06.2016 06:26 16,2 C 94 % 1021,8 hPa 0,0 l/m 0,4 km/h (0 Bft) NO 50 0 min 0,000 mm 0,0 UV-I 30 W/m 15,2 C 16,2 C 1,6 km/h (1 Bft) 97,87 %
23.06.2016 06:28 16,3 C 94 % 1021,9 hPa 0,0 l/m 0,7 km/h (0 Bft) NO 50 0 min 0,000 mm 0,0 UV-I 30 W/m 15,3 C 16,3 C 1,6 km/h (1 Bft) 98,00 %
23.06.2016 06:30 16,3 C 95 % 1021,8 hPa 0,0 l/m 0,1 km/h (0 Bft) NO 50 0 min 0,000 mm 0,0 UV-I 30 W/m 15,5 C 16,3 C 1,6 km/h (1 Bft) 97,44 %
23.06.2016 06:32 16,4 C 95 % 1021,8 hPa 0,0 l/m 0,0 km/h (0 Bft) NO 50 0 min 0,000 mm 0,0 UV-I 33 W/m 15,6 C 16,4 C 0,0 km/h (0 Bft) 98,00 %
23.06.2016 06:34 16,4 C 95 % 1021,8 hPa 0,0 l/m 0,0 km/h (0 Bft) NO 50 0 min 0,000 mm 0,0 UV-I 75 W/m 15,6 C 16,4 C 0,0 km/h (0 Bft) 98,00 %
23.06.2016 06:36 16,4 C 95 % 1021,8 hPa 0,0 l/m 0,7 km/h (0 Bft) NO 50 0 min 0,000 mm 0,0 UV-I 96 W/m 15,6 C 16,4 C 3,2 km/h (1 Bft) 97,56 %
23.06.2016 06:38 16,5 C 95 % 1021,8 hPa 0,0 l/m 1,5 km/h (1 Bft) NO 50 0 min 0,000 mm 0,0 UV-I 95 W/m 15,7 C 16,5 C 3,2 km/h (1 Bft) 96,00 %
23.06.2016 06:40 16,6 C 95 % 1021,8 hPa 0,0 l/m 1,1 km/h (1 Bft) NO 50 0 min 0,000 mm 0,0 UV-I 93 W/m 15,8 C 16,6 C 3,2 km/h (1 Bft) 97,87 %
23.06.2016 06:42 16,6 C 95 % 1021,8 hPa 0,0 l/m 0,5 km/h (0 Bft) NO 50 0 min 0,000 mm 0,0 UV-I 99 W/m 15,8 C 16,6 C 1,6 km/h (1 Bft) 93,62 %
23.06.2016 06:44 16,7 C 95 % 1021,9 hPa 0,0 l/m 0,7 km/h (0 Bft) NO 50 0 min 0,000 mm 0,0 UV-I 112 W/m 15,9 C 16,7 C 1,6 km/h (1 Bft) 100,00 %
23.06.2016 06:46 16,8 C 95 % 1021,9 hPa 0,0 l/m 1,0 km/h (0 Bft) NO 50 0 min 0,000 mm 0,0 UV-I 112 W/m 16,0 C 16,8 C 3,2 km/h (1 Bft) 95,12 %
23.06.2016 06:48 17,0 C 96 % 1021,8 hPa 0,0 l/m 0,8 km/h (0 Bft) NO 50 0 min 0,000 mm 0,0 UV-I 108 W/m 16,4 C 17,0 C 3,2 km/h (1 Bft) 100,00 %
23.06.2016 06:50 17,2 C 96 % 1021,9 hPa 0,0 l/m 1,4 km/h (1 Bft) NO 50 0 min 0,000 mm 0,0 UV-I 116 W/m 16,6 C 17,2 C 3,2 km/h (1 Bft) 100,00 %
23.06.2016 06:52 17,4 C 96 % 1021,9 hPa 0,0 l/m 0,3 km/h (0 Bft) NO 50 0 min 0,000 mm 0,0 UV-I 127 W/m 16,8 C 17,4 C 1,6 km/h (1 Bft) 100,00 %
23.06.2016 06:54 17,5 C 95 % 1021,8 hPa 0,0 l/m 0,4 km/h (0 Bft) NO 50 0 min 0,000 mm 0,0 UV-I 136 W/m 16,7 C 17,5 C 1,6 km/h (1 Bft) 100,00 %
23.06.2016 06:56 17,7 C 95 % 1021,8 hPa 0,0 l/m 2,1 km/h (1 Bft) NO 50 0 min 0,000 mm 0,0 UV-I 143 W/m 16,9 C 17,7 C 4,8 km/h (1 Bft) 97,56 %
23.06.2016 06:58 17,8 C 95 % 1021,9 hPa 0,0 l/m 3,7 km/h (1 Bft) NO 50 0 min 0,000 mm 0,0 UV-I 148 W/m 17,0 C 17,8 C 6,4 km/h (2 Bft) 100,00 %
23.06.2016 07:00 18,1 C 93 % 1021,8 hPa 0,0 l/m 5,4 km/h (1 Bft) O-NO 59 2 min 0,026 mm 0,0 UV-I 153 W/m 16,9 C 18,1 C 9,7 km/h (2 Bft) 100,00 %
23.06.2016 07:02 18,3 C 92 % 1021,9 hPa 0,0 l/m 6,1 km/h (2 Bft) O-NO 67 2 min 0,000 mm 0,0 UV-I 157 W/m 17,0 C 18,3 C 9,7 km/h (2 Bft) 100,00 %
23.06.2016 07:04 18,4 C 92 % 1021,9 hPa 0,0 l/m 6,4 km/h (2 Bft) NO 34 2 min 0,000 mm 0,5 UV-I 162 W/m 17,1 C 18,4 C 9,7 km/h (2 Bft) 98,00 %
23.06.2016 07:06 18,7 C 90 % 1021,9 hPa 0,0 l/m 6,0 km/h (2 Bft) NO 40 2 min 0,000 mm 0,5 UV-I 167 W/m 17,0 C 18,7 C 8,0 km/h (2 Bft) 100,00 %
23.06.2016 07:08 18,8 C 90 % 1021,9 hPa 0,0 l/m 6,5 km/h (2 Bft) NO 53 2 min 0,000 mm 0,5 UV-I 173 W/m 17,1 C 18,8 C 9,7 km/h (2 Bft) 100,00 %
23.06.2016 07:10 18,9 C 89 % 1021,9 hPa 0,0 l/m 7,3 km/h (2 Bft) O-NO 68 2 min 0,000 mm 0,5 UV-I 179 W/m 17,0 C 18,5 C 14,5 km/h (3 Bft) 100,00 %
23.06.2016 07:12 19,0 C 89 % 1021,8 hPa 0,0 l/m 6,4 km/h (2 Bft) O-NO 57 2 min 0,000 mm 0,5 UV-I 184 W/m 17,1 C 19,0 C 9,7 km/h (2 Bft) 97,87 %
23.06.2016 07:14 19,1 C 88 % 1021,9 hPa 0,0 l/m 7,4 km/h (2 Bft) NO 49 2 min 0,000 mm 0,6 UV-I 190 W/m 17,1 C 18,7 C 9,7 km/h (2 Bft) 100,00 %
23.06.2016 07:16 19,2 C 88 % 1021,9 hPa 0,0 l/m 5,1 km/h (1 Bft) NO 55 2 min 0,000 mm 0,6 UV-I 197 W/m 17,2 C 19,2 C 8,0 km/h (2 Bft) 98,00 %
23.06.2016 07:18 19,3 C 87 % 1021,9 hPa 0,0 l/m 4,8 km/h (1 Bft) NO 36 2 min 0,000 mm 0,6 UV-I 204 W/m 17,1 C 19,3 C 8,0 km/h (2 Bft) 97,56 %
23.06.2016 07:20 19,4 C 87 % 1021,8 hPa 0,0 l/m 4,5 km/h (1 Bft) NO 52 2 min 0,000 mm 0,6 UV-I 211 W/m 17,2 C 19,4 C 8,0 km/h (2 Bft) 100,00 %
23.06.2016 07:22 19,4 C 87 % 1021,8 hPa 0,0 l/m 6,8 km/h (2 Bft) O-NO 58 2 min 0,000 mm 0,7 UV-I 215 W/m 17,2 C 19,2 C 9,7 km/h (2 Bft) 97,14 %
23.06.2016 07:24 19,6 C 87 % 1021,8 hPa 0,0 l/m 5,8 km/h (2 Bft) O-NO 70 2 min 0,000 mm 0,7 UV-I 225 W/m 17,4 C 19,6 C 8,0 km/h (2 Bft) 98,21 %
23.06.2016 07:26 19,6 C 86 % 1021,9 hPa 0,0 l/m 5,4 km/h (1 Bft) NO 38 2 min 0,000 mm 0,7 UV-I 233 W/m 17,2 C 19,6 C 8,0 km/h (2 Bft) 100,00 %
23.06.2016 07:28 19,7 C 86 % 1021,8 hPa 0,0 l/m 6,7 km/h (2 Bft) NO 46 2 min 0,000 mm 0,7 UV-I 240 W/m 17,3 C 19,6 C 9,7 km/h (2 Bft) 100,00 %
23.06.2016 07:30 19,7 C 86 % 1021,8 hPa 0,0 l/m 7,6 km/h (2 Bft) O-NO 65 2 min 0,000 mm 0,8 UV-I 247 W/m 17,3 C 19,2 C 9,7 km/h (2 Bft) 100,00 %
23.06.2016 07:32 19,8 C 85 % 1021,8 hPa 0,0 l/m 7,6 km/h (2 Bft) NO 56 2 min 0,000 mm 0,8 UV-I 257 W/m 17,2 C 19,3 C 9,7 km/h (2 Bft) 100,00 %
23.06.2016 07:34 19,8 C 86 % 1021,8 hPa 0,0 l/m 7,8 km/h (2 Bft) NO 36 2 min 0,000 mm 0,8 UV-I 265 W/m 17,4 C 19,2 C 14,5 km/h (3 Bft) 100,00 %
23.06.2016 07:36 19,9 C 86 % 1021,7 hPa 0,0 l/m 7,7 km/h (2 Bft) NO 47 2 min 0,000 mm 0,8 UV-I 272 W/m 17,5 C 19,4 C 12,9 km/h (3 Bft) 98,21 %
23.06.2016 07:38 20,0 C 86 % 1021,8 hPa 0,0 l/m 9,0 km/h (2 Bft) NO 38 2 min 0,000 mm 0,9 UV-I 287 W/m 17,6 C 19,0 C 12,9 km/h (3 Bft) 100,00 %
23.06.2016 07:40 20,1 C 85 % 1021,7 hPa 0,0 l/m 7,4 km/h (2 Bft) NO 48 2 min 0,000 mm 0,9 UV-I 291 W/m 17,5 C 19,7 C 11,3 km/h (2 Bft) 100,00 %
23.06.2016 07:42 20,2 C 84 % 1021,7 hPa 0,0 l/m 8,1 km/h (2 Bft) N-NO 32 2 min 0,000 mm 0,9 UV-I 294 W/m 17,4 C 19,5 C 12,9 km/h (3 Bft) 100,00 %
23.06.2016 07:44 20,2 C 85 % 1021,7 hPa 0,0 l/m 8,3 km/h (2 Bft) NO 42 2 min 0,000 mm 1,0 UV-I 297 W/m 17,6 C 19,4 C 12,9 km/h (3 Bft) 100,00 %
23.06.2016 07:46 20,3 C 85 % 1021,7 hPa 0,0 l/m 10,3 km/h (2 Bft) N-NO 28 2 min 0,000 mm 1,0 UV-I 304 W/m 17,7 C 18,9 C 14,5 km/h (3 Bft) 100,00 %
23.06.2016 07:48 20,4 C 85 % 1021,7 hPa 0,0 l/m 9,2 km/h (2 Bft) NO 42 2 min 0,000 mm 1,0 UV-I 312 W/m 17,8 C 19,3 C 14,5 km/h (3 Bft) 100,00 %
23.06.2016 07:50 20,5 C 85 % 1021,7 hPa 0,0 l/m 8,2 km/h (2 Bft) NO 40 2 min 0,000 mm 1,1 UV-I 321 W/m 17,9 C 19,8 C 12,9 km/h (3 Bft) 98,11 %
23.06.2016 07:52 20,6 C 83 % 1021,7 hPa 0,0 l/m 9,0 km/h (2 Bft) O-NO 58 2 min 0,000 mm 1,1 UV-I 328 W/m 17,6 C 19,6 C 12,9 km/h (3 Bft) 100,00 %
23.06.2016 07:54 20,6 C 83 % 1021,7 hPa 0,0 l/m 10,3 km/h (2 Bft) O-NO 57 2 min 0,000 mm 1,1 UV-I 335 W/m 17,6 C 19,2 C 14,5 km/h (3 Bft) 98,11 %
23.06.2016 07:56 20,6 C 83 % 1021,7 hPa 0,0 l/m 12,7 km/h (3 Bft) NO 47 2 min 0,000 mm 1,1 UV-I 340 W/m 17,6 C 18,5 C 17,7 km/h (3 Bft) 100,00 %
23.06.2016 07:58 20,6 C 83 % 1021,6 hPa 0,0 l/m 11,4 km/h (2 Bft) NO 42 2 min 0,000 mm 1,2 UV-I 346 W/m 17,6 C 18,9 C 17,7 km/h (3 Bft) 100,00 %
23.06.2016 08:00 20,7 C 83 % 1021,7 hPa 0,0 l/m 9,3 km/h (2 Bft) NO 54 2 min 0,152 mm 1,2 UV-I 352 W/m 17,7 C 19,6 C 14,5 km/h (3 Bft) 100,00 %
23.06.2016 08:02 20,7 C 83 % 1021,6 hPa 0,0 l/m 11,3 km/h (2 Bft) NO 47 2 min 0,000 mm 1,2 UV-I 357 W/m 17,7 C 19,0 C 16,1 km/h (3 Bft) 100,00 %
23.06.2016 08:04 20,8 C 83 % 1021,6 hPa 0,0 l/m 10,3 km/h (2 Bft) O-NO 63 2 min 0,000 mm 1,3 UV-I 361 W/m 17,8 C 19,4 C 16,1 km/h (3 Bft) 100,00 %
23.06.2016 08:06 20,8 C 82 % 1021,6 hPa 0,0 l/m 11,1 km/h (2 Bft) O 87 2 min 0,000 mm 1,3 UV-I 367 W/m 17,6 C 19,2 C 17,7 km/h (3 Bft) 100,00 %
23.06.2016 08:08 20,9 C 82 % 1021,6 hPa 0,0 l/m 9,2 km/h (2 Bft) NO 38 2 min 0,000 mm 1,3 UV-I 373 W/m 17,7 C 19,9 C 16,1 km/h (3 Bft) 98,11 %
23.06.2016 08:10 20,9 C 82 % 1021,6 hPa 0,0 l/m 11,9 km/h (2 Bft) NO 53 2 min 0,000 mm 1,4 UV-I 378 W/m 17,7 C 19,1 C 16,1 km/h (3 Bft) 97,73 %
23.06.2016 08:12 20,9 C 82 % 1021,6 hPa 0,0 l/m 10,4 km/h (2 Bft) O-NO 63 2 min 0,000 mm 1,4 UV-I 383 W/m 17,7 C 19,5 C 19,3 km/h (3 Bft) 98,11 %
23.06.2016 08:14 20,9 C 81 % 1021,5 hPa 0,0 l/m 15,8 km/h (3 Bft) O-NO 58 2 min 0,000 mm 1,5 UV-I 390 W/m 17,5 C 18,2 C 20,9 km/h (4 Bft) 97,37 %
23.06.2016 08:16 21,0 C 82 % 1021,6 hPa 0,0 l/m 14,8 km/h (3 Bft) O-NO 59 2 min 0,000 mm 1,5 UV-I 395 W/m 17,8 C 18,5 C 22,5 km/h (4 Bft) 98,11 %
23.06.2016 08:18 21,1 C 82 % 1021,5 hPa 0,0 l/m 14,9 km/h (3 Bft) O-NO 68 2 min 0,000 mm 1,5 UV-I 401 W/m 17,9 C 18,6 C 20,9 km/h (4 Bft) 97,37 %
23.06.2016 08:20 21,1 C 81 % 1021,5 hPa 0,0 l/m 13,1 km/h (3 Bft) NO 36 2 min 0,000 mm 1,6 UV-I 406 W/m 17,7 C 19,0 C 19,3 km/h (3 Bft) 98,11 %
23.06.2016 08:22 21,1 C 81 % 1021,5 hPa 0,0 l/m 13,3 km/h (3 Bft) O-NO 60 2 min 0,000 mm 1,6 UV-I 411 W/m 17,7 C 19,0 C 19,3 km/h (3 Bft) 98,00 %
23.06.2016 08:24 21,2 C 81 % 1021,5 hPa 0,0 l/m 14,0 km/h (3 Bft) NO 51 2 min 0,000 mm 1,6 UV-I 417 W/m 17,8 C 18,9 C 19,3 km/h (3 Bft) 95,74 %
23.06.2016 08:26 21,2 C 80 % 1021,5 hPa 0,0 l/m 14,5 km/h (3 Bft) NO 34 2 min 0,000 mm 1,7 UV-I 422 W/m 17,6 C 18,8 C 19,3 km/h (3 Bft) 95,74 %
23.06.2016 08:28 21,3 C 80 % 1021,6 hPa 0,0 l/m 8,9 km/h (2 Bft) O-SO 102 2 min 0,000 mm 1,7 UV-I 428 W/m 17,7 C 20,4 C 17,7 km/h (3 Bft) 100,00 %
23.06.2016 08:30 21,3 C 81 % 1021,5 hPa 0,0 l/m 12,1 km/h (2 Bft) NO 54 2 min 0,000 mm 1,8 UV-I 433 W/m 17,9 C 19,5 C 16,1 km/h (3 Bft) 97,01 %
23.06.2016 08:32 21,4 C 81 % 1021,5 hPa 0,0 l/m 11,7 km/h (2 Bft) NO 44 2 min 0,000 mm 1,8 UV-I 438 W/m 18,0 C 19,7 C 19,3 km/h (3 Bft) 97,78 %
23.06.2016 08:34 21,4 C 80 % 1021,5 hPa 0,0 l/m 13,0 km/h (3 Bft) N-NO 28 2 min 0,000 mm 1,9 UV-I 444 W/m 17,8 C 19,4 C 17,7 km/h (3 Bft) 95,12 %
23.06.2016 08:36 21,6 C 80 % 1021,6 hPa 0,0 l/m 15,5 km/h (3 Bft) NO 51 2 min 0,000 mm 1,9 UV-I 450 W/m 18,0 C 19,1 C 19,3 km/h (3 Bft) 98,11 %
23.06.2016 08:38 21,6 C 81 % 1021,6 hPa 0,0 l/m 13,3 km/h (3 Bft) O-NO 63 2 min 0,000 mm 2,0 UV-I 454 W/m 18,2 C 19,6 C 22,5 km/h (4 Bft) 97,87 %
23.06.2016 08:40 21,7 C 79 % 1021,6 hPa 0,0 l/m 12,5 km/h (3 Bft) NO 52 2 min 0,000 mm 2,0 UV-I 458 W/m 17,9 C 19,9 C 17,7 km/h (3 Bft) 98,00 %
23.06.2016 08:42 21,7 C 79 % 1021,6 hPa 0,0 l/m 12,6 km/h (3 Bft) N-NO 26 2 min 0,000 mm 2,0 UV-I 464 W/m 17,9 C 19,8 C 17,7 km/h (3 Bft) 100,00 %
23.06.2016 08:44 21,8 C 78 % 1021,6 hPa 0,0 l/m 16,5 km/h (3 Bft) O-NO 63 2 min 0,000 mm 2,1 UV-I 470 W/m 17,8 C 19,1 C 25,7 km/h (4 Bft) 98,11 %
23.06.2016 08:46 21,9 C 77 % 1021,6 hPa 0,0 l/m 17,8 km/h (3 Bft) NO 50 2 min 0,000 mm 2,1 UV-I 476 W/m 17,7 C 19,0 C 22,5 km/h (4 Bft) 100,00 %
23.06.2016 08:48 21,9 C 76 % 1021,5 hPa 0,0 l/m 17,0 km/h (3 Bft) O-NO 69 2 min 0,000 mm 2,2 UV-I 480 W/m 17,5 C 19,2 C 22,5 km/h (4 Bft) 100,00 %
23.06.2016 08:50 21,9 C 78 % 1021,6 hPa 0,0 l/m 12,6 km/h (3 Bft) NO 48 2 min 0,000 mm 2,2 UV-I 487 W/m 17,9 C 20,1 C 17,7 km/h (3 Bft) 100,00 %
23.06.2016 08:52 22,1 C 77 % 1021,6 hPa 0,0 l/m 13,2 km/h (3 Bft) NO 42 2 min 0,000 mm 2,3 UV-I 490 W/m 17,9 C 20,2 C 19,3 km/h (3 Bft) 97,73 %
23.06.2016 08:54 22,1 C 76 % 1021,5 hPa 0,0 l/m 18,0 km/h (3 Bft) NO 44 2 min 0,000 mm 2,3 UV-I 497 W/m 17,7 C 19,2 C 24,1 km/h (4 Bft) 100,00 %
23.06.2016 08:56 22,1 C 76 % 1021,5 hPa 0,0 l/m 14,5 km/h (3 Bft) NO 53 2 min 0,000 mm 2,4 UV-I 503 W/m 17,7 C 19,9 C 22,5 km/h (4 Bft) 100,00 %
23.06.2016 08:58 22,1 C 77 % 1021,5 hPa 0,0 l/m 11,8 km/h (2 Bft) NO 53 2 min 0,000 mm 2,4 UV-I 506 W/m 17,9 C 20,5 C 17,7 km/h (3 Bft) 100,00 %
23.06.2016 09:00 22,2 C 77 % 1021,5 hPa 0,0 l/m 12,6 km/h (3 Bft) NO 56 2 min 0,305 mm 2,5 UV-I 506 W/m 18,0 C 20,4 C 20,9 km/h (4 Bft) 100,00 %
23.06.2016 09:02 22,3 C 76 % 1021,4 hPa 0,0 l/m 10,2 km/h (2 Bft) O-NO 67 2 min 0,000 mm 2,5 UV-I 507 W/m 17,9 C 21,1 C 17,7 km/h (3 Bft) 100,00 %
23.06.2016 09:04 22,3 C 78 % 1021,4 hPa 0,0 l/m 15,3 km/h (3 Bft) NO 45 2 min 0,000 mm 2,6 UV-I 505 W/m 18,3 C 20,0 C 20,9 km/h (4 Bft) 100,00 %
23.06.2016 09:06 22,3 C 76 % 1021,5 hPa 0,0 l/m 11,1 km/h (2 Bft) O-NO 65 2 min 0,000 mm 2,6 UV-I 501 W/m 17,9 C 20,9 C 17,7 km/h (3 Bft) 100,00 %
23.06.2016 09:08 22,4 C 76 % 1021,4 hPa 0,0 l/m 9,3 km/h (2 Bft) NO 41 2 min 0,000 mm 2,7 UV-I 497 W/m 18,0 C 21,5 C 16,1 km/h (3 Bft) 95,45 %
23.06.2016 09:10 22,5 C 77 % 1021,4 hPa 0,0 l/m 13,2 km/h (3 Bft) NO 42 2 min 0,000 mm 2,7 UV-I 491 W/m 18,3 C 20,6 C 20,9 km/h (4 Bft) 100,00 %
23.06.2016 09:12 22,6 C 76 % 1021,4 hPa 0,0 l/m 10,9 km/h (2 Bft) O-NO 67 2 min 0,000 mm 2,8 UV-I 483 W/m 18,1 C 21,3 C 16,1 km/h (3 Bft) 97,62 %
23.06.2016 09:14 22,7 C 77 % 1021,4 hPa 0,0 l/m 11,9 km/h (2 Bft) N-NO 29 2 min 0,000 mm 2,8 UV-I 475 W/m 18,5 C 21,2 C 19,3 km/h (3 Bft) 96,00 %
23.06.2016 09:16 22,8 C 75 % 1021,4 hPa 0,0 l/m 15,2 km/h (3 Bft) N-NO 30 2 min 0,000 mm 2,9 UV-I 468 W/m 18,1 C 20,6 C 22,5 km/h (4 Bft) 100,00 %
23.06.2016 09:18 22,8 C 75 % 1021,4 hPa 0,0 l/m 15,2 km/h (3 Bft) N-NO 24 2 min 0,000 mm 2,9 UV-I 462 W/m 18,1 C 20,6 C 20,9 km/h (4 Bft) 100,00 %
23.06.2016 09:20 22,9 C 74 % 1021,4 hPa 0,0 l/m 15,6 km/h (3 Bft) NO 44 2 min 0,000 mm 3,0 UV-I 457 W/m 18,0 C 20,7 C 20,9 km/h (4 Bft) 100,00 %
23.06.2016 09:22 23,0 C 74 % 1021,4 hPa 0,0 l/m 11,8 km/h (2 Bft) O-NO 63 2 min 0,000 mm 3,0 UV-I 454 W/m 18,1 C 21,5 C 17,7 km/h (3 Bft) 100,00 %
23.06.2016 09:24 23,0 C 73 % 1021,4 hPa 0,0 l/m 16,4 km/h (3 Bft) NO 51 2 min 0,000 mm 3,1 UV-I 451 W/m 17,9 C 20,6 C 20,9 km/h (4 Bft) 95,74 %
23.06.2016 09:26 23,1 C 74 % 1021,3 hPa 0,0 l/m 14,9 km/h (3 Bft) NO 42 2 min 0,000 mm 3,1 UV-I 452 W/m 18,2 C 21,0 C 20,9 km/h (4 Bft) 97,87 %
23.06.2016 09:28 23,1 C 73 % 1021,3 hPa 0,0 l/m 14,8 km/h (3 Bft) O-NO 69 2 min 0,000 mm 3,2 UV-I 456 W/m 18,0 C 21,0 C 19,3 km/h (3 Bft) 100,00 %
23.06.2016 09:30 23,1 C 75 % 1021,3 hPa 0,0 l/m 14,5 km/h (3 Bft) NO 45 2 min 0,000 mm 3,2 UV-I 463 W/m 18,4 C 21,1 C 20,9 km/h (4 Bft) 100,00 %
23.06.2016 09:32 23,2 C 73 % 1021,3 hPa 0,0 l/m 13,2 km/h (3 Bft) NO 44 2 min 0,000 mm 3,3 UV-I 472 W/m 18,1 C 21,5 C 19,3 km/h (3 Bft) 100,00 %
23.06.2016 09:34 23,3 C 73 % 1021,3 hPa 0,0 l/m 17,0 km/h (3 Bft) O-NO 59 2 min 0,000 mm 3,4 UV-I 485 W/m 18,2 C 20,9 C 22,5 km/h (4 Bft) 100,00 %
23.06.2016 09:36 23,4 C 72 % 1021,2 hPa 0,0 l/m 15,3 km/h (3 Bft) NO 49 2 min 0,000 mm 3,4 UV-I 502 W/m 18,1 C 21,3 C 22,5 km/h (4 Bft) 100,00 %
23.06.2016 09:38 23,5 C 71 % 1021,2 hPa 0,0 l/m 13,7 km/h (3 Bft) O-NO 78 2 min 0,000 mm 3,5 UV-I 520 W/m 17,9 C 21,7 C 22,5 km/h (4 Bft) 100,00 %
23.06.2016 09:40 23,6 C 70 % 1021,2 hPa 0,0 l/m 16,7 km/h (3 Bft) NO 52 2 min 0,000 mm 3,5 UV-I 538 W/m 17,8 C 21,3 C 24,1 km/h (4 Bft) 97,73 %
23.06.2016 09:42 23,7 C 71 % 1021,1 hPa 0,0 l/m 13,0 km/h (3 Bft) O-NO 64 2 min 0,000 mm 3,6 UV-I 557 W/m 18,1 C 22,1 C 22,5 km/h (4 Bft) 100,00 %
23.06.2016 09:44 23,8 C 71 % 1021,1 hPa 0,0 l/m 9,6 km/h (2 Bft) O-NO 68 2 min 0,000 mm 3,7 UV-I 577 W/m 18,2 C 22,9 C 20,9 km/h (4 Bft) 100,00 %
23.06.2016 09:46 23,9 C 70 % 1021,2 hPa 0,0 l/m 17,0 km/h (3 Bft) NO 51 2 min 0,000 mm 3,7 UV-I 593 W/m 18,1 C 21,7 C 22,5 km/h (4 Bft) 100,00 %
23.06.2016 09:48 23,9 C 70 % 1021,1 hPa 0,0 l/m 19,2 km/h (3 Bft) O-NO 76 2 min 0,000 mm 3,8 UV-I 609 W/m 18,1 C 21,3 C 27,4 km/h (4 Bft) 98,00 %
23.06.2016 09:50 24,0 C 70 % 1021,1 hPa 0,0 l/m 17,4 km/h (3 Bft) NO 44 2 min 0,000 mm 3,8 UV-I 627 W/m 18,2 C 21,7 C 27,4 km/h (4 Bft) 100,00 %
23.06.2016 09:52 24,1 C 68 % 1021,1 hPa 0,0 l/m 20,8 km/h (4 Bft) O-NO 70 2 min 0,000 mm 3,9 UV-I 637 W/m 17,8 C 21,4 C 30,6 km/h (5 Bft) 100,00 %
23.06.2016 09:54 24,1 C 68 % 1021,1 hPa 0,0 l/m 19,8 km/h (3 Bft) NO 52 2 min 0,000 mm 4,0 UV-I 648 W/m 17,8 C 21,5 C 29,0 km/h (5 Bft) 100,00 %
23.06.2016 09:56 24,2 C 68 % 1021,1 hPa 0,0 l/m 20,7 km/h (4 Bft) O 88 2 min 0,000 mm 4,0 UV-I 653 W/m 17,9 C 21,5 C 27,4 km/h (4 Bft) 100,00 %
23.06.2016 09:58 24,3 C 67 % 1021,1 hPa 0,0 l/m 18,7 km/h (3 Bft) O-NO 64 2 min 0,000 mm 4,0 UV-I 657 W/m 17,8 C 21,9 C 25,7 km/h (4 Bft) 100,00 %
23.06.2016 10:00 24,4 C 66 % 1021,1 hPa 0,0 l/m 22,8 km/h (4 Bft) O-NO 61 2 min 0,381 mm 4,1 UV-I 662 W/m 17,6 C 21,6 C 32,2 km/h (5 Bft) 100,00 %
23.06.2016 10:02 24,4 C 65 % 1021,1 hPa 0,0 l/m 28,3 km/h (4 Bft) O-NO 65 2 min 0,000 mm 4,2 UV-I 667 W/m 17,4 C 21,0 C 38,6 km/h (5 Bft) 100,00 %
23.06.2016 10:04 24,4 C 65 % 1021,1 hPa 0,0 l/m 22,8 km/h (4 Bft) O-NO 68 2 min 0,000 mm 4,2 UV-I 670 W/m 17,4 C 21,6 C 32,2 km/h (5 Bft) 98,11 %
23.06.2016 10:06 24,4 C 66 % 1021,1 hPa 0,0 l/m 19,5 km/h (3 Bft) N-NO 30 2 min 0,000 mm 4,3 UV-I 673 W/m 17,6 C 22,0 C 27,4 km/h (4 Bft) 96,55 %
23.06.2016 10:08 24,4 C 66 % 1021,1 hPa 0,0 l/m 25,7 km/h (4 Bft) O-NO 68 2 min 0,000 mm 4,3 UV-I 679 W/m 17,6 C 21,3 C 37,0 km/h (5 Bft) 96,92 %
23.06.2016 10:10 24,5 C 65 % 1021,1 hPa 0,0 l/m 22,4 km/h (4 Bft) O-NO 78 2 min 0,000 mm 4,4 UV-I 683 W/m 17,5 C 21,7 C 32,2 km/h (5 Bft) 97,73 %
23.06.2016 10:12 24,6 C 64 % 1021,1 hPa 0,0 l/m 23,1 km/h (4 Bft) O-NO 67 2 min 0,000 mm 4,5 UV-I 688 W/m 17,3 C 21,8 C 33,8 km/h (5 Bft) 97,56 %
23.06.2016 10:14 24,6 C 65 % 1021,0 hPa 0,0 l/m 14,8 km/h (3 Bft) O-NO 59 2 min 0,000 mm 4,5 UV-I 692 W/m 17,6 C 22,9 C 20,9 km/h (4 Bft) 98,11 %
23.06.2016 10:16 24,7 C 65 % 1021,0 hPa 0,0 l/m 19,2 km/h (3 Bft) O-NO 67 2 min 0,000 mm 4,6 UV-I 697 W/m 17,7 C 22,4 C 27,4 km/h (4 Bft) 97,56 %
23.06.2016 10:18 24,8 C 65 % 1021,0 hPa 0,0 l/m 18,1 km/h (3 Bft) O-NO 68 2 min 0,000 mm 4,6 UV-I 698 W/m 17,8 C 22,6 C 30,6 km/h (5 Bft) 98,00 %
23.06.2016 10:20 24,9 C 63 % 1021,0 hPa 0,0 l/m 19,4 km/h (3 Bft) NO 44 2 min 0,000 mm 4,7 UV-I 706 W/m 17,4 C 22,6 C 32,2 km/h (5 Bft) 97,73 %
23.06.2016 10:22 25,0 C 65 % 1021,0 hPa 0,0 l/m 13,9 km/h (3 Bft) NO 53 2 min 0,000 mm 4,8 UV-I 709 W/m 17,9 C 23,5 C 20,9 km/h (4 Bft) 96,00 %
23.06.2016 10:24 25,1 C 63 % 1021,0 hPa 0,0 l/m 21,6 km/h (4 Bft) O-NO 60 2 min 0,000 mm 4,9 UV-I 714 W/m 17,5 C 22,6 C 33,8 km/h (5 Bft) 97,44 %
23.06.2016 10:26 25,2 C 62 % 1020,9 hPa 0,0 l/m 19,3 km/h (3 Bft) O-NO 67 2 min 0,000 mm 4,9 UV-I 718 W/m 17,4 C 23,0 C 29,0 km/h (5 Bft) 96,23 %
23.06.2016 10:28 25,2 C 63 % 1020,9 hPa 0,0 l/m 19,1 km/h (3 Bft) O-NO 67 2 min 0,000 mm 4,9 UV-I 722 W/m 17,6 C 23,0 C 29,0 km/h (5 Bft) 94,23 %
23.06.2016 10:30 25,2 C 63 % 1020,9 hPa 0,0 l/m 15,5 km/h (3 Bft) O-NO 76 2 min 0,000 mm 5,0 UV-I 726 W/m 17,6 C 23,5 C 22,5 km/h (4 Bft) 97,44 %
23.06.2016 10:32 25,3 C 64 % 1020,9 hPa 0,0 l/m 14,5 km/h (3 Bft) O-NO 67 2 min 0,000 mm 5,0 UV-I 721 W/m 18,0 C 23,7 C 25,7 km/h (4 Bft) 98,11 %
23.06.2016 10:34 25,4 C 64 % 1020,9 hPa 0,0 l/m 20,2 km/h (4 Bft) NO 43 2 min 0,000 mm 5,1 UV-I 731 W/m 18,1 C 23,2 C 29,0 km/h (5 Bft) 97,56 %
23.06.2016 10:36 25,3 C 64 % 1020,9 hPa 0,0 l/m 17,4 km/h (3 Bft) NO 56 2 min 0,000 mm 5,1 UV-I 734 W/m 18,0 C 23,4 C 27,4 km/h (4 Bft) 100,00 %
23.06.2016 10:38 25,3 C 64 % 1020,9 hPa 0,0 l/m 17,4 km/h (3 Bft) O-NO 71 2 min 0,000 mm 5,2 UV-I 739 W/m 18,0 C 23,4 C 24,1 km/h (4 Bft) 100,00 %
23.06.2016 10:40 25,4 C 64 % 1020,9 hPa 0,0 l/m 16,8 km/h (3 Bft) NO 49 2 min 0,000 mm 5,3 UV-I 742 W/m 18,1 C 23,6 C 22,5 km/h (4 Bft) 98,11 %
23.06.2016 10:42 25,5 C 64 % 1020,9 hPa 0,0 l/m 17,0 km/h (3 Bft) O 84 2 min 0,000 mm 5,3 UV-I 745 W/m 18,2 C 23,7 C 22,5 km/h (4 Bft) 100,00 %
23.06.2016 10:44 25,6 C 65 % 1020,9 hPa 0,0 l/m 14,1 km/h (3 Bft) O-NO 57 2 min 0,000 mm 5,4 UV-I 750 W/m 18,5 C 24,2 C 22,5 km/h (4 Bft) 100,00 %
23.06.2016 10:46 25,7 C 64 % 1020,9 hPa 0,0 l/m 17,6 km/h (3 Bft) O-NO 72 2 min 0,000 mm 5,5 UV-I 752 W/m 18,4 C 23,8 C 25,7 km/h (4 Bft) 100,00 %
23.06.2016 10:48 25,7 C 62 % 1020,9 hPa 0,0 l/m 15,2 km/h (3 Bft) O-NO 67 2 min 0,000 mm 5,5 UV-I 755 W/m 17,9 C 24,1 C 24,1 km/h (4 Bft) 97,37 %
23.06.2016 10:50 25,7 C 61 % 1020,9 hPa 0,0 l/m 20,6 km/h (4 Bft) NO 49 2 min 0,000 mm 5,5 UV-I 760 W/m 17,6 C 23,5 C 32,2 km/h (5 Bft) 100,00 %
23.06.2016 10:52 25,7 C 61 % 1020,9 hPa 0,0 l/m 20,9 km/h (4 Bft) O-NO 65 2 min 0,000 mm 5,6 UV-I 764 W/m 17,6 C 23,5 C 30,6 km/h (5 Bft) 100,00 %
23.06.2016 10:54 25,7 C 62 % 1020,9 hPa 0,0 l/m 20,7 km/h (4 Bft) O-NO 71 2 min 0,000 mm 5,6 UV-I 767 W/m 17,9 C 23,5 C 25,7 km/h (4 Bft) 100,00 %
23.06.2016 10:56 25,7 C 62 % 1020,9 hPa 0,0 l/m 19,9 km/h (4 Bft) NO 55 2 min 0,000 mm 5,7 UV-I 771 W/m 17,9 C 23,6 C 27,4 km/h (4 Bft) 100,00 %
23.06.2016 10:58 25,8 C 63 % 1020,9 hPa 0,0 l/m 17,2 km/h (3 Bft) O-NO 65 2 min 0,000 mm 5,8 UV-I 774 W/m 18,2 C 24,0 C 24,1 km/h (4 Bft) 100,00 %
23.06.2016 11:00 25,8 C 60 % 1020,9 hPa 0,0 l/m 21,8 km/h (4 Bft) O-NO 78 2 min 0,559 mm 5,8 UV-I 779 W/m 17,4 C 23,5 C 29,0 km/h (5 Bft) 100,00 %
23.06.2016 11:02 25,8 C 61 % 1020,9 hPa 0,0 l/m 19,0 km/h (3 Bft) NO 44 2 min 0,000 mm 5,9 UV-I 783 W/m 17,7 C 23,8 C 27,4 km/h (4 Bft) 97,87 %
23.06.2016 11:04 25,8 C 62 % 1020,9 hPa 0,0 l/m 17,0 km/h (3 Bft) O-NO 77 2 min 0,000 mm 6,0 UV-I 787 W/m 18,0 C 24,0 C 29,0 km/h (5 Bft) 100,00 %
23.06.2016 11:06 25,9 C 60 % 1020,9 hPa 0,0 l/m 21,0 km/h (4 Bft) NO 53 2 min 0,000 mm 6,0 UV-I 788 W/m 17,5 C 23,7 C 29,0 km/h (5 Bft) 100,00 %
23.06.2016 11:08 25,9 C 61 % 1020,8 hPa 0,0 l/m 17,8 km/h (3 Bft) O 92 2 min 0,000 mm 6,0 UV-I 791 W/m 17,8 C 24,1 C 24,1 km/h (4 Bft) 98,57 %
23.06.2016 11:10 26,0 C 62 % 1020,9 hPa 0,0 l/m 13,2 km/h (3 Bft) O-NO 65 2 min 0,000 mm 6,1 UV-I 794 W/m 18,1 C 24,8 C 22,5 km/h (4 Bft) 100,00 %
23.06.2016 11:12 26,1 C 63 % 1020,9 hPa 0,0 l/m 19,9 km/h (4 Bft) NO 42 2 min 0,000 mm 6,1 UV-I 796 W/m 18,5 C 24,1 C 29,0 km/h (5 Bft) 100,00 %
23.06.2016 11:14 26,1 C 60 % 1020,9 hPa 0,0 l/m 19,8 km/h (3 Bft) NO 45 2 min 0,000 mm 6,2 UV-I 801 W/m 17,7 C 24,1 C 27,4 km/h (4 Bft) 100,00 %
23.06.2016 11:16 26,1 C 60 % 1020,8 hPa 0,0 l/m 20,7 km/h (4 Bft) O-NO 62 2 min 0,000 mm 6,3 UV-I 805 W/m 17,7 C 24,0 C 27,4 km/h (4 Bft) 100,00 %
23.06.2016 11:18 26,2 C 61 % 1020,9 hPa 0,0 l/m 14,6 km/h (3 Bft) O-NO 58 2 min 0,000 mm 6,3 UV-I 807 W/m 18,1 C 24,8 C 20,9 km/h (4 Bft) 100,00 %
23.06.2016 11:20 26,2 C 60 % 1020,8 hPa 0,0 l/m 17,5 km/h (3 Bft) O-NO 57 2 min 0,000 mm 6,3 UV-I 809 W/m 17,8 C 24,5 C 25,7 km/h (4 Bft) 100,00 %
23.06.2016 11:22 26,3 C 61 % 1020,8 hPa 0,0 l/m 17,2 km/h (3 Bft) O-NO 60 2 min 0,000 mm 6,4 UV-I 812 W/m 18,2 C 24,6 C 25,7 km/h (4 Bft) 100,00 %
23.06.2016 11:24 26,4 C 59 % 1020,8 hPa 0,0 l/m 20,8 km/h (4 Bft) NO 51 2 min 0,000 mm 6,5 UV-I 815 W/m 17,7 C 24,4 C 29,0 km/h (5 Bft) 100,00 %
23.06.2016 11:26 26,4 C 57 % 1020,8 hPa 0,0 l/m 19,2 km/h (3 Bft) O-NO 59 2 min 0,000 mm 6,5 UV-I 817 W/m 17,2 C 24,5 C 27,4 km/h (4 Bft) 100,00 %
23.06.2016 11:28 26,4 C 58 % 1020,7 hPa 0,0 l/m 18,7 km/h (3 Bft) O-NO 61 2 min 0,000 mm 6,5 UV-I 819 W/m 17,5 C 24,6 C 32,2 km/h (5 Bft) 100,00 %
23.06.2016 11:30 26,3 C 58 % 1020,8 hPa 0,0 l/m 24,1 km/h (4 Bft) O-NO 63 2 min 0,000 mm 6,6 UV-I 824 W/m 17,4 C 24,0 C 35,4 km/h (5 Bft) 100,00 %
23.06.2016 11:32 26,3 C 60 % 1020,7 hPa 0,0 l/m 23,2 km/h (4 Bft) O-NO 63 2 min 0,000 mm 6,6 UV-I 827 W/m 17,9 C 24,1 C 30,6 km/h (5 Bft) 100,00 %
23.06.2016 11:34 26,3 C 58 % 1020,8 hPa 0,0 l/m 19,9 km/h (4 Bft) NO 42 2 min 0,000 mm 6,7 UV-I 829 W/m 17,4 C 24,4 C 29,0 km/h (5 Bft) 100,00 %
23.06.2016 11:36 26,4 C 59 % 1020,7 hPa 0,0 l/m 16,8 km/h (3 Bft) O-NO 62 2 min 0,000 mm 6,7 UV-I 829 W/m 17,7 C 24,8 C 27,4 km/h (4 Bft) 100,00 %
23.06.2016 11:38 26,5 C 59 % 1020,8 hPa 0,0 l/m 20,1 km/h (4 Bft) NO 38 2 min 0,000 mm 6,7 UV-I 832 W/m 17,8 C 24,6 C 29,0 km/h (5 Bft) 100,00 %
23.06.2016 11:40 26,5 C 60 % 1020,7 hPa 0,0 l/m 16,8 km/h (3 Bft) NO 48 2 min 0,000 mm 6,8 UV-I 834 W/m 18,1 C 24,9 C 25,7 km/h (4 Bft) 100,00 %
23.06.2016 11:42 26,6 C 62 % 1020,8 hPa 0,0 l/m 16,1 km/h (3 Bft) NO 40 2 min 0,000 mm 6,8 UV-I 836 W/m 18,7 C 25,1 C 27,4 km/h (4 Bft) 97,62 %
23.06.2016 11:44 26,6 C 62 % 1020,7 hPa 0,0 l/m 14,3 km/h (3 Bft) N-NO 25 2 min 0,000 mm 6,9 UV-I 836 W/m 18,7 C 25,3 C 20,9 km/h (4 Bft) 100,00 %
23.06.2016 11:46 26,7 C 60 % 1020,7 hPa 0,0 l/m 17,2 km/h (3 Bft) O 82 2 min 0,000 mm 6,9 UV-I 840 W/m 18,3 C 25,1 C 24,1 km/h (4 Bft) 100,00 %
23.06.2016 11:48 26,8 C 60 % 1020,7 hPa 0,0 l/m 15,4 km/h (3 Bft) NO 46 2 min 0,000 mm 7,0 UV-I 843 W/m 18,4 C 25,4 C 24,1 km/h (4 Bft) 100,00 %
23.06.2016 11:50 26,8 C 61 % 1020,7 hPa 0,0 l/m 16,5 km/h (3 Bft) O-NO 74 2 min 0,000 mm 7,0 UV-I 846 W/m 18,6 C 25,3 C 25,7 km/h (4 Bft) 98,00 %
23.06.2016 11:52 26,8 C 59 % 1020,7 hPa 0,0 l/m 14,1 km/h (3 Bft) NO 47 2 min 0,000 mm 7,1 UV-I 846 W/m 18,1 C 25,6 C 20,9 km/h (4 Bft) 100,00 %
23.06.2016 11:54 27,0 C 62 % 1020,6 hPa 0,0 l/m 14,6 km/h (3 Bft) NO 42 2 min 0,000 mm 7,1 UV-I 849 W/m 19,1 C 25,8 C 24,1 km/h (4 Bft) 100,00 %
23.06.2016 11:56 27,1 C 62 % 1020,6 hPa 0,0 l/m 16,4 km/h (3 Bft) O-NO 59 2 min 0,000 mm 7,2 UV-I 852 W/m 19,2 C 25,7 C 24,1 km/h (4 Bft) 100,00 %
23.06.2016 11:58 27,3 C 58 % 1020,6 hPa 0,0 l/m 10,8 km/h (2 Bft) O-NO 65 2 min 0,000 mm 7,2 UV-I 853 W/m 18,3 C 26,6 C 16,1 km/h (3 Bft) 100,00 %
23.06.2016 12:00 27,4 C 61 % 1020,6 hPa 0,0 l/m 16,6 km/h (3 Bft) NO 53 2 min 0,635 mm 7,2 UV-I 855 W/m 19,2 C 26,1 C 27,4 km/h (4 Bft) 98,00 %
23.06.2016 12:02 27,3 C 59 % 1020,6 hPa 0,0 l/m 16,9 km/h (3 Bft) O-NO 61 2 min 0,000 mm 7,3 UV-I 856 W/m 18,6 C 25,9 C 24,1 km/h (4 Bft) 97,50 %
23.06.2016 12:04 27,3 C 60 % 1020,6 hPa 0,0 l/m 14,8 km/h (3 Bft) NO 44 2 min 0,000 mm 7,3 UV-I 859 W/m 18,8 C 26,1 C 29,0 km/h (5 Bft) 97,37 %
23.06.2016 12:06 27,3 C 57 % 1020,6 hPa 0,0 l/m 22,7 km/h (4 Bft) NO 54 2 min 0,000 mm 7,3 UV-I 863 W/m 18,0 C 25,4 C 30,6 km/h (5 Bft) 98,21 %
23.06.2016 12:08 27,3 C 56 % 1020,5 hPa 0,0 l/m 20,3 km/h (4 Bft) O-NO 67 2 min 0,000 mm 7,4 UV-I 866 W/m 17,7 C 25,6 C 25,7 km/h (4 Bft) 98,00 %
23.06.2016 12:10 27,3 C 57 % 1020,5 hPa 0,0 l/m 18,6 km/h (3 Bft) O-NO 74 2 min 0,000 mm 7,4 UV-I 867 W/m 18,0 C 25,8 C 27,4 km/h (4 Bft) 97,56 %
23.06.2016 12:12 27,3 C 57 % 1020,5 hPa 0,0 l/m 20,0 km/h (4 Bft) NO 55 2 min 0,000 mm 7,4 UV-I 868 W/m 18,0 C 25,6 C 25,7 km/h (4 Bft) 92,45 %
23.06.2016 12:14 27,4 C 59 % 1020,5 hPa 0,0 l/m 16,9 km/h (3 Bft) NO 43 2 min 0,000 mm 7,4 UV-I 868 W/m 18,7 C 26,0 C 22,5 km/h (4 Bft) 97,87 %
23.06.2016 12:16 27,4 C 57 % 1020,5 hPa 0,0 l/m 15,0 km/h (3 Bft) O-NO 75 2 min 0,000 mm 7,5 UV-I 872 W/m 18,1 C 26,2 C 22,5 km/h (4 Bft) 97,56 %
23.06.2016 12:18 27,5 C 56 % 1020,5 hPa 0,0 l/m 17,8 km/h (3 Bft) O 79 2 min 0,000 mm 7,5 UV-I 873 W/m 17,9 C 26,1 C 24,1 km/h (4 Bft) 96,23 %
23.06.2016 12:20 27,5 C 56 % 1020,4 hPa 0,0 l/m 21,0 km/h (4 Bft) O-NO 65 2 min 0,000 mm 7,6 UV-I 875 W/m 17,9 C 25,8 C 27,4 km/h (4 Bft) 97,73 %
23.06.2016 12:22 27,6 C 56 % 1020,4 hPa 0,0 l/m 17,5 km/h (3 Bft) O 86 2 min 0,000 mm 7,6 UV-I 876 W/m 18,0 C 26,2 C 24,1 km/h (4 Bft) 97,62 %
23.06.2016 12:24 27,5 C 56 % 1020,4 hPa 0,0 l/m 14,2 km/h (3 Bft) NO 34 2 min 0,000 mm 7,6 UV-I 875 W/m 17,9 C 26,4 C 22,5 km/h (4 Bft) 97,56 %
23.06.2016 12:26 27,7 C 57 % 1020,5 hPa 0,0 l/m 17,1 km/h (3 Bft) NO 52 2 min 0,000 mm 7,6 UV-I 877 W/m 18,4 C 26,4 C 27,4 km/h (4 Bft) 98,21 %
23.06.2016 12:28 27,8 C 55 % 1020,5 hPa 0,0 l/m 20,1 km/h (4 Bft) O-NO 58 2 min 0,000 mm 7,6 UV-I 879 W/m 17,9 C 26,3 C 30,6 km/h (5 Bft) 94,29 %
23.06.2016 12:30 27,8 C 55 % 1020,5 hPa 0,0 l/m 19,3 km/h (3 Bft) NO 49 2 min 0,000 mm 7,6 UV-I 880 W/m 17,9 C 26,3 C 27,4 km/h (4 Bft) 94,64 %
23.06.2016 12:32 27,7 C 57 % 1020,4 hPa 0,0 l/m 16,0 km/h (3 Bft) NO 42 2 min 0,000 mm 7,6 UV-I 880 W/m 18,4 C 26,5 C 24,1 km/h (4 Bft) 97,73 %
23.06.2016 12:34 27,7 C 56 % 1020,4 hPa 0,0 l/m 16,9 km/h (3 Bft) NO 53 2 min 0,000 mm 7,7 UV-I 882 W/m 18,1 C 26,4 C 24,1 km/h (4 Bft) 100,00 %
23.06.2016 12:36 27,7 C 57 % 1020,4 hPa 0,0 l/m 17,1 km/h (3 Bft) O-NO 71 2 min 0,000 mm 7,7 UV-I 882 W/m 18,4 C 26,4 C 27,4 km/h (4 Bft) 97,37 %
23.06.2016 12:38 27,8 C 61 % 1020,4 hPa 0,0 l/m 13,1 km/h (3 Bft) O-NO 69 2 min 0,000 mm 7,7 UV-I 884 W/m 19,6 C 26,9 C 22,5 km/h (4 Bft) 100,00 %
23.06.2016 12:40 27,9 C 61 % 1020,4 hPa 0,0 l/m 15,8 km/h (3 Bft) NO 42 2 min 0,000 mm 7,7 UV-I 884 W/m 19,7 C 26,7 C 24,1 km/h (4 Bft) 100,00 %
23.06.2016 12:42 27,8 C 58 % 1020,4 hPa 0,0 l/m 17,3 km/h (3 Bft) O-NO 63 2 min 0,000 mm 7,8 UV-I 884 W/m 18,8 C 26,5 C 24,1 km/h (4 Bft) 100,00 %
23.06.2016 12:44 27,9 C 56 % 1020,4 hPa 0,0 l/m 17,3 km/h (3 Bft) NO 54 2 min 0,000 mm 7,7 UV-I 886 W/m 18,3 C 26,6 C 24,1 km/h (4 Bft) 100,00 %
23.06.2016 12:46 27,9 C 54 % 1020,4 hPa 0,0 l/m 17,6 km/h (3 Bft) O-NO 58 2 min 0,000 mm 7,7 UV-I 887 W/m 17,7 C 26,6 C 25,7 km/h (4 Bft) 98,00 %
23.06.2016 12:48 27,9 C 55 % 1020,4 hPa 0,0 l/m 20,7 km/h (4 Bft) NO 53 2 min 0,000 mm 7,8 UV-I 888 W/m 18,0 C 26,4 C 30,6 km/h (5 Bft) 97,87 %
23.06.2016 12:50 27,9 C 54 % 1020,4 hPa 0,0 l/m 18,4 km/h (3 Bft) O 96 2 min 0,000 mm 7,7 UV-I 887 W/m 17,7 C 26,5 C 25,7 km/h (4 Bft) 100,00 %
23.06.2016 12:52 27,9 C 55 % 1020,4 hPa 0,0 l/m 20,7 km/h (4 Bft) O-NO 67 2 min 0,000 mm 7,8 UV-I 890 W/m 18,0 C 26,4 C 25,7 km/h (4 Bft) 97,56 %
23.06.2016 12:54 27,9 C 53 % 1020,4 hPa 0,0 l/m 20,5 km/h (4 Bft) O-NO 60 2 min 0,000 mm 7,8 UV-I 889 W/m 17,4 C 26,4 C 27,4 km/h (4 Bft) 100,00 %
23.06.2016 12:56 27,9 C 52 % 1020,4 hPa 0,0 l/m 18,2 km/h (3 Bft) NO 46 2 min 0,000 mm 7,8 UV-I 889 W/m 17,1 C 26,5 C 24,1 km/h (4 Bft) 100,00 %
23.06.2016 12:58 28,0 C 57 % 1020,3 hPa 0,0 l/m 17,0 km/h (3 Bft) O-NO 61 2 min 0,000 mm 7,8 UV-I 889 W/m 18,7 C 26,8 C 25,7 km/h (4 Bft) 100,00 %
23.06.2016 13:00 28,1 C 57 % 1020,3 hPa 0,0 l/m 20,8 km/h (4 Bft) O-NO 64 2 min 0,000 mm 7,8 UV-I 889 W/m 18,8 C 26,6 C 25,7 km/h (4 Bft) 100,00 %
23.06.2016 13:02 28,1 C 54 % 1020,3 hPa 0,0 l/m 18,5 km/h (3 Bft) O-NO 58 2 min 0,686 mm 7,8 UV-I 891 W/m 17,9 C 26,8 C 25,7 km/h (4 Bft) 100,00 %
23.06.2016 13:04 28,1 C 54 % 1020,3 hPa 0,0 l/m 16,8 km/h (3 Bft) O-NO 76 2 min 0,000 mm 7,8 UV-I 890 W/m 17,9 C 26,9 C 24,1 km/h (4 Bft) 100,00 %
23.06.2016 13:06 28,1 C 53 % 1020,3 hPa 0,0 l/m 17,5 km/h (3 Bft) NO 53 2 min 0,000 mm 7,8 UV-I 890 W/m 17,6 C 26,9 C 24,1 km/h (4 Bft) 97,73 %
23.06.2016 13:08 28,1 C 55 % 1020,2 hPa 0,0 l/m 18,3 km/h (3 Bft) NO 54 2 min 0,000 mm 7,8 UV-I 889 W/m 18,2 C 26,8 C 25,7 km/h (4 Bft) 98,31 %
23.06.2016 13:10 28,2 C 54 % 1020,3 hPa 0,0 l/m 19,3 km/h (3 Bft) NO 55 2 min 0,000 mm 7,8 UV-I 891 W/m 18,0 C 26,8 C 29,0 km/h (5 Bft) 100,00 %
23.06.2016 13:12 28,2 C 54 % 1020,2 hPa 0,0 l/m 15,4 km/h (3 Bft) O-NO 71 2 min 0,000 mm 7,8 UV-I 891 W/m 18,0 C 27,1 C 24,1 km/h (4 Bft) 98,00 %
23.06.2016 13:14 28,2 C 54 % 1020,1 hPa 0,0 l/m 15,9 km/h (3 Bft) O-NO 61 2 min 0,000 mm 7,8 UV-I 888 W/m 18,0 C 27,1 C 20,9 km/h (4 Bft) 100,00 %
23.06.2016 13:16 28,5 C 55 % 1020,1 hPa 0,0 l/m 17,0 km/h (3 Bft) O-NO 65 2 min 0,000 mm 7,8 UV-I 888 W/m 18,6 C 27,4 C 25,7 km/h (4 Bft) 100,00 %
23.06.2016 13:18 28,6 C 52 % 1020,1 hPa 0,0 l/m 15,6 km/h (3 Bft) O-NO 70 2 min 0,000 mm 7,8 UV-I 889 W/m 17,8 C 27,6 C 24,1 km/h (4 Bft) 100,00 %
23.06.2016 13:20 28,6 C 54 % 1020,1 hPa 0,0 l/m 13,5 km/h (3 Bft) NO 55 2 min 0,000 mm 7,8 UV-I 889 W/m 18,4 C 27,8 C 19,3 km/h (3 Bft) 100,00 %
23.06.2016 13:22 28,6 C 53 % 1020,1 hPa 0,0 l/m 17,3 km/h (3 Bft) O 80 2 min 0,000 mm 7,8 UV-I 888 W/m 18,1 C 27,5 C 25,7 km/h (4 Bft) 100,00 %
23.06.2016 13:24 28,6 C 53 % 1020,1 hPa 0,0 l/m 18,7 km/h (3 Bft) O-NO 67 2 min 0,000 mm 7,8 UV-I 888 W/m 18,1 C 27,4 C 24,1 km/h (4 Bft) 97,73 %
23.06.2016 13:26 28,6 C 52 % 1020,1 hPa 0,0 l/m 21,5 km/h (4 Bft) O-NO 68 2 min 0,000 mm 7,8 UV-I 888 W/m 17,8 C 27,2 C 29,0 km/h (5 Bft) 100,00 %
23.06.2016 13:28 28,6 C 53 % 1020,0 hPa 0,0 l/m 19,4 km/h (3 Bft) NO 53 2 min 0,000 mm 7,7 UV-I 889 W/m 18,1 C 27,4 C 24,1 km/h (4 Bft) 100,00 %
23.06.2016 13:30 28,7 C 53 % 1020,0 hPa 0,0 l/m 13,2 km/h (3 Bft) NO 40 2 min 0,000 mm 7,8 UV-I 888 W/m 18,2 C 27,9 C 19,3 km/h (3 Bft) 100,00 %
23.06.2016 13:32 28,7 C 52 % 1020,0 hPa 0,0 l/m 15,9 km/h (3 Bft) NO 44 2 min 0,000 mm 7,7 UV-I 887 W/m 17,8 C 27,7 C 20,9 km/h (4 Bft) 97,62 %
23.06.2016 13:34 28,7 C 56 % 1020,0 hPa 0,0 l/m 11,3 km/h (2 Bft) N-NO 32 2 min 0,000 mm 7,7 UV-I 884 W/m 19,0 C 28,1 C 17,7 km/h (3 Bft) 100,00 %
23.06.2016 13:36 28,6 C 56 % 1019,9 hPa 0,0 l/m 17,8 km/h (3 Bft) NO 48 2 min 0,000 mm 7,6 UV-I 881 W/m 18,9 C 27,5 C 27,4 km/h (4 Bft) 100,00 %
23.06.2016 13:38 28,6 C 57 % 1019,9 hPa 0,0 l/m 14,6 km/h (3 Bft) N-NO 29 2 min 0,000 mm 7,6 UV-I 879 W/m 19,2 C 27,7 C 24,1 km/h (4 Bft) 98,08 %
23.06.2016 13:40 28,6 C 55 % 1019,9 hPa 0,0 l/m 21,4 km/h (4 Bft) NO 51 2 min 0,000 mm 7,6 UV-I 881 W/m 18,7 C 27,2 C 27,4 km/h (4 Bft) 98,11 %
23.06.2016 13:42 28,7 C 57 % 1019,9 hPa 0,0 l/m 14,5 km/h (3 Bft) NO 40 2 min 0,000 mm 7,6 UV-I 879 W/m 19,3 C 27,8 C 22,5 km/h (4 Bft) 100,00 %
23.06.2016 13:44 28,6 C 57 % 1019,8 hPa 0,0 l/m 9,8 km/h (2 Bft) N-NO 26 2 min 0,000 mm 7,6 UV-I 879 W/m 19,2 C 28,2 C 20,9 km/h (4 Bft) 100,00 %
23.06.2016 13:46 28,8 C 54 % 1019,8 hPa 0,0 l/m 16,0 km/h (3 Bft) O-NO 61 2 min 0,000 mm 7,6 UV-I 879 W/m 18,5 C 27,8 C 32,2 km/h (5 Bft) 100,00 %
23.06.2016 13:48 28,8 C 53 % 1019,8 hPa 0,0 l/m 20,1 km/h (4 Bft) NO 44 2 min 0,000 mm 7,6 UV-I 877 W/m 18,2 C 27,6 C 27,4 km/h (4 Bft) 98,00 %
23.06.2016 13:50 28,8 C 54 % 1019,8 hPa 0,0 l/m 15,3 km/h (3 Bft) NO 49 2 min 0,000 mm 7,6 UV-I 878 W/m 18,5 C 27,9 C 29,0 km/h (5 Bft) 100,00 %
23.06.2016 13:52 28,9 C 53 % 1019,7 hPa 0,0 l/m 17,6 km/h (3 Bft) NO 34 2 min 0,000 mm 7,6 UV-I 878 W/m 18,3 C 27,9 C 27,4 km/h (4 Bft) 100,00 %
23.06.2016 13:54 28,9 C 52 % 1019,7 hPa 0,0 l/m 17,1 km/h (3 Bft) NO 36 2 min 0,000 mm 7,5 UV-I 876 W/m 18,0 C 27,9 C 24,1 km/h (4 Bft) 100,00 %
23.06.2016 13:56 28,9 C 51 % 1019,7 hPa 0,0 l/m 17,1 km/h (3 Bft) O-NO 58 2 min 0,000 mm 7,5 UV-I 876 W/m 17,7 C 27,9 C 25,7 km/h (4 Bft) 100,00 %
23.06.2016 13:58 29,1 C 52 % 1019,7 hPa 0,0 l/m 15,5 km/h (3 Bft) O-NO 70 2 min 0,000 mm 7,5 UV-I 876 W/m 18,2 C 28,2 C 22,5 km/h (4 Bft) 98,00 %
23.06.2016 14:00 29,0 C 50 % 1019,8 hPa 0,0 l/m 10,5 km/h (2 Bft) NO 48 2 min 0,711 mm 7,5 UV-I 874 W/m 17,5 C 28,5 C 16,1 km/h (3 Bft) 96,00 %
23.06.2016 14:02 29,1 C 51 % 1019,7 hPa 0,0 l/m 14,7 km/h (3 Bft) NO 45 2 min 0,000 mm 7,4 UV-I 871 W/m 17,9 C 28,3 C 25,7 km/h (4 Bft) 97,14 %
23.06.2016 14:04 29,2 C 52 % 1019,7 hPa 0,0 l/m 17,3 km/h (3 Bft) O-NO 63 2 min 0,000 mm 7,4 UV-I 868 W/m 18,3 C 28,2 C 25,7 km/h (4 Bft) 98,11 %
23.06.2016 14:06 29,1 C 49 % 1019,7 hPa 0,0 l/m 18,8 km/h (3 Bft) O-NO 62 2 min 0,000 mm 7,4 UV-I 872 W/m 17,3 C 28,0 C 27,4 km/h (4 Bft) 95,12 %
23.06.2016 14:08 29,1 C 50 % 1019,7 hPa 0,0 l/m 22,1 km/h (4 Bft) NO 44 2 min 0,000 mm 7,4 UV-I 870 W/m 17,6 C 27,9 C 30,6 km/h (5 Bft) 98,31 %
23.06.2016 14:10 29,1 C 51 % 1019,7 hPa 0,0 l/m 17,7 km/h (3 Bft) NO 53 2 min 0,000 mm 7,3 UV-I 868 W/m 17,9 C 28,1 C 22,5 km/h (4 Bft) 97,56 %
23.06.2016 14:12 29,1 C 50 % 1019,7 hPa 0,0 l/m 17,1 km/h (3 Bft) O 79 2 min 0,000 mm 7,3 UV-I 867 W/m 17,6 C 28,1 C 25,7 km/h (4 Bft) 96,00 %
23.06.2016 14:14 29,1 C 49 % 1019,7 hPa 0,0 l/m 21,1 km/h (4 Bft) NO 54 2 min 0,000 mm 7,3 UV-I 865 W/m 17,3 C 27,9 C 30,6 km/h (5 Bft) 97,87 %
23.06.2016 14:16 29,1 C 50 % 1019,7 hPa 0,0 l/m 18,6 km/h (3 Bft) O-NO 64 2 min 0,000 mm 7,2 UV-I 861 W/m 17,6 C 28,0 C 27,4 km/h (4 Bft) 97,73 %
23.06.2016 14:18 29,1 C 51 % 1019,7 hPa 0,0 l/m 17,9 km/h (3 Bft) NO 34 2 min 0,000 mm 7,2 UV-I 858 W/m 17,9 C 28,1 C 22,5 km/h (4 Bft) 96,23 %
23.06.2016 14:20 29,2 C 53 % 1019,7 hPa 0,0 l/m 13,5 km/h (3 Bft) NO 46 2 min 0,000 mm 7,2 UV-I 857 W/m 18,6 C 28,5 C 19,3 km/h (3 Bft) 95,24 %
23.06.2016 14:22 29,3 C 50 % 1019,6 hPa 0,0 l/m 19,2 km/h (3 Bft) O-NO 71 2 min 0,000 mm 7,1 UV-I 854 W/m 17,8 C 28,3 C 25,7 km/h (4 Bft) 98,00 %
23.06.2016 14:24 29,4 C 50 % 1019,6 hPa 0,0 l/m 16,9 km/h (3 Bft) NO 54 2 min 0,000 mm 7,1 UV-I 854 W/m 17,9 C 28,5 C 25,7 km/h (4 Bft) 97,56 %
23.06.2016 14:26 29,5 C 50 % 1019,6 hPa 0,0 l/m 12,1 km/h (2 Bft) O 80 2 min 0,000 mm 7,1 UV-I 853 W/m 18,0 C 29,0 C 19,3 km/h (3 Bft) 97,87 %
23.06.2016 14:28 29,4 C 48 % 1019,6 hPa 0,0 l/m 20,1 km/h (4 Bft) NO 52 2 min 0,000 mm 7,0 UV-I 851 W/m 17,2 C 28,3 C 29,0 km/h (5 Bft) 96,23 %
23.06.2016 14:30 29,4 C 48 % 1019,6 hPa 0,0 l/m 18,5 km/h (3 Bft) O-NO 61 2 min 0,000 mm 7,0 UV-I 848 W/m 17,2 C 28,4 C 24,1 km/h (4 Bft) 95,12 %
23.06.2016 14:32 29,3 C 48 % 1019,6 hPa 0,0 l/m 17,2 km/h (3 Bft) O-NO 68 2 min 0,000 mm 6,9 UV-I 847 W/m 17,1 C 28,4 C 25,7 km/h (4 Bft) 98,00 %
23.06.2016 14:34 29,3 C 49 % 1019,6 hPa 0,0 l/m 14,1 km/h (3 Bft) O-NO 67 2 min 0,000 mm 6,9 UV-I 845 W/m 17,5 C 28,6 C 22,5 km/h (4 Bft) 100,00 %
23.06.2016 14:36 29,4 C 49 % 1019,6 hPa 0,0 l/m 12,7 km/h (3 Bft) O-NO 74 2 min 0,000 mm 6,8 UV-I 841 W/m 17,5 C 28,8 C 22,5 km/h (4 Bft) 100,00 %
23.06.2016 14:38 29,4 C 50 % 1019,5 hPa 0,0 l/m 17,4 km/h (3 Bft) O-NO 74 2 min 0,000 mm 6,8 UV-I 839 W/m 17,9 C 28,5 C 24,1 km/h (4 Bft) 100,00 %
23.06.2016 14:40 29,4 C 52 % 1019,5 hPa 0,0 l/m 18,8 km/h (3 Bft) O 82 2 min 0,000 mm 6,7 UV-I 838 W/m 18,5 C 28,4 C 24,1 km/h (4 Bft) 100,00 %
23.06.2016 14:42 29,4 C 50 % 1019,4 hPa 0,0 l/m 16,8 km/h (3 Bft) O-NO 72 2 min 0,000 mm 6,7 UV-I 835 W/m 17,9 C 28,5 C 30,6 km/h (5 Bft) 98,21 %
23.06.2016 14:44 29,4 C 48 % 1019,4 hPa 0,0 l/m 22,0 km/h (4 Bft) O-NO 71 2 min 0,000 mm 6,7 UV-I 832 W/m 17,2 C 28,3 C 29,0 km/h (5 Bft) 97,87 %
23.06.2016 14:46 29,4 C 48 % 1019,4 hPa 0,0 l/m 21,8 km/h (4 Bft) O-NO 64 2 min 0,000 mm 6,6 UV-I 831 W/m 17,2 C 28,3 C 29,0 km/h (5 Bft) 100,00 %
23.06.2016 14:48 29,4 C 49 % 1019,4 hPa 0,0 l/m 18,2 km/h (3 Bft) NO 45 2 min 0,000 mm 6,6 UV-I 829 W/m 17,5 C 28,4 C 25,7 km/h (4 Bft) 100,00 %
23.06.2016 14:50 29,6 C 49 % 1019,4 hPa 0,0 l/m 18,3 km/h (3 Bft) O-NO 59 2 min 0,000 mm 6,5 UV-I 825 W/m 17,7 C 28,7 C 25,7 km/h (4 Bft) 98,11 %
23.06.2016 14:52 29,6 C 49 % 1019,4 hPa 0,0 l/m 17,4 km/h (3 Bft) O 80 2 min 0,000 mm 6,5 UV-I 823 W/m 17,7 C 28,7 C 22,5 km/h (4 Bft) 100,00 %
23.06.2016 14:54 29,6 C 50 % 1019,3 hPa 0,0 l/m 16,5 km/h (3 Bft) O-NO 71 2 min 0,000 mm 6,4 UV-I 821 W/m 18,1 C 28,8 C 24,1 km/h (4 Bft) 100,00 %
23.06.2016 14:56 29,6 C 49 % 1019,3 hPa 0,0 l/m 19,8 km/h (3 Bft) O 92 2 min 0,000 mm 6,4 UV-I 817 W/m 17,7 C 28,6 C 30,6 km/h (5 Bft) 100,00 %
23.06.2016 14:58 29,6 C 46 % 1019,3 hPa 0,0 l/m 20,3 km/h (4 Bft) O-NO 74 2 min 0,000 mm 6,3 UV-I 817 W/m 16,7 C 28,6 C 25,7 km/h (4 Bft) 98,00 %
23.06.2016 15:00 29,6 C 48 % 1019,3 hPa 0,0 l/m 15,9 km/h (3 Bft) NO 44 2 min 0,711 mm 6,3 UV-I 815 W/m 17,4 C 28,8 C 22,5 km/h (4 Bft) 97,87 %
23.06.2016 15:02 29,6 C 48 % 1019,3 hPa 0,0 l/m 15,0 km/h (3 Bft) O-NO 72 2 min 0,000 mm 6,2 UV-I 811 W/m 17,4 C 28,9 C 24,1 km/h (4 Bft) 100,00 %
23.06.2016 15:04 29,6 C 48 % 1019,3 hPa 0,0 l/m 19,9 km/h (4 Bft) O 89 2 min 0,000 mm 6,2 UV-I 809 W/m 17,4 C 28,6 C 27,4 km/h (4 Bft) 100,00 %
23.06.2016 15:06 29,6 C 49 % 1019,2 hPa 0,0 l/m 13,6 km/h (3 Bft) O 82 2 min 0,000 mm 6,1 UV-I 805 W/m 17,7 C 29,0 C 22,5 km/h (4 Bft) 100,00 %
23.06.2016 15:08 29,7 C 48 % 1019,2 hPa 0,0 l/m 15,7 km/h (3 Bft) N-NO 30 2 min 0,000 mm 6,1 UV-I 801 W/m 17,5 C 29,0 C 29,0 km/h (5 Bft) 100,00 %
23.06.2016 15:10 29,7 C 46 % 1019,2 hPa 0,0 l/m 20,7 km/h (4 Bft) O-NO 65 2 min 0,000 mm 6,0 UV-I 798 W/m 16,8 C 28,7 C 27,4 km/h (4 Bft) 97,87 %
23.06.2016 15:12 29,7 C 47 % 1019,2 hPa 0,0 l/m 20,7 km/h (4 Bft) O-NO 65 2 min 0,000 mm 6,0 UV-I 798 W/m 17,2 C 28,7 C 27,4 km/h (4 Bft) 97,87 %
23.06.2016 15:14 29,7 C 47 % 1019,2 hPa 0,0 l/m 17,8 km/h (3 Bft) O-NO 59 2 min 0,000 mm 5,9 UV-I 793 W/m 17,2 C 28,8 C 27,4 km/h (4 Bft) 100,00 %
23.06.2016 15:16 29,8 C 48 % 1019,1 hPa 0,0 l/m 16,5 km/h (3 Bft) O-NO 76 2 min 0,000 mm 5,9 UV-I 792 W/m 17,6 C 29,0 C 25,7 km/h (4 Bft) 100,00 %
23.06.2016 15:18 29,8 C 49 % 1019,1 hPa 0,0 l/m 20,1 km/h (4 Bft) O-NO 76 2 min 0,000 mm 5,8 UV-I 786 W/m 17,9 C 28,9 C 27,4 km/h (4 Bft) 97,37 %
23.06.2016 15:20 29,8 C 48 % 1019,1 hPa 0,0 l/m 18,9 km/h (3 Bft) O 80 2 min 0,000 mm 5,7 UV-I 780 W/m 17,6 C 28,9 C 25,7 km/h (4 Bft) 100,00 %
23.06.2016 15:22 29,8 C 48 % 1019,1 hPa 0,0 l/m 16,4 km/h (3 Bft) O-NO 57 2 min 0,000 mm 5,7 UV-I 779 W/m 17,6 C 29,0 C 24,1 km/h (4 Bft) 97,78 %
23.06.2016 15:24 29,8 C 48 % 1019,0 hPa 0,0 l/m 16,5 km/h (3 Bft) O-NO 63 2 min 0,000 mm 5,6 UV-I 776 W/m 17,6 C 29,0 C 24,1 km/h (4 Bft) 98,00 %
23.06.2016 15:26 29,8 C 49 % 1019,0 hPa 0,0 l/m 15,5 km/h (3 Bft) O-NO 59 2 min 0,000 mm 5,6 UV-I 770 W/m 17,9 C 29,1 C 27,4 km/h (4 Bft) 100,00 %
23.06.2016 15:28 29,9 C 47 % 1019,1 hPa 0,0 l/m 15,2 km/h (3 Bft) NO 55 2 min 0,000 mm 5,5 UV-I 765 W/m 17,3 C 29,2 C 22,5 km/h (4 Bft) 100,00 %
23.06.2016 15:30 29,9 C 50 % 1019,1 hPa 0,0 l/m 16,3 km/h (3 Bft) NO 52 2 min 0,000 mm 5,4 UV-I 761 W/m 18,3 C 29,2 C 24,1 km/h (4 Bft) 97,73 %
23.06.2016 15:32 29,9 C 47 % 1019,0 hPa 0,0 l/m 22,3 km/h (4 Bft) N-NO 33 2 min 0,000 mm 5,4 UV-I 759 W/m 17,3 C 28,9 C 29,0 km/h (5 Bft) 100,00 %
23.06.2016 15:34 29,8 C 45 % 1019,1 hPa 0,0 l/m 20,5 km/h (4 Bft) O-NO 59 2 min 0,000 mm 5,3 UV-I 757 W/m 16,6 C 28,8 C 25,7 km/h (4 Bft) 98,18 %
23.06.2016 15:36 29,7 C 46 % 1019,0 hPa 0,0 l/m 17,2 km/h (3 Bft) NO 43 2 min 0,000 mm 5,3 UV-I 756 W/m 16,8 C 28,9 C 22,5 km/h (4 Bft) 100,00 %
23.06.2016 15:38 29,7 C 47 % 1019,0 hPa 0,0 l/m 20,8 km/h (4 Bft) NO 55 2 min 0,000 mm 5,2 UV-I 753 W/m 17,2 C 28,7 C 27,4 km/h (4 Bft) 100,00 %
23.06.2016 15:40 29,7 C 50 % 1019,0 hPa 0,0 l/m 18,9 km/h (3 Bft) NO 52 2 min 0,000 mm 5,1 UV-I 746 W/m 18,1 C 28,8 C 27,4 km/h (4 Bft) 100,00 %
23.06.2016 15:42 29,7 C 49 % 1018,9 hPa 0,0 l/m 12,1 km/h (2 Bft) NO 50 2 min 0,000 mm 5,1 UV-I 743 W/m 17,8 C 29,2 C 19,3 km/h (3 Bft) 100,00 %
23.06.2016 15:44 29,8 C 48 % 1018,9 hPa 0,0 l/m 14,6 km/h (3 Bft) O-NO 74 2 min 0,000 mm 5,0 UV-I 742 W/m 17,6 C 29,1 C 20,9 km/h (4 Bft) 100,00 %
23.06.2016 15:46 29,9 C 46 % 1018,9 hPa 0,0 l/m 17,2 km/h (3 Bft) NO 50 2 min 0,000 mm 5,0 UV-I 738 W/m 17,0 C 29,1 C 24,1 km/h (4 Bft) 100,00 %
23.06.2016 15:48 29,9 C 48 % 1018,9 hPa 0,0 l/m 16,1 km/h (3 Bft) O-NO 65 2 min 0,000 mm 4,9 UV-I 734 W/m 17,7 C 29,2 C 24,1 km/h (4 Bft) 100,00 %
23.06.2016 15:50 30,1 C 48 % 1018,9 hPa 0,0 l/m 13,3 km/h (3 Bft) N-NO 12 2 min 0,000 mm 4,9 UV-I 727 W/m 17,9 C 29,6 C 20,9 km/h (4 Bft) 100,00 %
23.06.2016 15:52 30,1 C 46 % 1018,9 hPa 0,0 l/m 16,9 km/h (3 Bft) NO 54 2 min 0,000 mm 4,8 UV-I 725 W/m 17,2 C 29,4 C 24,1 km/h (4 Bft) 92,68 %
23.06.2016 15:54 30,1 C 46 % 1018,9 hPa 0,0 l/m 18,9 km/h (3 Bft) NO 40 2 min 0,000 mm 4,8 UV-I 721 W/m 17,2 C 29,3 C 30,6 km/h (5 Bft) 98,11 %
23.06.2016 15:56 29,9 C 47 % 1018,8 hPa 0,0 l/m 17,9 km/h (3 Bft) N 9 2 min 0,000 mm 4,7 UV-I 716 W/m 17,3 C 29,1 C 24,1 km/h (4 Bft) 100,00 %
23.06.2016 15:58 29,9 C 47 % 1018,8 hPa 0,0 l/m 12,9 km/h (3 Bft) O-NO 57 2 min 0,000 mm 4,6 UV-I 711 W/m 17,3 C 29,4 C 20,9 km/h (4 Bft) 94,00 %
23.06.2016 16:00 29,9 C 49 % 1018,8 hPa 0,0 l/m 16,6 km/h (3 Bft) NO 53 2 min 0,660 mm 4,6 UV-I 705 W/m 18,0 C 29,2 C 24,1 km/h (4 Bft) 98,00 %
23.06.2016 16:02 29,8 C 47 % 1018,8 hPa 0,0 l/m 18,7 km/h (3 Bft) NO 42 2 min 0,000 mm 4,5 UV-I 700 W/m 17,2 C 28,9 C 30,6 km/h (5 Bft) 97,56 %
23.06.2016 16:04 29,8 C 47 % 1018,8 hPa 0,0 l/m 16,2 km/h (3 Bft) NO 46 2 min 0,000 mm 4,4 UV-I 697 W/m 17,2 C 29,1 C 22,5 km/h (4 Bft) 96,23 %
23.06.2016 16:06 29,8 C 47 % 1018,8 hPa 0,0 l/m 14,7 km/h (3 Bft) NO 46 2 min 0,000 mm 4,4 UV-I 694 W/m 17,2 C 29,1 C 20,9 km/h (4 Bft) 97,37 %
23.06.2016 16:08 29,8 C 46 % 1018,7 hPa 0,0 l/m 12,6 km/h (3 Bft) NO 44 2 min 0,000 mm 4,3 UV-I 689 W/m 16,9 C 29,3 C 20,9 km/h (4 Bft) 98,00 %
23.06.2016 16:10 29,8 C 48 % 1018,7 hPa 0,0 l/m 16,5 km/h (3 Bft) O-NO 65 2 min 0,000 mm 4,2 UV-I 684 W/m 17,6 C 29,0 C 22,5 km/h (4 Bft) 98,00 %
23.06.2016 16:12 29,8 C 48 % 1018,6 hPa 0,0 l/m 16,3 km/h (3 Bft) O 80 2 min 0,000 mm 4,2 UV-I 678 W/m 17,6 C 29,0 C 25,7 km/h (4 Bft) 97,87 %
23.06.2016 16:14 29,8 C 46 % 1018,7 hPa 0,0 l/m 17,5 km/h (3 Bft) O-NO 59 2 min 0,000 mm 4,1 UV-I 674 W/m 16,9 C 29,0 C 22,5 km/h (4 Bft) 97,44 %
23.06.2016 16:16 29,8 C 45 % 1018,7 hPa 0,0 l/m 18,0 km/h (3 Bft) O-NO 58 2 min 0,000 mm 4,1 UV-I 671 W/m 16,6 C 29,0 C 27,4 km/h (4 Bft) 97,56 %
23.06.2016 16:18 29,8 C 46 % 1018,7 hPa 0,0 l/m 15,8 km/h (3 Bft) O-NO 59 2 min 0,000 mm 4,0 UV-I 667 W/m 16,9 C 29,1 C 24,1 km/h (4 Bft) 96,77 %
23.06.2016 16:20 29,9 C 47 % 1018,6 hPa 0,0 l/m 14,0 km/h (3 Bft) O-NO 73 2 min 0,000 mm 4,0 UV-I 663 W/m 17,3 C 29,3 C 20,9 km/h (4 Bft) 96,15 %
23.06.2016 16:22 29,9 C 49 % 1018,6 hPa 0,0 l/m 14,6 km/h (3 Bft) NO 40 2 min 0,000 mm 3,9 UV-I 658 W/m 18,0 C 29,3 C 19,3 km/h (3 Bft) 97,06 %
23.06.2016 16:24 30,0 C 49 % 1018,5 hPa 0,0 l/m 15,3 km/h (3 Bft) O-NO 61 2 min 0,000 mm 3,9 UV-I 652 W/m 18,1 C 29,3 C 20,9 km/h (4 Bft) 97,37 %
23.06.2016 16:26 30,0 C 48 % 1018,5 hPa 0,0 l/m 17,5 km/h (3 Bft) O-NO 78 2 min 0,000 mm 3,8 UV-I 646 W/m 17,8 C 29,2 C 24,1 km/h (4 Bft) 98,00 %
23.06.2016 16:28 30,1 C 49 % 1018,5 hPa 0,0 l/m 10,5 km/h (2 Bft) NO 51 2 min 0,000 mm 3,7 UV-I 640 W/m 18,2 C 29,8 C 19,3 km/h (3 Bft) 98,11 %
23.06.2016 16:30 30,1 C 48 % 1018,6 hPa 0,0 l/m 18,9 km/h (3 Bft) NO 51 2 min 0,000 mm 3,7 UV-I 635 W/m 17,9 C 29,3 C 24,1 km/h (4 Bft) 95,45 %
23.06.2016 16:32 30,1 C 48 % 1018,5 hPa 0,0 l/m 15,4 km/h (3 Bft) O-NO 61 2 min 0,000 mm 3,6 UV-I 630 W/m 17,9 C 29,5 C 20,9 km/h (4 Bft) 100,00 %
23.06.2016 16:34 29,9 C 48 % 1018,5 hPa 0,0 l/m 16,1 km/h (3 Bft) O-NO 65 2 min 0,000 mm 3,6 UV-I 628 W/m 17,7 C 29,2 C 24,1 km/h (4 Bft) 100,00 %
23.06.2016 16:36 29,9 C 47 % 1018,5 hPa 0,0 l/m 21,2 km/h (4 Bft) O 97 2 min 0,000 mm 3,5 UV-I 621 W/m 17,3 C 28,9 C 29,0 km/h (5 Bft) 100,00 %
23.06.2016 16:38 29,9 C 46 % 1018,5 hPa 0,0 l/m 19,7 km/h (3 Bft) O-NO 65 2 min 0,000 mm 3,4 UV-I 619 W/m 17,0 C 29,0 C 25,7 km/h (4 Bft) 97,37 %
23.06.2016 16:40 29,9 C 48 % 1018,4 hPa 0,0 l/m 17,1 km/h (3 Bft) O-NO 59 2 min 0,000 mm 3,4 UV-I 616 W/m 17,7 C 29,1 C 22,5 km/h (4 Bft) 98,00 %
23.06.2016 16:42 29,8 C 48 % 1018,5 hPa 0,0 l/m 16,8 km/h (3 Bft) NO 46 2 min 0,000 mm 3,3 UV-I 611 W/m 17,6 C 29,0 C 24,1 km/h (4 Bft) 100,00 %
23.06.2016 16:44 29,8 C 48 % 1018,5 hPa 0,0 l/m 16,1 km/h (3 Bft) NO 44 2 min 0,000 mm 3,3 UV-I 605 W/m 17,6 C 29,1 C 22,5 km/h (4 Bft) 97,62 %
23.06.2016 16:46 29,8 C 47 % 1018,4 hPa 0,0 l/m 17,5 km/h (3 Bft) O 82 2 min 0,000 mm 3,2 UV-I 600 W/m 17,2 C 29,0 C 24,1 km/h (4 Bft) 98,36 %
23.06.2016 16:48 29,8 C 48 % 1018,4 hPa 0,0 l/m 15,8 km/h (3 Bft) NO 48 2 min 0,000 mm 3,1 UV-I 595 W/m 17,6 C 29,1 C 22,5 km/h (4 Bft) 100,00 %
23.06.2016 16:50 29,8 C 48 % 1018,3 hPa 0,0 l/m 20,1 km/h (4 Bft) O-NO 74 2 min 0,000 mm 3,1 UV-I 589 W/m 17,6 C 28,9 C 27,4 km/h (4 Bft) 97,56 %
23.06.2016 16:52 29,8 C 49 % 1018,3 hPa 0,0 l/m 17,9 km/h (3 Bft) NO 55 2 min 0,000 mm 3,1 UV-I 584 W/m 17,9 C 29,0 C 24,1 km/h (4 Bft) 100,00 %
23.06.2016 16:54 29,9 C 51 % 1018,4 hPa 0,0 l/m 10,6 km/h (2 Bft) NO 50 2 min 0,000 mm 3,0 UV-I 580 W/m 18,6 C 29,5 C 19,3 km/h (3 Bft) 100,00 %
23.06.2016 16:56 30,1 C 50 % 1018,3 hPa 0,0 l/m 16,3 km/h (3 Bft) O-NO 70 2 min 0,000 mm 2,9 UV-I 573 W/m 18,5 C 29,4 C 24,1 km/h (4 Bft) 100,00 %
23.06.2016 16:58 30,1 C 50 % 1018,3 hPa 0,0 l/m 17,7 km/h (3 Bft) O-NO 73 2 min 0,000 mm 2,9 UV-I 568 W/m 18,5 C 29,4 C 25,7 km/h (4 Bft) 98,11 %
23.06.2016 17:00 30,0 C 48 % 1018,3 hPa 0,0 l/m 15,6 km/h (3 Bft) O-NO 63 2 min 0,559 mm 2,8 UV-I 562 W/m 17,8 C 29,3 C 20,9 km/h (4 Bft) 97,56 %
23.06.2016 17:02 29,9 C 48 % 1018,3 hPa 0,0 l/m 17,2 km/h (3 Bft) O-NO 66 2 min 0,000 mm 2,8 UV-I 559 W/m 17,7 C 29,1 C 24,1 km/h (4 Bft) 100,00 %
23.06.2016 17:04 29,9 C 47 % 1018,2 hPa 0,0 l/m 18,9 km/h (3 Bft) N 5 2 min 0,000 mm 2,7 UV-I 555 W/m 17,3 C 29,0 C 27,4 km/h (4 Bft) 97,56 %
23.06.2016 17:06 29,8 C 49 % 1018,2 hPa 0,0 l/m 17,8 km/h (3 Bft) O-NO 73 2 min 0,000 mm 2,7 UV-I 549 W/m 17,9 C 29,0 C 24,1 km/h (4 Bft) 100,00 %
23.06.2016 17:08 29,8 C 49 % 1018,2 hPa 0,0 l/m 19,6 km/h (3 Bft) O-NO 64 2 min 0,000 mm 2,6 UV-I 547 W/m 17,9 C 28,9 C 25,7 km/h (4 Bft) 98,00 %
23.06.2016 17:10 29,8 C 49 % 1018,2 hPa 0,0 l/m 18,0 km/h (3 Bft) NO 43 2 min 0,000 mm 2,6 UV-I 543 W/m 17,9 C 29,0 C 24,1 km/h (4 Bft) 98,00 %
23.06.2016 17:12 29,8 C 50 % 1018,2 hPa 0,0 l/m 15,8 km/h (3 Bft) O-NO 69 2 min 0,000 mm 2,5 UV-I 535 W/m 18,2 C 29,1 C 25,7 km/h (4 Bft) 100,00 %
23.06.2016 17:14 29,8 C 52 % 1018,2 hPa 0,0 l/m 14,8 km/h (3 Bft) NO 36 2 min 0,000 mm 2,5 UV-I 529 W/m 18,9 C 29,1 C 20,9 km/h (4 Bft) 100,00 %
23.06.2016 17:16 29,7 C 51 % 1018,1 hPa 0,0 l/m 18,0 km/h (3 Bft) O-NO 70 2 min 0,000 mm 2,4 UV-I 525 W/m 18,5 C 28,8 C 25,7 km/h (4 Bft) 100,00 %
23.06.2016 17:18 29,8 C 51 % 1018,1 hPa 0,0 l/m 17,7 km/h (3 Bft) NO 45 2 min 0,000 mm 2,4 UV-I 520 W/m 18,5 C 29,0 C 24,1 km/h (4 Bft) 100,00 %
23.06.2016 17:20 29,8 C 50 % 1018,2 hPa 0,0 l/m 14,9 km/h (3 Bft) O-NO 64 2 min 0,000 mm 2,3 UV-I 514 W/m 18,2 C 29,1 C 25,7 km/h (4 Bft) 100,00 %
23.06.2016 17:22 29,8 C 50 % 1018,1 hPa 0,0 l/m 18,3 km/h (3 Bft) O-NO 71 2 min 0,000 mm 2,3 UV-I 506 W/m 18,2 C 28,9 C 30,6 km/h (5 Bft) 100,00 %
23.06.2016 17:24 29,8 C 50 % 1018,1 hPa 0,0 l/m 19,0 km/h (3 Bft) O-NO 74 2 min 0,000 mm 2,2 UV-I 502 W/m 18,2 C 28,9 C 29,0 km/h (5 Bft) 100,00 %
23.06.2016 17:26 29,7 C 50 % 1018,1 hPa 0,0 l/m 19,5 km/h (3 Bft) O-NO 66 2 min 0,000 mm 2,2 UV-I 497 W/m 18,1 C 28,8 C 27,4 km/h (4 Bft) 100,00 %
23.06.2016 17:28 29,7 C 50 % 1018,1 hPa 0,0 l/m 16,6 km/h (3 Bft) O 80 2 min 0,000 mm 2,2 UV-I 493 W/m 18,1 C 28,9 C 22,5 km/h (4 Bft) 100,00 %
23.06.2016 17:30 29,7 C 49 % 1018,1 hPa 0,0 l/m 18,2 km/h (3 Bft) O 80 2 min 0,000 mm 2,1 UV-I 487 W/m 17,8 C 28,8 C 30,6 km/h (5 Bft) 100,00 %
23.06.2016 17:32 29,6 C 50 % 1018,0 hPa 0,0 l/m 22,0 km/h (4 Bft) O 79 2 min 0,000 mm 2,1 UV-I 482 W/m 18,1 C 28,5 C 29,0 km/h (5 Bft) 100,00 %
23.06.2016 17:34 29,6 C 50 % 1017,9 hPa 0,0 l/m 20,8 km/h (4 Bft) O 88 2 min 0,000 mm 2,0 UV-I 477 W/m 18,1 C 28,6 C 30,6 km/h (5 Bft) 100,00 %
23.06.2016 17:36 29,6 C 50 % 1017,9 hPa 0,0 l/m 19,8 km/h (3 Bft) O-NO 67 2 min 0,000 mm 2,0 UV-I 471 W/m 18,1 C 28,6 C 29,0 km/h (5 Bft) 98,00 %
23.06.2016 17:38 29,6 C 52 % 1017,9 hPa 0,0 l/m 17,1 km/h (3 Bft) O 83 2 min 0,000 mm 1,9 UV-I 467 W/m 18,7 C 28,8 C 29,0 km/h (5 Bft) 100,00 %
23.06.2016 17:40 29,6 C 51 % 1017,8 hPa 0,0 l/m 17,7 km/h (3 Bft) O 80 2 min 0,000 mm 1,9 UV-I 460 W/m 18,4 C 28,7 C 25,7 km/h (4 Bft) 98,00 %
23.06.2016 17:42 29,6 C 51 % 1017,8 hPa 0,0 l/m 20,2 km/h (4 Bft) O-NO 68 2 min 0,000 mm 1,8 UV-I 454 W/m 18,4 C 28,6 C 27,4 km/h (4 Bft) 100,00 %
23.06.2016 17:44 29,6 C 51 % 1017,8 hPa 0,0 l/m 16,5 km/h (3 Bft) O-NO 71 2 min 0,000 mm 1,8 UV-I 450 W/m 18,4 C 28,8 C 22,5 km/h (4 Bft) 98,21 %
23.06.2016 17:46 29,6 C 51 % 1017,8 hPa 0,0 l/m 20,9 km/h (4 Bft) O-NO 70 2 min 0,000 mm 1,7 UV-I 443 W/m 18,4 C 28,6 C 29,0 km/h (5 Bft) 100,00 %
23.06.2016 17:48 29,6 C 51 % 1017,7 hPa 0,0 l/m 18,7 km/h (3 Bft) O-NO 67 2 min 0,000 mm 1,7 UV-I 438 W/m 18,4 C 28,7 C 27,4 km/h (4 Bft) 100,00 %
23.06.2016 17:50 29,6 C 52 % 1017,7 hPa 0,0 l/m 18,8 km/h (3 Bft) O 90 2 min 0,000 mm 1,6 UV-I 433 W/m 18,7 C 28,7 C 27,4 km/h (4 Bft) 100,00 %
23.06.2016 17:52 29,6 C 52 % 1017,7 hPa 0,0 l/m 19,8 km/h (3 Bft) O-NO 76 2 min 0,000 mm 1,6 UV-I 428 W/m 18,7 C 28,6 C 32,2 km/h (5 Bft) 98,00 %
23.06.2016 17:54 29,5 C 51 % 1017,7 hPa 0,0 l/m 18,7 km/h (3 Bft) O-NO 59 2 min 0,000 mm 1,5 UV-I 423 W/m 18,3 C 28,5 C 25,7 km/h (4 Bft) 95,45 %
23.06.2016 17:56 29,4 C 51 % 1017,7 hPa 0,0 l/m 20,9 km/h (4 Bft) O 86 2 min 0,000 mm 1,5 UV-I 418 W/m 18,2 C 28,3 C 29,0 km/h (5 Bft) 96,30 %
23.06.2016 17:58 29,4 C 51 % 1017,6 hPa 0,0 l/m 22,7 km/h (4 Bft) O-NO 62 2 min 0,000 mm 1,5 UV-I 414 W/m 18,2 C 28,2 C 30,6 km/h (5 Bft) 97,14 %
23.06.2016 18:00 29,4 C 51 % 1017,6 hPa 0,0 l/m 22,2 km/h (4 Bft) O-NO 65 2 min 0,000 mm 1,4 UV-I 408 W/m 18,2 C 28,2 C 32,2 km/h (5 Bft) 97,56 %
23.06.2016 18:02 29,4 C 52 % 1017,6 hPa 0,0 l/m 18,5 km/h (3 Bft) O-NO 75 2 min 0,483 mm 1,4 UV-I 403 W/m 18,5 C 28,4 C 25,7 km/h (4 Bft) 96,30 %
23.06.2016 18:04 29,3 C 51 % 1017,6 hPa 0,0 l/m 17,0 km/h (3 Bft) O-NO 69 2 min 0,000 mm 1,3 UV-I 398 W/m 18,1 C 28,4 C 22,5 km/h (4 Bft) 97,56 %
23.06.2016 18:06 29,3 C 52 % 1017,6 hPa 0,0 l/m 20,1 km/h (4 Bft) O-NO 61 2 min 0,000 mm 1,3 UV-I 393 W/m 18,4 C 28,2 C 29,0 km/h (5 Bft) 98,11 %
23.06.2016 18:08 29,3 C 52 % 1017,5 hPa 0,0 l/m 21,2 km/h (4 Bft) O-NO 63 2 min 0,000 mm 1,3 UV-I 387 W/m 18,4 C 28,2 C 27,4 km/h (4 Bft) 97,87 %
23.06.2016 18:10 29,3 C 51 % 1017,4 hPa 0,0 l/m 21,1 km/h (4 Bft) NO 47 2 min 0,000 mm 1,2 UV-I 382 W/m 18,1 C 28,2 C 30,6 km/h (5 Bft) 97,62 %
23.06.2016 18:12 29,3 C 52 % 1017,4 hPa 0,0 l/m 20,9 km/h (4 Bft) O-NO 61 2 min 0,000 mm 1,2 UV-I 378 W/m 18,4 C 28,2 C 25,7 km/h (4 Bft) 98,00 %
23.06.2016 18:14 29,3 C 51 % 1017,4 hPa 0,0 l/m 19,0 km/h (3 Bft) O-NO 57 2 min 0,000 mm 1,2 UV-I 373 W/m 18,1 C 28,3 C 29,0 km/h (5 Bft) 97,56 %
23.06.2016 18:16 29,2 C 51 % 1017,4 hPa 0,0 l/m 22,0 km/h (4 Bft) O-NO 65 2 min 0,000 mm 1,1 UV-I 367 W/m 18,0 C 28,0 C 32,2 km/h (5 Bft) 96,43 %
23.06.2016 18:18 29,2 C 52 % 1017,4 hPa 0,0 l/m 20,7 km/h (4 Bft) O-NO 76 2 min 0,000 mm 1,1 UV-I 362 W/m 18,3 C 28,1 C 27,4 km/h (4 Bft) 97,37 %
23.06.2016 18:20 29,2 C 52 % 1017,4 hPa 0,0 l/m 18,5 km/h (3 Bft) O 96 2 min 0,000 mm 1,1 UV-I 355 W/m 18,3 C 28,2 C 25,7 km/h (4 Bft) 98,11 %
23.06.2016 18:22 29,2 C 53 % 1017,4 hPa 0,0 l/m 18,1 km/h (3 Bft) O 95 2 min 0,000 mm 1,0 UV-I 350 W/m 18,6 C 28,2 C 24,1 km/h (4 Bft) 98,00 %
23.06.2016 18:24 29,1 C 53 % 1017,4 hPa 0,0 l/m 15,6 km/h (3 Bft) O-NO 65 2 min 0,000 mm 1,0 UV-I 345 W/m 18,5 C 28,2 C 24,1 km/h (4 Bft) 100,00 %
23.06.2016 18:26 29,1 C 54 % 1017,3 hPa 0,0 l/m 17,9 km/h (3 Bft) O-NO 62 2 min 0,000 mm 1,0 UV-I 338 W/m 18,8 C 28,1 C 24,1 km/h (4 Bft) 96,23 %
23.06.2016 18:28 29,0 C 54 % 1017,4 hPa 0,0 l/m 15,8 km/h (3 Bft) O-NO 71 2 min 0,000 mm 1,0 UV-I 331 W/m 18,7 C 28,1 C 29,0 km/h (5 Bft) 100,00 %
23.06.2016 18:30 29,0 C 55 % 1017,3 hPa 0,0 l/m 11,4 km/h (2 Bft) O-NO 65 2 min 0,000 mm 1,0 UV-I 325 W/m 19,0 C 28,4 C 17,7 km/h (3 Bft) 98,11 %
23.06.2016 18:32 29,0 C 55 % 1017,3 hPa 0,0 l/m 14,4 km/h (3 Bft) O-NO 60 2 min 0,000 mm 0,9 UV-I 320 W/m 19,0 C 28,2 C 22,5 km/h (4 Bft) 100,00 %
23.06.2016 18:34 29,0 C 55 % 1017,4 hPa 0,0 l/m 13,8 km/h (3 Bft) NO 55 2 min 0,000 mm 0,9 UV-I 314 W/m 19,0 C 28,2 C 22,5 km/h (4 Bft) 97,87 %
23.06.2016 18:36 29,0 C 55 % 1017,3 hPa 0,0 l/m 18,7 km/h (3 Bft) O-NO 69 2 min 0,000 mm 0,9 UV-I 307 W/m 19,0 C 27,9 C 24,1 km/h (4 Bft) 98,11 %
23.06.2016 18:38 29,0 C 54 % 1017,4 hPa 0,0 l/m 17,5 km/h (3 Bft) O-NO 63 2 min 0,000 mm 0,8 UV-I 302 W/m 18,7 C 28,0 C 27,4 km/h (4 Bft) 100,00 %
23.06.2016 18:40 28,9 C 54 % 1017,4 hPa 0,0 l/m 16,0 km/h (3 Bft) O-NO 58 2 min 0,000 mm 0,8 UV-I 296 W/m 18,6 C 28,0 C 25,7 km/h (4 Bft) 97,56 %
23.06.2016 18:42 28,9 C 54 % 1017,4 hPa 0,0 l/m 16,4 km/h (3 Bft) O 92 2 min 0,000 mm 0,8 UV-I 290 W/m 18,6 C 27,9 C 22,5 km/h (4 Bft) 100,00 %
23.06.2016 18:44 28,8 C 54 % 1017,3 hPa 0,0 l/m 17,6 km/h (3 Bft) O 84 2 min 0,000 mm 0,8 UV-I 284 W/m 18,5 C 27,7 C 25,7 km/h (4 Bft) 100,00 %
23.06.2016 18:46 28,8 C 54 % 1017,4 hPa 0,0 l/m 18,4 km/h (3 Bft) NO 38 2 min 0,000 mm 0,7 UV-I 279 W/m 18,5 C 27,7 C 25,7 km/h (4 Bft) 97,87 %
23.06.2016 18:48 28,8 C 55 % 1017,4 hPa 0,0 l/m 18,6 km/h (3 Bft) O 82 2 min 0,000 mm 0,7 UV-I 274 W/m 18,8 C 27,7 C 25,7 km/h (4 Bft) 100,00 %
23.06.2016 18:50 28,7 C 55 % 1017,5 hPa 0,0 l/m 16,4 km/h (3 Bft) O-NO 77 2 min 0,000 mm 0,7 UV-I 267 W/m 18,7 C 27,7 C 24,1 km/h (4 Bft) 100,00 %
23.06.2016 18:52 28,7 C 55 % 1017,5 hPa 0,0 l/m 12,9 km/h (3 Bft) O-NO 65 2 min 0,000 mm 0,7 UV-I 263 W/m 18,7 C 28,0 C 19,3 km/h (3 Bft) 100,00 %
23.06.2016 18:54 28,7 C 56 % 1017,4 hPa 0,0 l/m 13,4 km/h (3 Bft) NO 49 2 min 0,000 mm 0,6 UV-I 258 W/m 19,0 C 27,9 C 19,3 km/h (3 Bft) 100,00 %
23.06.2016 18:56 28,7 C 55 % 1017,5 hPa 0,0 l/m 15,5 km/h (3 Bft) O-NO 66 2 min 0,000 mm 0,6 UV-I 252 W/m 18,7 C 27,8 C 20,9 km/h (4 Bft) 100,00 %
23.06.2016 18:58 28,7 C 55 % 1017,5 hPa 0,0 l/m 19,8 km/h (3 Bft) O 79 2 min 0,000 mm 0,6 UV-I 247 W/m 18,7 C 27,5 C 25,7 km/h (4 Bft) 100,00 %
23.06.2016 19:00 28,7 C 55 % 1017,5 hPa 0,0 l/m 18,0 km/h (3 Bft) O-NO 78 2 min 0,000 mm 0,6 UV-I 243 W/m 18,7 C 27,6 C 24,1 km/h (4 Bft) 100,00 %
23.06.2016 19:02 28,6 C 56 % 1017,5 hPa 0,0 l/m 12,8 km/h (3 Bft) O-NO 62 2 min 0,355 mm 0,5 UV-I 237 W/m 18,9 C 27,9 C 17,7 km/h (3 Bft) 98,21 %
23.06.2016 19:04 28,6 C 55 % 1017,5 hPa 0,0 l/m 15,5 km/h (3 Bft) O 82 2 min 0,000 mm 0,5 UV-I 230 W/m 18,7 C 27,6 C 24,1 km/h (4 Bft) 98,33 %
23.06.2016 19:06 28,5 C 56 % 1017,6 hPa 0,0 l/m 14,0 km/h (3 Bft) O 79 2 min 0,000 mm 0,5 UV-I 225 W/m 18,8 C 27,6 C 22,5 km/h (4 Bft) 100,00 %
23.06.2016 19:08 28,4 C 55 % 1017,5 hPa 0,0 l/m 20,7 km/h (4 Bft) O-NO 77 2 min 0,000 mm 0,5 UV-I 219 W/m 18,5 C 27,0 C 27,4 km/h (4 Bft) 100,00 %
23.06.2016 19:10 28,4 C 55 % 1017,5 hPa 0,0 l/m 15,9 km/h (3 Bft) O 83 2 min 0,000 mm 0,5 UV-I 213 W/m 18,5 C 27,4 C 25,7 km/h (4 Bft) 100,00 %
23.06.2016 19:12 28,4 C 56 % 1017,5 hPa 0,0 l/m 17,1 km/h (3 Bft) O-NO 78 2 min 0,000 mm 0,4 UV-I 207 W/m 18,8 C 27,3 C 24,1 km/h (4 Bft) 97,87 %
23.06.2016 19:14 28,3 C 56 % 1017,5 hPa 0,0 l/m 12,1 km/h (2 Bft) O-NO 69 2 min 0,000 mm 0,0 UV-I 201 W/m 18,7 C 27,6 C 17,7 km/h (3 Bft) 100,00 %
23.06.2016 19:16 28,3 C 56 % 1017,5 hPa 0,0 l/m 12,5 km/h (3 Bft) O 82 2 min 0,000 mm 0,0 UV-I 196 W/m 18,7 C 27,5 C 19,3 km/h (3 Bft) 100,00 %
23.06.2016 19:18 28,2 C 56 % 1017,5 hPa 0,0 l/m 15,2 km/h (3 Bft) O 81 2 min 0,000 mm 0,0 UV-I 191 W/m 18,6 C 27,2 C 24,1 km/h (4 Bft) 97,37 %
23.06.2016 19:20 28,2 C 56 % 1017,5 hPa 0,0 l/m 14,9 km/h (3 Bft) O-SO 105 2 min 0,000 mm 0,0 UV-I 185 W/m 18,6 C 27,2 C 20,9 km/h (4 Bft) 98,00 %
23.06.2016 19:22 28,2 C 57 % 1017,4 hPa 0,0 l/m 12,0 km/h (2 Bft) O-NO 68 2 min 0,000 mm 0,0 UV-I 179 W/m 18,9 C 27,5 C 17,7 km/h (3 Bft) 100,00 %
23.06.2016 19:24 28,1 C 57 % 1017,5 hPa 0,0 l/m 15,9 km/h (3 Bft) O-NO 76 2 min 0,000 mm 0,0 UV-I 174 W/m 18,8 C 27,0 C 22,5 km/h (4 Bft) 100,00 %
23.06.2016 19:26 28,1 C 57 % 1017,4 hPa 0,0 l/m 13,2 km/h (3 Bft) O-NO 67 2 min 0,000 mm 0,0 UV-I 168 W/m 18,8 C 27,2 C 19,3 km/h (3 Bft) 100,00 %
23.06.2016 19:28 28,0 C 58 % 1017,4 hPa 0,0 l/m 14,5 km/h (3 Bft) O-NO 65 2 min 0,000 mm 0,0 UV-I 162 W/m 18,9 C 27,0 C 20,9 km/h (4 Bft) 100,00 %
23.06.2016 19:30 28,0 C 58 % 1017,4 hPa 0,0 l/m 12,8 km/h (3 Bft) O-NO 68 2 min 0,000 mm 0,0 UV-I 156 W/m 18,9 C 27,2 C 19,3 km/h (3 Bft) 100,00 %
23.06.2016 19:32 27,9 C 59 % 1017,5 hPa 0,0 l/m 7,8 km/h (2 Bft) O-NO 74 2 min 0,000 mm 0,0 UV-I 152 W/m 19,1 C 27,7 C 12,9 km/h (3 Bft) 100,00 %
23.06.2016 19:34 27,9 C 60 % 1017,5 hPa 0,0 l/m 7,9 km/h (2 Bft) O-NO 62 2 min 0,000 mm 0,0 UV-I 145 W/m 19,4 C 27,7 C 16,1 km/h (3 Bft) 100,00 %
23.06.2016 19:36 27,8 C 60 % 1017,4 hPa 0,0 l/m 10,8 km/h (2 Bft) O-NO 72 2 min 0,000 mm 0,0 UV-I 140 W/m 19,3 C 27,2 C 16,1 km/h (3 Bft) 100,00 %
23.06.2016 19:38 27,8 C 60 % 1017,4 hPa 0,0 l/m 9,8 km/h (2 Bft) NO 46 2 min 0,000 mm 0,0 UV-I 134 W/m 19,3 C 27,3 C 16,1 km/h (3 Bft) 100,00 %
23.06.2016 19:40 27,7 C 61 % 1017,4 hPa 0,0 l/m 9,1 km/h (2 Bft) O-NO 59 2 min 0,000 mm 0,0 UV-I 130 W/m 19,5 C 27,3 C 12,9 km/h (3 Bft) 100,00 %
23.06.2016 19:42 27,7 C 60 % 1017,4 hPa 0,0 l/m 11,3 km/h (2 Bft) O-NO 62 2 min 0,000 mm 0,0 UV-I 124 W/m 19,2 C 27,0 C 20,9 km/h (4 Bft) 100,00 %
23.06.2016 19:44 27,7 C 59 % 1017,4 hPa 0,0 l/m 15,6 km/h (3 Bft) O-NO 72 2 min 0,000 mm 0,0 UV-I 119 W/m 18,9 C 26,5 C 22,5 km/h (4 Bft) 98,00 %
23.06.2016 19:46 27,7 C 60 % 1017,4 hPa 0,0 l/m 14,3 km/h (3 Bft) O-NO 78 2 min 0,000 mm 0,0 UV-I 113 W/m 19,2 C 26,6 C 17,7 km/h (3 Bft) 98,00 %
23.06.2016 19:48 27,6 C 59 % 1017,4 hPa 0,0 l/m 16,8 km/h (3 Bft) O-NO 71 2 min 0,000 mm 0,0 UV-I 108 W/m 18,8 C 26,3 C 24,1 km/h (4 Bft) 97,37 %
23.06.2016 19:50 27,6 C 59 % 1017,4 hPa 0,0 l/m 12,0 km/h (2 Bft) O-NO 57 2 min 0,000 mm 0,0 UV-I 103 W/m 18,8 C 26,8 C 16,1 km/h (3 Bft) 98,00 %
23.06.2016 19:52 27,5 C 60 % 1017,4 hPa 0,0 l/m 11,6 km/h (2 Bft) O-NO 76 2 min 0,000 mm 0,0 UV-I 100 W/m 19,0 C 26,7 C 16,1 km/h (3 Bft) 97,37 %
23.06.2016 19:54 27,4 C 60 % 1017,4 hPa 0,0 l/m 14,1 km/h (3 Bft) NO 55 2 min 0,000 mm 0,0 UV-I 94 W/m 18,9 C 26,3 C 20,9 km/h (4 Bft) 97,87 %
23.06.2016 19:56 27,3 C 60 % 1017,4 hPa 0,0 l/m 16,7 km/h (3 Bft) O-NO 59 0 min 0,000 mm 0,0 UV-I 88 W/m 18,8 C 25,9 C 24,1 km/h (4 Bft) 96,43 %
23.06.2016 19:58 27,2 C 60 % 1017,4 hPa 0,0 l/m 15,0 km/h (3 Bft) O-NO 65 0 min 0,000 mm 0,0 UV-I 84 W/m 18,7 C 26,0 C 24,1 km/h (4 Bft) 97,37 %
23.06.2016 20:00 27,2 C 60 % 1017,3 hPa 0,0 l/m 16,3 km/h (3 Bft) NO 55 0 min 0,204 mm 0,0 UV-I 80 W/m 18,7 C 25,8 C 24,1 km/h (4 Bft) 94,92 %
23.06.2016 20:02 27,1 C 60 % 1017,4 hPa 0,0 l/m 14,9 km/h (3 Bft) O-NO 77 0 min 0,000 mm 0,0 UV-I 76 W/m 18,6 C 25,9 C 22,5 km/h (4 Bft) 97,87 %
23.06.2016 20:04 27,1 C 60 % 1017,3 hPa 0,0 l/m 13,9 km/h (3 Bft) O-NO 77 0 min 0,000 mm 0,0 UV-I 72 W/m 18,6 C 26,0 C 20,9 km/h (4 Bft) 97,22 %
23.06.2016 20:06 26,9 C 60 % 1017,4 hPa 0,0 l/m 16,6 km/h (3 Bft) O-NO 76 0 min 0,000 mm 0,0 UV-I 68 W/m 18,5 C 25,4 C 24,1 km/h (4 Bft) 98,28 %
23.06.2016 20:08 26,9 C 60 % 1017,4 hPa 0,0 l/m 17,6 km/h (3 Bft) O-NO 61 0 min 0,000 mm 0,0 UV-I 63 W/m 18,5 C 25,3 C 29,0 km/h (5 Bft) 97,62 %
23.06.2016 20:10 26,8 C 60 % 1017,3 hPa 0,0 l/m 15,9 km/h (3 Bft) O-NO 65 0 min 0,000 mm 0,0 UV-I 60 W/m 18,4 C 25,4 C 24,1 km/h (4 Bft) 96,15 %
23.06.2016 20:12 26,8 C 60 % 1017,3 hPa 0,0 l/m 13,9 km/h (3 Bft) O-NO 73 0 min 0,000 mm 0,0 UV-I 55 W/m 18,4 C 25,6 C 20,9 km/h (4 Bft) 97,78 %
23.06.2016 20:14 26,7 C 61 % 1017,4 hPa 0,0 l/m 16,5 km/h (3 Bft) NO 48 0 min 0,000 mm 0,0 UV-I 53 W/m 18,5 C 25,2 C 22,5 km/h (4 Bft) 95,74 %
23.06.2016 20:16 26,7 C 61 % 1017,4 hPa 0,0 l/m 11,6 km/h (2 Bft) O-NO 65 0 min 0,000 mm 0,0 UV-I 49 W/m 18,5 C 25,8 C 17,7 km/h (3 Bft) 100,00 %
23.06.2016 20:18 26,6 C 61 % 1017,3 hPa 0,0 l/m 16,2 km/h (3 Bft) O-NO 78 0 min 0,000 mm 0,0 UV-I 45 W/m 18,4 C 25,1 C 22,5 km/h (4 Bft) 97,73 %
23.06.2016 20:20 26,6 C 61 % 1017,3 hPa 0,0 l/m 12,5 km/h (3 Bft) O-NO 59 0 min 0,000 mm 0,0 UV-I 43 W/m 18,4 C 25,6 C 16,1 km/h (3 Bft) 100,00 %
23.06.2016 20:22 26,4 C 61 % 1017,4 hPa 0,0 l/m 13,7 km/h (3 Bft) O-NO 63 0 min 0,000 mm 0,0 UV-I 38 W/m 18,3 C 25,2 C 17,7 km/h (3 Bft) 98,11 %
23.06.2016 20:24 26,4 C 61 % 1017,3 hPa 0,0 l/m 15,0 km/h (3 Bft) O-NO 69 0 min 0,000 mm 0,0 UV-I 34 W/m 18,3 C 25,0 C 20,9 km/h (4 Bft) 100,00 %
23.06.2016 20:26 26,4 C 61 % 1017,3 hPa 0,0 l/m 17,8 km/h (3 Bft) O-NO 64 0 min 0,000 mm 0,0 UV-I 28 W/m 18,3 C 24,7 C 22,5 km/h (4 Bft) 100,00 %
23.06.2016 20:28 26,3 C 62 % 1017,3 hPa 0,0 l/m 12,8 km/h (3 Bft) NO 55 0 min 0,000 mm 0,0 UV-I 24 W/m 18,4 C 25,2 C 17,7 km/h (3 Bft) 100,00 %
23.06.2016 20:30 26,2 C 62 % 1017,2 hPa 0,0 l/m 13,2 km/h (3 Bft) O 79 0 min 0,000 mm 0,0 UV-I 22 W/m 18,3 C 25,0 C 20,9 km/h (4 Bft) 100,00 %
23.06.2016 20:32 26,2 C 62 % 1017,3 hPa 0,0 l/m 13,1 km/h (3 Bft) O 98 0 min 0,000 mm 0,0 UV-I 21 W/m 18,3 C 25,0 C 19,3 km/h (3 Bft) 100,00 %
23.06.2016 20:34 26,1 C 62 % 1017,3 hPa 0,0 l/m 13,8 km/h (3 Bft) O-NO 61 0 min 0,000 mm 0,0 UV-I 19 W/m 18,2 C 24,8 C 20,9 km/h (4 Bft) 100,00 %
23.06.2016 20:36 25,9 C 62 % 1017,3 hPa 0,0 l/m 14,3 km/h (3 Bft) O-NO 69 0 min 0,000 mm 0,0 UV-I 19 W/m 18,0 C 24,5 C 20,9 km/h (4 Bft) 100,00 %
23.06.2016 20:38 25,9 C 62 % 1017,3 hPa 0,0 l/m 14,5 km/h (3 Bft) O 99 0 min 0,000 mm 0,0 UV-I 18 W/m 18,0 C 24,5 C 17,7 km/h (3 Bft) 100,00 %
23.06.2016 20:40 25,8 C 63 % 1017,3 hPa 0,0 l/m 12,5 km/h (3 Bft) O-NO 61 0 min 0,000 mm 0,0 UV-I 18 W/m 18,2 C 24,6 C 17,7 km/h (3 Bft) 100,00 %
23.06.2016 20:42 25,8 C 63 % 1017,3 hPa 0,0 l/m 12,5 km/h (3 Bft) O-NO 61 0 min 0,000 mm 0,0 UV-I 17 W/m 18,2 C 24,6 C 19,3 km/h (3 Bft) 100,00 %
23.06.2016 20:44 25,7 C 63 % 1017,3 hPa 0,0 l/m 12,4 km/h (3 Bft) O-NO 72 0 min 0,000 mm 0,0 UV-I 16 W/m 18,1 C 24,5 C 17,7 km/h (3 Bft) 96,23 %
23.06.2016 20:46 25,7 C 63 % 1017,3 hPa 0,0 l/m 12,3 km/h (3 Bft) O-NO 57 0 min 0,000 mm 0,0 UV-I 15 W/m 18,1 C 24,5 C 17,7 km/h (3 Bft) 100,00 %
23.06.2016 20:48 25,6 C 63 % 1017,4 hPa 0,0 l/m 11,5 km/h (2 Bft) NO 51 0 min 0,000 mm 0,0 UV-I 14 W/m 18,0 C 24,6 C 19,3 km/h (3 Bft) 100,00 %
23.06.2016 20:50 25,6 C 64 % 1017,4 hPa 0,0 l/m 8,0 km/h (2 Bft) O 82 0 min 0,000 mm 0,0 UV-I 14 W/m 18,3 C 25,2 C 12,9 km/h (3 Bft) 100,00 %
23.06.2016 20:52 25,4 C 64 % 1017,3 hPa 0,0 l/m 11,1 km/h (2 Bft) O-NO 71 0 min 0,000 mm 0,0 UV-I 12 W/m 18,1 C 24,4 C 14,5 km/h (3 Bft) 100,00 %
23.06.2016 20:54 25,4 C 64 % 1017,4 hPa 0,0 l/m 9,7 km/h (2 Bft) NO 55 2 min 0,000 mm 0,0 UV-I 12 W/m 18,1 C 24,7 C 16,1 km/h (3 Bft) 100,00 %
23.06.2016 20:56 25,3 C 64 % 1017,3 hPa 0,0 l/m 11,1 km/h (2 Bft) O-NO 74 0 min 0,000 mm 0,0 UV-I 11 W/m 18,0 C 24,3 C 16,1 km/h (3 Bft) 100,00 %
23.06.2016 20:58 25,3 C 65 % 1017,4 hPa 0,0 l/m 8,0 km/h (2 Bft) O-NO 63 0 min 0,000 mm 0,0 UV-I 11 W/m 18,2 C 24,9 C 11,3 km/h (2 Bft) 100,00 %
23.06.2016 21:00 25,2 C 65 % 1017,4 hPa 0,0 l/m 7,1 km/h (2 Bft) NO 43 0 min 0,000 mm 0,0 UV-I 10 W/m 18,1 C 25,0 C 11,3 km/h (2 Bft) 100,00 %
23.06.2016 21:02 25,0 C 66 % 1017,4 hPa 0,0 l/m 5,6 km/h (1 Bft) O-NO 76 0 min 0,101 mm 0,0 UV-I 9 W/m 18,2 C 25,0 C 8,0 km/h (2 Bft) 100,00 %
23.06.2016 21:04 24,8 C 67 % 1017,4 hPa 0,0 l/m 6,5 km/h (2 Bft) O-NO 62 0 min 0,000 mm 0,0 UV-I 8 W/m 18,2 C 24,8 C 9,7 km/h (2 Bft) 100,00 %
23.06.2016 21:06 24,7 C 67 % 1017,4 hPa 0,0 l/m 5,2 km/h (1 Bft) NO 51 0 min 0,000 mm 0,0 UV-I 7 W/m 18,1 C 24,7 C 8,0 km/h (2 Bft) 100,00 %
23.06.2016 21:08 24,6 C 68 % 1017,4 hPa 0,0 l/m 6,4 km/h (2 Bft) O-NO 61 0 min 0,000 mm 0,0 UV-I 6 W/m 18,3 C 24,6 C 12,9 km/h (3 Bft) 100,00 %
23.06.2016 21:10 24,5 C 68 % 1017,5 hPa 0,0 l/m 6,6 km/h (2 Bft) O-NO 61 0 min 0,000 mm 0,0 UV-I 5 W/m 18,2 C 24,5 C 8,0 km/h (2 Bft) 100,00 %
23.06.2016 21:12 24,4 C 69 % 1017,5 hPa 0,0 l/m 6,1 km/h (2 Bft) O-NO 57 0 min 0,000 mm 0,0 UV-I 5 W/m 18,3 C 24,4 C 8,0 km/h (2 Bft) 100,00 %
23.06.2016 21:14 24,3 C 69 % 1017,5 hPa 0,0 l/m 7,6 km/h (2 Bft) NO 55 0 min 0,000 mm 0,0 UV-I 3 W/m 18,2 C 24,0 C 11,3 km/h (2 Bft) 100,00 %
23.06.2016 21:16 24,3 C 70 % 1017,5 hPa 0,0 l/m 6,3 km/h (2 Bft) O-NO 70 0 min 0,000 mm 0,0 UV-I 0 W/m 18,5 C 24,3 C 8,0 km/h (2 Bft) 100,00 %
23.06.2016 21:18 24,2 C 70 % 1017,5 hPa 0,0 l/m 6,1 km/h (2 Bft) O-NO 58 0 min 0,000 mm 0,0 UV-I 0 W/m 18,4 C 24,2 C 9,7 km/h (2 Bft) 100,00 %
23.06.2016 21:20 24,1 C 70 % 1017,5 hPa 0,0 l/m 5,9 km/h (2 Bft) O-NO 59 0 min 0,000 mm 0,0 UV-I 0 W/m 18,3 C 24,1 C 9,7 km/h (2 Bft) 97,56 %
23.06.2016 21:22 24,0 C 70 % 1017,6 hPa 0,0 l/m 8,2 km/h (2 Bft) NO 55 0 min 0,000 mm 0,0 UV-I 0 W/m 18,2 C 23,5 C 14,5 km/h (3 Bft) 100,00 %
23.06.2016 21:24 24,0 C 70 % 1017,6 hPa 0,0 l/m 10,7 km/h (2 Bft) O-NO 63 0 min 0,000 mm 0,0 UV-I 0 W/m 18,2 C 22,9 C 16,1 km/h (3 Bft) 100,00 %
23.06.2016 21:26 24,0 C 70 % 1017,6 hPa 0,0 l/m 11,1 km/h (2 Bft) O-NO 61 0 min 0,000 mm 0,0 UV-I 0 W/m 18,2 C 22,8 C 17,7 km/h (3 Bft) 100,00 %
23.06.2016 21:28 24,0 C 70 % 1017,6 hPa 0,0 l/m 10,8 km/h (2 Bft) O-NO 69 0 min 0,000 mm 0,0 UV-I 0 W/m 18,2 C 22,9 C 16,1 km/h (3 Bft) 100,00 %
23.06.2016 21:30 24,0 C 69 % 1017,6 hPa 0,0 l/m 11,3 km/h (2 Bft) O-NO 63 0 min 0,000 mm 0,0 UV-I 0 W/m 18,0 C 22,8 C 19,3 km/h (3 Bft) 100,00 %
23.06.2016 21:32 24,1 C 69 % 1017,6 hPa 0,0 l/m 10,0 km/h (2 Bft) O-NO 57 0 min 0,000 mm 0,0 UV-I 0 W/m 18,0 C 23,2 C 14,5 km/h (3 Bft) 100,00 %
23.06.2016 21:34 24,1 C 69 % 1017,6 hPa 0,0 l/m 10,4 km/h (2 Bft) O-NO 67 0 min 0,000 mm 0,0 UV-I 0 W/m 18,0 C 23,1 C 16,1 km/h (3 Bft) 98,00 %
23.06.2016 21:36 24,1 C 69 % 1017,6 hPa 0,0 l/m 12,0 km/h (2 Bft) O-NO 59 0 min 0,000 mm 0,0 UV-I 0 W/m 18,0 C 22,8 C 19,3 km/h (3 Bft) 98,00 %
23.06.2016 21:38 24,2 C 69 % 1017,7 hPa 0,0 l/m 11,6 km/h (2 Bft) O-NO 78 0 min 0,000 mm 0,0 UV-I 0 W/m 18,1 C 22,9 C 19,3 km/h (3 Bft) 100,00 %
23.06.2016 21:40 24,2 C 68 % 1017,6 hPa 0,0 l/m 11,9 km/h (2 Bft) O 84 0 min 0,000 mm 0,0 UV-I 0 W/m 17,9 C 22,9 C 16,1 km/h (3 Bft) 100,00 %
23.06.2016 21:42 24,2 C 69 % 1017,6 hPa 0,0 l/m 9,3 km/h (2 Bft) N-NO 32 0 min 0,000 mm 0,0 UV-I 0 W/m 18,1 C 23,4 C 17,7 km/h (3 Bft) 95,45 %
23.06.2016 21:44 24,2 C 69 % 1017,6 hPa 0,0 l/m 10,0 km/h (2 Bft) NO 53 0 min 0,000 mm 0,0 UV-I 0 W/m 18,1 C 23,3 C 16,1 km/h (3 Bft) 97,56 %
23.06.2016 21:46 24,2 C 68 % 1017,7 hPa 0,0 l/m 9,7 km/h (2 Bft) O-NO 59 0 min 0,000 mm 0,0 UV-I 0 W/m 17,9 C 23,3 C 16,1 km/h (3 Bft) 96,00 %
23.06.2016 21:48 24,1 C 69 % 1017,7 hPa 0,0 l/m 8,1 km/h (2 Bft) N-NO 33 0 min 0,000 mm 0,0 UV-I 0 W/m 18,0 C 23,6 C 14,5 km/h (3 Bft) 97,87 %
23.06.2016 21:50 24,1 C 69 % 1017,7 hPa 0,0 l/m 7,5 km/h (2 Bft) NO 55 0 min 0,000 mm 0,0 UV-I 0 W/m 18,0 C 23,8 C 11,3 km/h (2 Bft) 98,00 %
23.06.2016 21:52 23,9 C 70 % 1017,7 hPa 0,0 l/m 8,0 km/h (2 Bft) NO 55 0 min 0,000 mm 0,0 UV-I 0 W/m 18,1 C 23,4 C 9,7 km/h (2 Bft) 97,73 %
23.06.2016 21:54 23,8 C 70 % 1017,7 hPa 0,0 l/m 7,9 km/h (2 Bft) O-NO 69 0 min 0,000 mm 0,0 UV-I 0 W/m 18,0 C 23,4 C 14,5 km/h (3 Bft) 97,56 %
23.06.2016 21:56 23,8 C 70 % 1017,7 hPa 0,0 l/m 8,3 km/h (2 Bft) NO 55 0 min 0,000 mm 0,0 UV-I 0 W/m 18,0 C 23,3 C 14,5 km/h (3 Bft) 98,31 %
23.06.2016 21:58 23,7 C 70 % 1017,6 hPa 0,0 l/m 7,4 km/h (2 Bft) NO 54 0 min 0,000 mm 0,0 UV-I 0 W/m 17,9 C 23,4 C 12,9 km/h (3 Bft) 95,12 %
23.06.2016 22:00 23,6 C 70 % 1017,6 hPa 0,0 l/m 7,3 km/h (2 Bft) N-NO 20 0 min 0,051 mm 0,0 UV-I 0 W/m 17,8 C 23,3 C 11,3 km/h (2 Bft) 93,62 %
23.06.2016 22:02 23,6 C 71 % 1017,7 hPa 0,0 l/m 6,9 km/h (2 Bft) O-NO 61 0 min 0,000 mm 0,0 UV-I 0 W/m 18,0 C 23,5 C 9,7 km/h (2 Bft) 98,00 %
23.06.2016 22:04 23,5 C 71 % 1017,6 hPa 0,0 l/m 7,1 km/h (2 Bft) O-NO 65 0 min 0,000 mm 0,0 UV-I 0 W/m 17,9 C 23,3 C 9,7 km/h (2 Bft) 96,30 %
23.06.2016 22:06 23,3 C 72 % 1017,6 hPa 0,0 l/m 7,0 km/h (2 Bft) O-NO 57 0 min 0,000 mm 0,0 UV-I 0 W/m 18,0 C 23,1 C 9,7 km/h (2 Bft) 97,06 %
23.06.2016 22:08 23,2 C 72 % 1017,6 hPa 0,0 l/m 6,0 km/h (2 Bft) O-NO 71 0 min 0,000 mm 0,0 UV-I 0 W/m 17,9 C 23,2 C 8,0 km/h (2 Bft) 97,56 %
23.06.2016 22:10 23,1 C 73 % 1017,6 hPa 0,0 l/m 6,8 km/h (2 Bft) O-NO 59 0 min 0,000 mm 0,0 UV-I 0 W/m 18,0 C 23,0 C 12,9 km/h (3 Bft) 96,23 %
23.06.2016 22:12 23,1 C 73 % 1017,6 hPa 0,0 l/m 5,3 km/h (1 Bft) NO 46 0 min 0,000 mm 0,0 UV-I 0 W/m 18,0 C 23,1 C 8,0 km/h (2 Bft) 97,73 %
23.06.2016 22:14 23,1 C 73 % 1017,6 hPa 0,0 l/m 5,2 km/h (1 Bft) O-NO 57 0 min 0,000 mm 0,0 UV-I 0 W/m 18,0 C 23,1 C 8,0 km/h (2 Bft) 100,00 %
23.06.2016 22:16 22,9 C 73 % 1017,5 hPa 0,0 l/m 5,5 km/h (1 Bft) O-NO 63 0 min 0,000 mm 0,0 UV-I 0 W/m 17,8 C 22,9 C 8,0 km/h (2 Bft) 100,00 %
23.06.2016 22:18 22,9 C 73 % 1017,5 hPa 0,0 l/m 6,4 km/h (2 Bft) N-NO 31 0 min 0,000 mm 0,0 UV-I 0 W/m 17,8 C 22,9 C 9,7 km/h (2 Bft) 98,11 %
23.06.2016 22:20 22,8 C 74 % 1017,5 hPa 0,0 l/m 5,2 km/h (1 Bft) O-NO 67 0 min 0,000 mm 0,0 UV-I 0 W/m 17,9 C 22,8 C 8,0 km/h (2 Bft) 97,37 %
23.06.2016 22:22 22,8 C 74 % 1017,5 hPa 0,0 l/m 5,3 km/h (1 Bft) NO 51 0 min 0,000 mm 0,0 UV-I 0 W/m 17,9 C 22,8 C 8,0 km/h (2 Bft) 100,00 %
23.06.2016 22:24 22,8 C 74 % 1017,5 hPa 0,0 l/m 6,8 km/h (2 Bft) O-NO 68 0 min 0,000 mm 0,0 UV-I 0 W/m 17,9 C 22,7 C 11,3 km/h (2 Bft) 97,56 %
23.06.2016 22:26 22,8 C 74 % 1017,5 hPa 0,0 l/m 6,7 km/h (2 Bft) NO 54 0 min 0,000 mm 0,0 UV-I 0 W/m 17,9 C 22,7 C 9,7 km/h (2 Bft) 100,00 %
23.06.2016 22:28 22,8 C 74 % 1017,6 hPa 0,0 l/m 7,9 km/h (2 Bft) O-NO 78 0 min 0,000 mm 0,0 UV-I 0 W/m 17,9 C 22,3 C 9,7 km/h (2 Bft) 100,00 %
23.06.2016 22:30 22,8 C 74 % 1017,6 hPa 0,0 l/m 6,3 km/h (2 Bft) O-NO 65 0 min 0,000 mm 0,0 UV-I 0 W/m 17,9 C 22,8 C 9,7 km/h (2 Bft) 100,00 %
23.06.2016 22:32 22,7 C 74 % 1017,6 hPa 0,0 l/m 7,3 km/h (2 Bft) NO 53 0 min 0,000 mm 0,0 UV-I 0 W/m 17,8 C 22,4 C 9,7 km/h (2 Bft) 97,73 %
23.06.2016 22:34 22,7 C 75 % 1017,6 hPa 0,0 l/m 6,3 km/h (2 Bft) NO 55 0 min 0,000 mm 0,0 UV-I 0 W/m 18,0 C 22,7 C 9,7 km/h (2 Bft) 100,00 %
23.06.2016 22:36 22,5 C 75 % 1017,6 hPa 0,0 l/m 6,0 km/h (2 Bft) O-NO 65 0 min 0,000 mm 0,0 UV-I 0 W/m 17,8 C 22,5 C 9,7 km/h (2 Bft) 98,51 %
23.06.2016 22:38 22,3 C 75 % 1017,6 hPa 0,0 l/m 6,5 km/h (2 Bft) NO 54 0 min 0,000 mm 0,0 UV-I 0 W/m 17,6 C 22,3 C 9,7 km/h (2 Bft) 100,00 %
23.06.2016 22:40 22,3 C 76 % 1017,5 hPa 0,0 l/m 5,7 km/h (1 Bft) O-NO 58 0 min 0,000 mm 0,0 UV-I 0 W/m 17,9 C 22,3 C 9,7 km/h (2 Bft) 100,00 %
23.06.2016 22:42 22,3 C 76 % 1017,6 hPa 0,0 l/m 7,0 km/h (2 Bft) O-NO 57 0 min 0,000 mm 0,0 UV-I 0 W/m 17,9 C 22,1 C 11,3 km/h (2 Bft) 100,00 %
23.06.2016 22:44 22,3 C 76 % 1017,5 hPa 0,0 l/m 8,0 km/h (2 Bft) NO 54 0 min 0,000 mm 0,0 UV-I 0 W/m 17,9 C 21,8 C 12,9 km/h (3 Bft) 97,22 %
23.06.2016 22:46 22,3 C 76 % 1017,4 hPa 0,0 l/m 6,8 km/h (2 Bft) O-NO 66 0 min 0,000 mm 0,0 UV-I 0 W/m 17,9 C 22,2 C 9,7 km/h (2 Bft) 98,39 %
23.06.2016 22:48 22,3 C 76 % 1017,4 hPa 0,0 l/m 7,0 km/h (2 Bft) O-NO 60 0 min 0,000 mm 0,0 UV-I 0 W/m 17,9 C 22,1 C 9,7 km/h (2 Bft) 100,00 %
23.06.2016 22:50 22,3 C 76 % 1017,4 hPa 0,0 l/m 6,2 km/h (2 Bft) NO 56 0 min 0,000 mm 0,0 UV-I 0 W/m 17,9 C 22,3 C 9,7 km/h (2 Bft) 100,00 %
23.06.2016 22:52 22,3 C 76 % 1017,4 hPa 0,0 l/m 5,9 km/h (2 Bft) NO 43 0 min 0,000 mm 0,0 UV-I 0 W/m 17,9 C 22,3 C 8,0 km/h (2 Bft) 100,00 %
23.06.2016 22:54 22,3 C 76 % 1017,3 hPa 0,0 l/m 5,2 km/h (1 Bft) O-NO 64 0 min 0,000 mm 0,0 UV-I 0 W/m 17,9 C 22,3 C 6,4 km/h (2 Bft) 100,00 %
23.06.2016 22:56 22,3 C 76 % 1017,3 hPa 0,0 l/m 6,5 km/h (2 Bft) O 82 0 min 0,000 mm 0,0 UV-I 0 W/m 17,9 C 22,3 C 9,7 km/h (2 Bft) 100,00 %
23.06.2016 22:58 22,3 C 76 % 1017,3 hPa 0,0 l/m 6,1 km/h (2 Bft) O 82 0 min 0,000 mm 0,0 UV-I 0 W/m 17,9 C 22,3 C 11,3 km/h (2 Bft) 100,00 %
23.06.2016 23:00 22,3 C 76 % 1017,3 hPa 0,0 l/m 4,9 km/h (1 Bft) O-NO 61 0 min 0,000 mm 0,0 UV-I 0 W/m 17,9 C 22,3 C 6,4 km/h (2 Bft) 100,00 %
23.06.2016 23:02 22,3 C 76 % 1017,3 hPa 0,0 l/m 5,0 km/h (1 Bft) NO 53 0 min 0,025 mm 0,0 UV-I 0 W/m 17,9 C 22,3 C 6,4 km/h (2 Bft) 100,00 %
23.06.2016 23:04 22,3 C 76 % 1017,3 hPa 0,0 l/m 4,7 km/h (1 Bft) O-NO 61 0 min 0,000 mm 0,0 UV-I 0 W/m 17,9 C 22,3 C 6,4 km/h (2 Bft) 100,00 %
23.06.2016 23:06 22,3 C 76 % 1017,3 hPa 0,0 l/m 5,9 km/h (2 Bft) O-NO 67 0 min 0,000 mm 0,0 UV-I 0 W/m 17,9 C 22,3 C 8,0 km/h (2 Bft) 100,00 %
23.06.2016 23:08 22,3 C 76 % 1017,3 hPa 0,0 l/m 4,6 km/h (1 Bft) O-NO 66 0 min 0,000 mm 0,0 UV-I 0 W/m 17,9 C 22,3 C 6,4 km/h (2 Bft) 100,00 %
23.06.2016 23:10 22,3 C 76 % 1017,3 hPa 0,0 l/m 6,3 km/h (2 Bft) NO 42 0 min 0,000 mm 0,0 UV-I 0 W/m 17,9 C 22,3 C 8,0 km/h (2 Bft) 100,00 %
23.06.2016 23:12 22,3 C 76 % 1017,3 hPa 0,0 l/m 5,5 km/h (1 Bft) O-NO 61 0 min 0,000 mm 0,0 UV-I 0 W/m 17,9 C 22,3 C 8,0 km/h (2 Bft) 100,00 %
23.06.2016 23:14 22,2 C 76 % 1017,3 hPa 0,0 l/m 4,5 km/h (1 Bft) NO 56 0 min 0,000 mm 0,0 UV-I 0 W/m 17,8 C 22,2 C 6,4 km/h (2 Bft) 100,00 %
23.06.2016 23:16 22,1 C 76 % 1017,2 hPa 0,0 l/m 5,1 km/h (1 Bft) NO 43 0 min 0,000 mm 0,0 UV-I 0 W/m 17,7 C 22,1 C 6,4 km/h (2 Bft) 100,00 %
23.06.2016 23:18 21,9 C 77 % 1017,2 hPa 0,0 l/m 5,8 km/h (2 Bft) NO 55 0 min 0,000 mm 0,0 UV-I 0 W/m 17,7 C 21,9 C 8,0 km/h (2 Bft) 100,00 %
23.06.2016 23:20 21,9 C 77 % 1017,1 hPa 0,0 l/m 4,0 km/h (1 Bft) NO 55 0 min 0,000 mm 0,0 UV-I 0 W/m 17,7 C 21,9 C 6,4 km/h (2 Bft) 100,00 %
23.06.2016 23:22 21,9 C 77 % 1017,2 hPa 0,0 l/m 4,6 km/h (1 Bft) O-NO 60 0 min 0,000 mm 0,0 UV-I 0 W/m 17,7 C 21,9 C 8,0 km/h (2 Bft) 100,00 %
23.06.2016 23:24 21,9 C 77 % 1017,2 hPa 0,0 l/m 4,6 km/h (1 Bft) O-NO 67 0 min 0,000 mm 0,0 UV-I 0 W/m 17,7 C 21,9 C 6,4 km/h (2 Bft) 100,00 %
23.06.2016 23:26 21,9 C 77 % 1017,2 hPa 0,0 l/m 4,5 km/h (1 Bft) O-NO 64 0 min 0,000 mm 0,0 UV-I 0 W/m 17,7 C 21,9 C 6,4 km/h (2 Bft) 100,00 %
23.06.2016 23:28 21,9 C 77 % 1017,1 hPa 0,0 l/m 4,6 km/h (1 Bft) O-NO 61 0 min 0,000 mm 0,0 UV-I 0 W/m 17,7 C 21,9 C 6,4 km/h (2 Bft) 100,00 %
23.06.2016 23:30 21,9 C 77 % 1017,1 hPa 0,0 l/m 4,6 km/h (1 Bft) O-NO 66 0 min 0,000 mm 0,0 UV-I 0 W/m 17,7 C 21,9 C 6,4 km/h (2 Bft) 100,00 %
23.06.2016 23:32 21,9 C 77 % 1017,1 hPa 0,0 l/m 3,9 km/h (1 Bft) O-NO 65 0 min 0,000 mm 0,0 UV-I 0 W/m 17,7 C 21,9 C 6,4 km/h (2 Bft) 100,00 %
23.06.2016 23:34 21,8 C 77 % 1017,1 hPa 0,0 l/m 4,2 km/h (1 Bft) O-NO 61 0 min 0,000 mm 0,0 UV-I 0 W/m 17,6 C 21,8 C 6,4 km/h (2 Bft) 98,11 %
23.06.2016 23:36 21,8 C 78 % 1017,1 hPa 0,0 l/m 4,2 km/h (1 Bft) O-NO 62 0 min 0,000 mm 0,0 UV-I 0 W/m 17,8 C 21,8 C 6,4 km/h (2 Bft) 98,00 %
23.06.2016 23:38 21,8 C 78 % 1017,1 hPa 0,0 l/m 3,8 km/h (1 Bft) O-NO 69 0 min 0,000 mm 0,0 UV-I 0 W/m 17,8 C 21,8 C 6,4 km/h (2 Bft) 97,37 %
23.06.2016 23:40 21,8 C 78 % 1017,1 hPa 0,0 l/m 3,4 km/h (1 Bft) O-NO 68 0 min 0,000 mm 0,0 UV-I 0 W/m 17,8 C 21,8 C 4,8 km/h (1 Bft) 94,64 %
23.06.2016 23:42 21,8 C 78 % 1017,1 hPa 0,0 l/m 3,4 km/h (1 Bft) O-NO 71 0 min 0,000 mm 0,0 UV-I 0 W/m 17,8 C 21,8 C 4,8 km/h (1 Bft) 97,22 %
23.06.2016 23:44 21,8 C 78 % 1017,1 hPa 0,0 l/m 3,1 km/h (1 Bft) O-NO 59 0 min 0,000 mm 0,0 UV-I 0 W/m 17,8 C 21,8 C 4,8 km/h (1 Bft) 97,87 %
23.06.2016 23:46 21,7 C 78 % 1017,1 hPa 0,0 l/m 2,4 km/h (1 Bft) O-NO 59 0 min 0,000 mm 0,0 UV-I 0 W/m 17,7 C 21,7 C 4,8 km/h (1 Bft) 91,49 %
23.06.2016 23:48 21,7 C 78 % 1017,1 hPa 0,0 l/m 3,5 km/h (1 Bft) O-NO 61 0 min 0,000 mm 0,0 UV-I 0 W/m 17,7 C 21,7 C 4,8 km/h (1 Bft) 97,87 %
23.06.2016 23:50 21,7 C 78 % 1017,1 hPa 0,0 l/m 3,4 km/h (1 Bft) O-NO 65 0 min 0,000 mm 0,0 UV-I 0 W/m 17,7 C 21,7 C 4,8 km/h (1 Bft) 98,11 %
23.06.2016 23:52 21,6 C 78 % 1017,1 hPa 0,0 l/m 3,8 km/h (1 Bft) O-NO 70 0 min 0,000 mm 0,0 UV-I 0 W/m 17,6 C 21,6 C 4,8 km/h (1 Bft) 97,87 %
23.06.2016 23:54 21,5 C 79 % 1017,1 hPa 0,0 l/m 4,3 km/h (1 Bft) O-NO 71 0 min 0,000 mm 0,0 UV-I 0 W/m 17,7 C 21,5 C 6,4 km/h (2 Bft) 98,00 %
23.06.2016 23:56 21,4 C 79 % 1017,0 hPa 0,0 l/m 4,1 km/h (1 Bft) O 80 0 min 0,000 mm 0,0 UV-I 0 W/m 17,6 C 21,4 C 6,4 km/h (2 Bft) 94,74 %
23.06.2016 23:58 21,4 C 79 % 1017,0 hPa 0,0 l/m 4,7 km/h (1 Bft) O-NO 74 0 min 0,000 mm 0,0 UV-I 0 W/m 17,6 C 21,4 C 6,4 km/h (2 Bft) 97,92 %
_ Min-Zeit 05:40 15:34 23:56 - 01:32 - - - - - - 05:40 05:40 01:32 23:46
Minimum _ 15,9 C 45 % 1017,0 hPa - 0,0 km/h (0 Bft) - - - - - - 14,4 C 15,9 C 0,0 km/h (0 Bft) 91,49 %
_ Max-Zeit 15:50 06:48 00:52 00:00 10:02 - - 07:00 14:00 12:42 13:02 12:40 16:28 10:02 00:00
Maximum _ 30,1 C 96 % 1022,0 hPa 0,0 l/m 28,3 km/h
O-NO (4 Bft)
- - 2 min 0,711 mm 7,8 UV-I 891 W/m 19,7 C 29,8 C 38,6 km/h
O-NO (5 Bft)
100,00 %
Durchschnitt _ 23,7 C 70 % 1020,0 hPa #0,0 l/m 10,3 km/h (2 Bft) O-NO - #12:58 h #6,629 mm 4,3 UV-I 483 W/m 17,4 C 22,9 C 15,2 km/h (3 Bft) 98,71 %